<?xml version='1.0' encoding='UTF-8'?><gpx version="1.1" creator="JPX - https://github.com/jenetics/jpx" xmlns="http://www.topografix.com/GPX/1/1"><trk><trkseg><trkpt lat="45.790086413195205" lon="8.495855513913034"><ele>518.0</ele><time>2026-04-19T06:17:31.998Z</time></trkpt><trkpt lat="45.79003743562019" lon="8.49575481067882"><ele>518.0</ele><time>2026-04-19T06:17:35.998Z</time></trkpt><trkpt lat="45.79000614529925" lon="8.49564538289923"><ele>518.0</ele><time>2026-04-19T06:17:38.998Z</time></trkpt><trkpt lat="45.789975313965954" lon="8.495562562527153"><ele>518.0</ele><time>2026-04-19T06:17:40.998Z</time></trkpt><trkpt lat="45.78992424451535" lon="8.495494237497551"><ele>518.0</ele><time>2026-04-19T06:17:42.998Z</time></trkpt><trkpt lat="45.78986514886747" lon="8.495449404963356"><ele>518.0</ele><time>2026-04-19T06:17:44.998Z</time></trkpt><trkpt lat="45.78979402376601" lon="8.495396250089671"><ele>520.0</ele><time>2026-04-19T06:17:47.998Z</time></trkpt><trkpt lat="45.78973888701332" lon="8.495309030666505"><ele>522.0</ele><time>2026-04-19T06:17:50.997Z</time></trkpt><trkpt lat="45.78968494524011" lon="8.495236839898007"><ele>524.0</ele><time>2026-04-19T06:17:53.997Z</time></trkpt><trkpt lat="45.78962403027903" lon="8.495174119399863"><ele>526.0</ele><time>2026-04-19T06:17:56.997Z</time></trkpt><trkpt lat="45.789571754262816" lon="8.495113453371598"><ele>528.0</ele><time>2026-04-19T06:17:59.997Z</time></trkpt><trkpt lat="45.789528174653206" lon="8.495034117845101"><ele>530.0</ele><time>2026-04-19T06:18:03Z</time></trkpt><trkpt lat="45.7894680800718" lon="8.49495193826752"><ele>529.9999999999999</ele><time>2026-04-19T06:18:06Z</time></trkpt><trkpt lat="45.78942699506978" lon="8.494866624831008"><ele>530.0</ele><time>2026-04-19T06:18:09Z</time></trkpt><trkpt lat="45.78937489638023" lon="8.494794656497515"><ele>530.0</ele><time>2026-04-19T06:18:12Z</time></trkpt><trkpt lat="45.78933287960045" lon="8.494723892094466"><ele>530.0</ele><time>2026-04-19T06:18:15Z</time></trkpt><trkpt lat="45.78929261311697" lon="8.494627978627443"><ele>530.0</ele><time>2026-04-19T06:18:18Z</time></trkpt><trkpt lat="45.789246173493716" lon="8.494551939647886"><ele>529.9999999999999</ele><time>2026-04-19T06:18:21Z</time></trkpt><trkpt lat="45.789205403672106" lon="8.494476266797204"><ele>530.0</ele><time>2026-04-19T06:18:24Z</time></trkpt><trkpt lat="45.789170451528456" lon="8.494381558869996"><ele>530.7142857142857</ele><time>2026-04-19T06:18:27Z</time></trkpt><trkpt lat="45.78911872538304" lon="8.494326752841946"><ele>531.4285714285714</ele><time>2026-04-19T06:18:28.999Z</time></trkpt><trkpt lat="45.789070449703566" lon="8.49425924501132"><ele>532.1428571428571</ele><time>2026-04-19T06:18:30.999Z</time></trkpt><trkpt lat="45.789033343493585" lon="8.494173795645253"><ele>532.8571428571429</ele><time>2026-04-19T06:18:32.999Z</time></trkpt><trkpt lat="45.7890438504892" lon="8.494075275655092"><ele>533.5714285714286</ele><time>2026-04-19T06:18:34.999Z</time></trkpt><trkpt lat="45.789078702180774" lon="8.493994047112505"><ele>534.2857142857142</ele><time>2026-04-19T06:18:36.999Z</time></trkpt><trkpt lat="45.78910980488724" lon="8.493902935166844"><ele>535.0</ele><time>2026-04-19T06:18:39.999Z</time></trkpt><trkpt lat="45.78912824838673" lon="8.493771558335814"><ele>536.4</ele><time>2026-04-19T06:18:43.999Z</time></trkpt><trkpt lat="45.78914791973699" lon="8.49364718496576"><ele>537.8</ele><time>2026-04-19T06:18:45.999Z</time></trkpt><trkpt lat="45.789213434547705" lon="8.493516940000028"><ele>539.2</ele><time>2026-04-19T06:18:47.999Z</time></trkpt><trkpt lat="45.789287173707166" lon="8.493412303570752"><ele>540.6</ele><time>2026-04-19T06:18:49.999Z</time></trkpt><trkpt lat="45.789358393808925" lon="8.493339036106004"><ele>542.0</ele><time>2026-04-19T06:18:51.999Z</time></trkpt><trkpt lat="45.78944918759466" lon="8.493310017344864"><ele>543.0</ele><time>2026-04-19T06:18:54.999Z</time></trkpt><trkpt lat="45.789515919605805" lon="8.493357495582872"><ele>544.0</ele><time>2026-04-19T06:18:56.999Z</time></trkpt><trkpt lat="45.7895824901701" lon="8.49340800029898"><ele>545.0</ele><time>2026-04-19T06:18:58.999Z</time></trkpt><trkpt lat="45.78965749793653" lon="8.493449362424263"><ele>546.0</ele><time>2026-04-19T06:19:00.999Z</time></trkpt><trkpt lat="45.78973282881928" lon="8.493509393398453"><ele>547.0</ele><time>2026-04-19T06:19:02.999Z</time></trkpt><trkpt lat="45.78980239936956" lon="8.493550775563213"><ele>548.0</ele><time>2026-04-19T06:19:04.999Z</time></trkpt><trkpt lat="45.789865536986525" lon="8.49360327072822"><ele>548.0000000000001</ele><time>2026-04-19T06:19:06.999Z</time></trkpt><trkpt lat="45.78993295686315" lon="8.493629695880715"><ele>548.0</ele><time>2026-04-19T06:19:08.999Z</time></trkpt><trkpt lat="45.79001575471323" lon="8.493686082588981"><ele>548.0</ele><time>2026-04-19T06:19:11.998Z</time></trkpt><trkpt lat="45.790076148296784" lon="8.493715295440014"><ele>548.0</ele><time>2026-04-19T06:19:13.998Z</time></trkpt><trkpt lat="45.79013996553761" lon="8.493722498082862"><ele>548.0</ele><time>2026-04-19T06:19:15.998Z</time></trkpt><trkpt lat="45.79020680410267" lon="8.493753046332461"><ele>548.0000000000001</ele><time>2026-04-19T06:19:18.998Z</time></trkpt><trkpt lat="45.7902640376309" lon="8.493797317463638"><ele>548.0</ele><time>2026-04-19T06:19:21.998Z</time></trkpt><trkpt lat="45.79035437434757" lon="8.49383678959472"><ele>547.8571428571429</ele><time>2026-04-19T06:19:24.998Z</time></trkpt><trkpt lat="45.790417078074924" lon="8.493865151981716"><ele>547.7142857142858</ele><time>2026-04-19T06:19:26.998Z</time></trkpt><trkpt lat="45.7904767830821" lon="8.49389873914012"><ele>547.5714285714286</ele><time>2026-04-19T06:19:28.998Z</time></trkpt><trkpt lat="45.7905554506362" lon="8.493944009779225"><ele>547.4285714285714</ele><time>2026-04-19T06:19:31.998Z</time></trkpt><trkpt lat="45.790639450968364" lon="8.49400872484686"><ele>547.2857142857142</ele><time>2026-04-19T06:19:34.998Z</time></trkpt><trkpt lat="45.79069521358227" lon="8.494062274968433"><ele>547.1428571428571</ele><time>2026-04-19T06:19:36.998Z</time></trkpt><trkpt lat="45.79075257763923" lon="8.4941061583224"><ele>547.0</ele><time>2026-04-19T06:19:38.998Z</time></trkpt><trkpt lat="45.79082127867202" lon="8.494136106089265"><ele>547.0</ele><time>2026-04-19T06:19:40.998Z</time></trkpt><trkpt lat="45.79087373577153" lon="8.4941899630652"><ele>547.0</ele><time>2026-04-19T06:19:42.998Z</time></trkpt><trkpt lat="45.79093907350877" lon="8.494276558946568"><ele>547.0</ele><time>2026-04-19T06:19:45.998Z</time></trkpt><trkpt lat="45.79098253461309" lon="8.494344782875375"><ele>547.0</ele><time>2026-04-19T06:19:47.998Z</time></trkpt><trkpt lat="45.79102754048091" lon="8.494408933174528"><ele>547.0</ele><time>2026-04-19T06:19:49.998Z</time></trkpt><trkpt lat="45.79104642830583" lon="8.494501607518261"><ele>547.0</ele><time>2026-04-19T06:19:51.997Z</time></trkpt><trkpt lat="45.79108279853608" lon="8.494584459762438"><ele>547.0</ele><time>2026-04-19T06:19:53.997Z</time></trkpt><trkpt lat="45.791120118415" lon="8.494709909610432"><ele>547.7142857142857</ele><time>2026-04-19T06:19:56.997Z</time></trkpt><trkpt lat="45.791175275601404" lon="8.49481835986812"><ele>548.4285714285713</ele><time>2026-04-19T06:19:59.997Z</time></trkpt><trkpt lat="45.79122200694157" lon="8.494884894597256"><ele>549.1428571428571</ele><time>2026-04-19T06:20:01.997Z</time></trkpt><trkpt lat="45.79127215683032" lon="8.494941691636596"><ele>549.8571428571429</ele><time>2026-04-19T06:20:03.997Z</time></trkpt><trkpt lat="45.791321932848305" lon="8.49499901855351"><ele>550.5714285714287</ele><time>2026-04-19T06:20:05.997Z</time></trkpt><trkpt lat="45.79138412581075" lon="8.495096977616958"><ele>551.2857142857143</ele><time>2026-04-19T06:20:09Z</time></trkpt><trkpt lat="45.791445572780255" lon="8.495144330989842"><ele>552.0</ele><time>2026-04-19T06:20:11Z</time></trkpt><trkpt lat="45.79150622810511" lon="8.495199106766771"><ele>552.0</ele><time>2026-04-19T06:20:13Z</time></trkpt><trkpt lat="45.79157147862496" lon="8.495279914830576"><ele>552.0</ele><time>2026-04-19T06:20:16Z</time></trkpt><trkpt lat="45.79163128918499" lon="8.495324155937617"><ele>552.0</ele><time>2026-04-19T06:20:18Z</time></trkpt><trkpt lat="45.79168339714162" lon="8.495384253931634"><ele>552.0</ele><time>2026-04-19T06:20:20Z</time></trkpt><trkpt lat="45.791756151215836" lon="8.495455216433676"><ele>552.0</ele><time>2026-04-19T06:20:23Z</time></trkpt><trkpt lat="45.791811528879464" lon="8.495516286263634"><ele>552.0</ele><time>2026-04-19T06:20:25Z</time></trkpt><trkpt lat="45.79188678752388" lon="8.495570459464608"><ele>552.3333333333334</ele><time>2026-04-19T06:20:27Z</time></trkpt><trkpt lat="45.79196070870181" lon="8.495610752048806"><ele>552.6666666666666</ele><time>2026-04-19T06:20:29Z</time></trkpt><trkpt lat="45.79203239651642" lon="8.495633288234243"><ele>553.0</ele><time>2026-04-19T06:20:30.999Z</time></trkpt><trkpt lat="45.79211304675241" lon="8.495648579240232"><ele>553.3333333333333</ele><time>2026-04-19T06:20:32.999Z</time></trkpt><trkpt lat="45.79217717522264" lon="8.49565426568011"><ele>553.6666666666666</ele><time>2026-04-19T06:20:34.999Z</time></trkpt><trkpt lat="45.792241343166395" lon="8.495661503434011"><ele>554.0</ele><time>2026-04-19T06:20:37.999Z</time></trkpt><trkpt lat="45.792281723729346" lon="8.495501895885065"><ele>555.3333333333333</ele><time>2026-04-19T06:20:38.999Z</time></trkpt><trkpt lat="45.79225731255173" lon="8.49538826794605"><ele>556.6666666666666</ele><time>2026-04-19T06:20:40.999Z</time></trkpt><trkpt lat="45.79219110718763" lon="8.495298343561227"><ele>558.0</ele><time>2026-04-19T06:20:42.999Z</time></trkpt><trkpt lat="45.792138826986445" lon="8.495224385607866"><ele>559.3333333333334</ele><time>2026-04-19T06:20:44.999Z</time></trkpt><trkpt lat="45.792076934970744" lon="8.495121798404664"><ele>560.6666666666667</ele><time>2026-04-19T06:20:47.999Z</time></trkpt><trkpt lat="45.792048282011145" lon="8.49503211259915"><ele>562.0</ele><time>2026-04-19T06:20:49.999Z</time></trkpt><trkpt lat="45.79203296604479" lon="8.494941917483636"><ele>562.0000000000001</ele><time>2026-04-19T06:20:51.999Z</time></trkpt><trkpt lat="45.79201209563529" lon="8.49484326255616"><ele>562.0</ele><time>2026-04-19T06:20:53.999Z</time></trkpt><trkpt lat="45.79198036659213" lon="8.494724584126137"><ele>562.0</ele><time>2026-04-19T06:20:55.999Z</time></trkpt><trkpt lat="45.791946076808074" lon="8.49463335646315"><ele>562.0</ele><time>2026-04-19T06:20:57.999Z</time></trkpt><trkpt lat="45.79190427412549" lon="8.494545071736544"><ele>562.0</ele><time>2026-04-19T06:20:59.999Z</time></trkpt><trkpt lat="45.79186342475395" lon="8.494460217893575"><ele>562.0000000000001</ele><time>2026-04-19T06:21:01.999Z</time></trkpt><trkpt lat="45.79182887661302" lon="8.494373196002975"><ele>562.0</ele><time>2026-04-19T06:21:03.999Z</time></trkpt><trkpt lat="45.79179984249612" lon="8.494285234857566"><ele>561.1666666666667</ele><time>2026-04-19T06:21:05.999Z</time></trkpt><trkpt lat="45.79177084035226" lon="8.4941970184241"><ele>560.3333333333334</ele><time>2026-04-19T06:21:07.999Z</time></trkpt><trkpt lat="45.791742076283306" lon="8.494109526551386"><ele>559.5</ele><time>2026-04-19T06:21:09.999Z</time></trkpt><trkpt lat="45.791719515723436" lon="8.494023324624454"><ele>558.6666666666666</ele><time>2026-04-19T06:21:11.999Z</time></trkpt><trkpt lat="45.79172022878243" lon="8.493925158090212"><ele>557.8333333333333</ele><time>2026-04-19T06:21:14.998Z</time></trkpt><trkpt lat="45.79170653143579" lon="8.493820472555534"><ele>557.0</ele><time>2026-04-19T06:21:17.998Z</time></trkpt><trkpt lat="45.791646319960535" lon="8.493677815298238"><ele>557.0</ele><time>2026-04-19T06:21:22.998Z</time></trkpt><trkpt lat="45.791657420557975" lon="8.493575130903873"><ele>557.0</ele><time>2026-04-19T06:21:23.998Z</time></trkpt><trkpt lat="45.791689769048006" lon="8.493468680211423"><ele>557.0</ele><time>2026-04-19T06:21:26.998Z</time></trkpt><trkpt lat="45.79170228605674" lon="8.49335219461005"><ele>557.0</ele><time>2026-04-19T06:21:29.998Z</time></trkpt><trkpt lat="45.791706459372094" lon="8.493220558556908"><ele>557.0</ele><time>2026-04-19T06:21:32.998Z</time></trkpt><trkpt lat="45.791709801859376" lon="8.493118571680885"><ele>557.0</ele><time>2026-04-19T06:21:34.998Z</time></trkpt><trkpt lat="45.79173687198089" lon="8.493001280849148"><ele>557.7142857142858</ele><time>2026-04-19T06:21:37.998Z</time></trkpt><trkpt lat="45.791748232761066" lon="8.492912399869965"><ele>558.4285714285714</ele><time>2026-04-19T06:21:39.998Z</time></trkpt><trkpt lat="45.79174248394274" lon="8.492815140198394"><ele>559.1428571428571</ele><time>2026-04-19T06:21:41.998Z</time></trkpt><trkpt lat="45.79173621097875" lon="8.492696220440507"><ele>559.8571428571429</ele><time>2026-04-19T06:21:44.998Z</time></trkpt><trkpt lat="45.79174288035136" lon="8.492602812653745"><ele>560.5714285714286</ele><time>2026-04-19T06:21:47.998Z</time></trkpt><trkpt lat="45.79171807085713" lon="8.492494531905303"><ele>561.2857142857143</ele><time>2026-04-19T06:21:49.998Z</time></trkpt><trkpt lat="45.791676216910645" lon="8.492382671388208"><ele>562.0</ele><time>2026-04-19T06:21:52.998Z</time></trkpt><trkpt lat="45.791629034182726" lon="8.492311372412704"><ele>562.0000000000001</ele><time>2026-04-19T06:21:54.998Z</time></trkpt><trkpt lat="45.791582490234" lon="8.49223415701568"><ele>562.0</ele><time>2026-04-19T06:21:56.997Z</time></trkpt><trkpt lat="45.791553328837225" lon="8.492152448261985"><ele>562.0</ele><time>2026-04-19T06:21:58.997Z</time></trkpt><trkpt lat="45.7915230187794" lon="8.4920686031787"><ele>562.0</ele><time>2026-04-19T06:22:00.997Z</time></trkpt><trkpt lat="45.79149658807654" lon="8.491980736352096"><ele>562.0</ele><time>2026-04-19T06:22:03.997Z</time></trkpt><trkpt lat="45.79144669087364" lon="8.491885822622754"><ele>562.0000000000001</ele><time>2026-04-19T06:22:06.997Z</time></trkpt><trkpt lat="45.7914044855774" lon="8.491771079513716"><ele>562.0</ele><time>2026-04-19T06:22:09.997Z</time></trkpt><trkpt lat="45.79137265642031" lon="8.491692822803042"><ele>563.1428571428572</ele><time>2026-04-19T06:22:11.997Z</time></trkpt><trkpt lat="45.791358925613956" lon="8.491587272553666"><ele>564.2857142857143</ele><time>2026-04-19T06:22:15Z</time></trkpt><trkpt lat="45.79135888945644" lon="8.491496462630979"><ele>565.4285714285714</ele><time>2026-04-19T06:22:18Z</time></trkpt><trkpt lat="45.79137670307147" lon="8.49139267904382"><ele>566.5714285714287</ele><time>2026-04-19T06:22:21Z</time></trkpt><trkpt lat="45.79140069304315" lon="8.491273515333463"><ele>567.7142857142858</ele><time>2026-04-19T06:22:24Z</time></trkpt><trkpt lat="45.79142761481768" lon="8.491189830635308"><ele>568.8571428571429</ele><time>2026-04-19T06:22:27Z</time></trkpt><trkpt lat="45.791453995563444" lon="8.49108517783743"><ele>570.0</ele><time>2026-04-19T06:22:31Z</time></trkpt><trkpt lat="45.79149267974426" lon="8.490975015358991"><ele>571.6666666666666</ele><time>2026-04-19T06:22:34Z</time></trkpt><trkpt lat="45.79151330816254" lon="8.490883363119503"><ele>573.3333333333334</ele><time>2026-04-19T06:22:35.999Z</time></trkpt><trkpt lat="45.79151652878561" lon="8.490760608311923"><ele>575.0</ele><time>2026-04-19T06:22:39.999Z</time></trkpt><trkpt lat="45.79146201202237" lon="8.490650772943066"><ele>576.6666666666667</ele><time>2026-04-19T06:22:42.999Z</time></trkpt><trkpt lat="45.79141736129149" lon="8.49056244874507"><ele>578.3333333333334</ele><time>2026-04-19T06:22:46.999Z</time></trkpt><trkpt lat="45.79135968676821" lon="8.490486876388204"><ele>580.0</ele><time>2026-04-19T06:22:51.999Z</time></trkpt><trkpt lat="45.791313295477806" lon="8.490403514778725"><ele>579.5714285714286</ele><time>2026-04-19T06:22:54.999Z</time></trkpt><trkpt lat="45.791269025235536" lon="8.490334561947856"><ele>579.1428571428572</ele><time>2026-04-19T06:22:56.999Z</time></trkpt><trkpt lat="45.791215344626366" lon="8.49026160862851"><ele>578.7142857142858</ele><time>2026-04-19T06:22:59.999Z</time></trkpt><trkpt lat="45.791165713245796" lon="8.490191708771848"><ele>578.2857142857143</ele><time>2026-04-19T06:23:01.999Z</time></trkpt><trkpt lat="45.791119873767215" lon="8.490115221847464"><ele>577.8571428571429</ele><time>2026-04-19T06:23:03.999Z</time></trkpt><trkpt lat="45.79105309669859" lon="8.490035576071438"><ele>577.4285714285714</ele><time>2026-04-19T06:23:06.999Z</time></trkpt><trkpt lat="45.79099276568964" lon="8.489984181021493"><ele>577.0</ele><time>2026-04-19T06:23:08.999Z</time></trkpt><trkpt lat="45.79092503564833" lon="8.489952099727532"><ele>577.0</ele><time>2026-04-19T06:23:10.999Z</time></trkpt><trkpt lat="45.790854761839526" lon="8.489900146651703"><ele>577.0</ele><time>2026-04-19T06:23:12.999Z</time></trkpt><trkpt lat="45.79079512750004" lon="8.489842539140959"><ele>577.0</ele><time>2026-04-19T06:23:14.999Z</time></trkpt><trkpt lat="45.79075472661852" lon="8.489769308636172"><ele>577.0</ele><time>2026-04-19T06:23:16.999Z</time></trkpt><trkpt lat="45.79071309760968" lon="8.489690665319218"><ele>577.0</ele><time>2026-04-19T06:23:18.998Z</time></trkpt><trkpt lat="45.79068486959732" lon="8.489573447050207"><ele>577.0</ele><time>2026-04-19T06:23:21.998Z</time></trkpt><trkpt lat="45.79062382849894" lon="8.489421730036343"><ele>577.5</ele><time>2026-04-19T06:23:23.998Z</time></trkpt><trkpt lat="45.79060156737525" lon="8.48932444777795"><ele>578.0</ele><time>2026-04-19T06:23:25.998Z</time></trkpt><trkpt lat="45.79058503089276" lon="8.489210913235478"><ele>578.5</ele><time>2026-04-19T06:23:27.998Z</time></trkpt><trkpt lat="45.790574085746286" lon="8.48909987719381"><ele>579.0</ele><time>2026-04-19T06:23:29.998Z</time></trkpt><trkpt lat="45.79062022094812" lon="8.489034833749136"><ele>579.5</ele><time>2026-04-19T06:23:31.998Z</time></trkpt><trkpt lat="45.790682915433585" lon="8.488938335784011"><ele>580.0</ele><time>2026-04-19T06:23:34.998Z</time></trkpt><trkpt lat="45.79071122037189" lon="8.488814150407679"><ele>580.1428571428571</ele><time>2026-04-19T06:23:37.998Z</time></trkpt><trkpt lat="45.79072760519919" lon="8.488725343316672"><ele>580.2857142857143</ele><time>2026-04-19T06:23:39.998Z</time></trkpt><trkpt lat="45.790785872561514" lon="8.488621557318751"><ele>580.4285714285714</ele><time>2026-04-19T06:23:42.998Z</time></trkpt><trkpt lat="45.790842803994686" lon="8.488555937992604"><ele>580.5714285714286</ele><time>2026-04-19T06:23:44.998Z</time></trkpt><trkpt lat="45.79090147688894" lon="8.488521178838008"><ele>580.7142857142858</ele><time>2026-04-19T06:23:46.998Z</time></trkpt><trkpt lat="45.79096551395409" lon="8.488469128612675"><ele>580.8571428571429</ele><time>2026-04-19T06:23:48.998Z</time></trkpt><trkpt lat="45.79102272811695" lon="8.48840773037612"><ele>581.0</ele><time>2026-04-19T06:23:50.998Z</time></trkpt><trkpt lat="45.79108514166342" lon="8.488332990341625"><ele>582.6666666666666</ele><time>2026-04-19T06:23:52.998Z</time></trkpt><trkpt lat="45.7911513994848" lon="8.488261613910815"><ele>584.3333333333333</ele><time>2026-04-19T06:23:54.998Z</time></trkpt><trkpt lat="45.79122624183435" lon="8.488158767676238"><ele>586.0</ele><time>2026-04-19T06:23:56.998Z</time></trkpt><trkpt lat="45.791286492431816" lon="8.48804704370993"><ele>587.6666666666666</ele><time>2026-04-19T06:23:58.998Z</time></trkpt><trkpt lat="45.79129528094584" lon="8.487930087054087"><ele>589.3333333333334</ele><time>2026-04-19T06:24:00.997Z</time></trkpt><trkpt lat="45.79123159765682" lon="8.487872252238686"><ele>591.0</ele><time>2026-04-19T06:24:04.997Z</time></trkpt><trkpt lat="45.79116637791459" lon="8.487853948991276"><ele>591.0</ele><time>2026-04-19T06:24:07.997Z</time></trkpt><trkpt lat="45.7910995332612" lon="8.487888923851365"><ele>591.0</ele><time>2026-04-19T06:24:10.997Z</time></trkpt><trkpt lat="45.79101812749501" lon="8.487906864415237"><ele>591.0</ele><time>2026-04-19T06:24:13.997Z</time></trkpt><trkpt lat="45.79094851135545" lon="8.487885513495797"><ele>591.0</ele><time>2026-04-19T06:24:15.997Z</time></trkpt><trkpt lat="45.79088146941846" lon="8.48785333901727"><ele>591.0</ele><time>2026-04-19T06:24:18Z</time></trkpt><trkpt lat="45.790808109127894" lon="8.487770345414289"><ele>591.0</ele><time>2026-04-19T06:24:21Z</time></trkpt><trkpt lat="45.7907323341388" lon="8.487759089484834"><ele>590.6666666666666</ele><time>2026-04-19T06:24:24Z</time></trkpt><trkpt lat="45.79068448771478" lon="8.487857112539414"><ele>590.3333333333334</ele><time>2026-04-19T06:24:28Z</time></trkpt><trkpt lat="45.79067026553173" lon="8.487945528382319"><ele>590.0</ele><time>2026-04-19T06:24:30Z</time></trkpt><trkpt lat="45.79061164211505" lon="8.488027959118195"><ele>589.6666666666667</ele><time>2026-04-19T06:24:32Z</time></trkpt><trkpt lat="45.79052546454622" lon="8.488069236232315"><ele>589.3333333333334</ele><time>2026-04-19T06:24:34Z</time></trkpt><trkpt lat="45.7904597730227" lon="8.48808549411769"><ele>589.0</ele><time>2026-04-19T06:24:36Z</time></trkpt><trkpt lat="45.79038903325205" lon="8.488133037894617"><ele>587.8571428571429</ele><time>2026-04-19T06:24:38Z</time></trkpt><trkpt lat="45.790330489655055" lon="8.488169323225016"><ele>586.7142857142857</ele><time>2026-04-19T06:24:39.999Z</time></trkpt><trkpt lat="45.790267990693366" lon="8.48819547853872"><ele>585.5714285714286</ele><time>2026-04-19T06:24:41.999Z</time></trkpt><trkpt lat="45.790203632333295" lon="8.488196096374482"><ele>584.4285714285714</ele><time>2026-04-19T06:24:43.999Z</time></trkpt><trkpt lat="45.79014033841118" lon="8.48820015329298"><ele>583.2857142857142</ele><time>2026-04-19T06:24:45.999Z</time></trkpt><trkpt lat="45.79005685057657" lon="8.48818363360074"><ele>582.1428571428571</ele><time>2026-04-19T06:24:48.999Z</time></trkpt><trkpt lat="45.78998782498588" lon="8.488157814816196"><ele>581.0</ele><time>2026-04-19T06:24:51.999Z</time></trkpt><trkpt lat="45.789915000525866" lon="8.488146569138136"><ele>580.8333333333333</ele><time>2026-04-19T06:24:54.999Z</time></trkpt><trkpt lat="45.78984753413797" lon="8.488114214301456"><ele>580.6666666666666</ele><time>2026-04-19T06:24:57.999Z</time></trkpt><trkpt lat="45.789783625949546" lon="8.488101014799113"><ele>580.5</ele><time>2026-04-19T06:25:00.999Z</time></trkpt><trkpt lat="45.7896966617074" lon="8.488072251071953"><ele>580.3333333333334</ele><time>2026-04-19T06:25:04.999Z</time></trkpt><trkpt lat="45.78962466082567" lon="8.488043269672646"><ele>580.1666666666667</ele><time>2026-04-19T06:25:07.999Z</time></trkpt><trkpt lat="45.78953967275575" lon="8.488030361098811"><ele>580.0</ele><time>2026-04-19T06:25:10.999Z</time></trkpt><trkpt lat="45.78947196719445" lon="8.488033890571064"><ele>580.0</ele><time>2026-04-19T06:25:13.999Z</time></trkpt><trkpt lat="45.789402754705" lon="8.48801996748869"><ele>580.0</ele><time>2026-04-19T06:25:16.999Z</time></trkpt><trkpt lat="45.78933743094233" lon="8.488001804680184"><ele>580.0</ele><time>2026-04-19T06:25:20.999Z</time></trkpt><trkpt lat="45.789275809399804" lon="8.487978066955161"><ele>580.0</ele><time>2026-04-19T06:25:23.998Z</time></trkpt><trkpt lat="45.789190026626926" lon="8.48794562990994"><ele>580.0</ele><time>2026-04-19T06:25:26.998Z</time></trkpt><trkpt lat="45.78910123466175" lon="8.487912260525633"><ele>580.0</ele><time>2026-04-19T06:25:29.998Z</time></trkpt><trkpt lat="45.789016346427466" lon="8.487891496749919"><ele>584.5</ele><time>2026-04-19T06:25:32.998Z</time></trkpt><trkpt lat="45.788952183883886" lon="8.487882323248972"><ele>589.0</ele><time>2026-04-19T06:25:34.998Z</time></trkpt><trkpt lat="45.788871195875615" lon="8.487895307501235"><ele>593.5</ele><time>2026-04-19T06:25:38.998Z</time></trkpt><trkpt lat="45.78879435722798" lon="8.487881971951335"><ele>598.0</ele><time>2026-04-19T06:25:41.998Z</time></trkpt><trkpt lat="45.788716792053265" lon="8.48786661555957"><ele>602.5</ele><time>2026-04-19T06:25:44.998Z</time></trkpt><trkpt lat="45.78864743079039" lon="8.487840376524789"><ele>607.0</ele><time>2026-04-19T06:25:47.998Z</time></trkpt><trkpt lat="45.78856718626641" lon="8.487788598143174"><ele>606.8333333333334</ele><time>2026-04-19T06:25:50.998Z</time></trkpt><trkpt lat="45.788500501440694" lon="8.487751673806923"><ele>606.6666666666667</ele><time>2026-04-19T06:25:52.998Z</time></trkpt><trkpt lat="45.78842443790954" lon="8.487710325701949"><ele>606.5</ele><time>2026-04-19T06:25:55.998Z</time></trkpt><trkpt lat="45.78835311822081" lon="8.487701976949463"><ele>606.3333333333334</ele><time>2026-04-19T06:25:58.998Z</time></trkpt><trkpt lat="45.78828403576361" lon="8.487690563989766"><ele>606.1666666666666</ele><time>2026-04-19T06:26:01.998Z</time></trkpt><trkpt lat="45.78819828431441" lon="8.487665951852659"><ele>606.0</ele><time>2026-04-19T06:26:04.997Z</time></trkpt><trkpt lat="45.78812388940316" lon="8.487632262203183"><ele>606.0</ele><time>2026-04-19T06:26:07.997Z</time></trkpt><trkpt lat="45.78804471436327" lon="8.487578879420274"><ele>606.0</ele><time>2026-04-19T06:26:10.997Z</time></trkpt><trkpt lat="45.78798419337387" lon="8.487536849942607"><ele>606.0</ele><time>2026-04-19T06:26:12.997Z</time></trkpt><trkpt lat="45.78790128312764" lon="8.487495138860616"><ele>606.0</ele><time>2026-04-19T06:26:15.997Z</time></trkpt><trkpt lat="45.78781521490271" lon="8.487470748607347"><ele>606.0</ele><time>2026-04-19T06:26:18.997Z</time></trkpt><trkpt lat="45.78774115023789" lon="8.487414580926059"><ele>606.0</ele><time>2026-04-19T06:26:21.997Z</time></trkpt><trkpt lat="45.78768246280551" lon="8.487379552246791"><ele>606.1428571428571</ele><time>2026-04-19T06:26:24Z</time></trkpt><trkpt lat="45.78760070185496" lon="8.48734462654968"><ele>606.2857142857142</ele><time>2026-04-19T06:26:27Z</time></trkpt><trkpt lat="45.78753466753381" lon="8.487311010335937"><ele>606.4285714285713</ele><time>2026-04-19T06:26:29Z</time></trkpt><trkpt lat="45.78747144983319" lon="8.48728829903074"><ele>606.5714285714286</ele><time>2026-04-19T06:26:31Z</time></trkpt><trkpt lat="45.78740987891659" lon="8.487264844409552"><ele>606.7142857142857</ele><time>2026-04-19T06:26:34Z</time></trkpt><trkpt lat="45.787322485529344" lon="8.487255040176565"><ele>606.8571428571428</ele><time>2026-04-19T06:26:37Z</time></trkpt><trkpt lat="45.7872555424134" lon="8.487249211059181"><ele>607.0</ele><time>2026-04-19T06:26:39Z</time></trkpt><trkpt lat="45.78717386744561" lon="8.487234496942575"><ele>607.0</ele><time>2026-04-19T06:26:42Z</time></trkpt><trkpt lat="45.78711221529768" lon="8.487211818094748"><ele>607.0</ele><time>2026-04-19T06:26:44Z</time></trkpt><trkpt lat="45.78701356975613" lon="8.487178624983246"><ele>607.0</ele><time>2026-04-19T06:26:46.999Z</time></trkpt><trkpt lat="45.78690908618701" lon="8.48716142322934"><ele>607.0</ele><time>2026-04-19T06:26:49.999Z</time></trkpt><trkpt lat="45.78679805777734" lon="8.48714066391625"><ele>607.0</ele><time>2026-04-19T06:26:51.999Z</time></trkpt><trkpt lat="45.78669322871855" lon="8.48713366791914"><ele>606.0</ele><time>2026-04-19T06:26:53.999Z</time></trkpt><trkpt lat="45.786553603756694" lon="8.48716004369149"><ele>605.0</ele><time>2026-04-19T06:26:55.999Z</time></trkpt><trkpt lat="45.78648698371597" lon="8.487192240817892"><ele>604.0</ele><time>2026-04-19T06:26:56.999Z</time></trkpt><trkpt lat="45.78649629976122" lon="8.487310755534534"><ele>603.0</ele><time>2026-04-19T06:27:02.999Z</time></trkpt><trkpt lat="45.78646681357738" lon="8.487411956284742"><ele>602.0</ele><time>2026-04-19T06:27:05.999Z</time></trkpt><trkpt lat="45.78641141695333" lon="8.487357957404685"><ele>601.0</ele><time>2026-04-19T06:27:08.999Z</time></trkpt><trkpt lat="45.786393126781924" lon="8.487264155821126"><ele>601.0</ele><time>2026-04-19T06:27:10.999Z</time></trkpt><trkpt lat="45.78634340905927" lon="8.487159244319564"><ele>601.0</ele><time>2026-04-19T06:27:13.999Z</time></trkpt><trkpt lat="45.786287486573556" lon="8.48707110637319"><ele>601.0</ele><time>2026-04-19T06:27:16.999Z</time></trkpt><trkpt lat="45.786243241958964" lon="8.486995818174297"><ele>601.0</ele><time>2026-04-19T06:27:19.999Z</time></trkpt><trkpt lat="45.786190719924925" lon="8.486898536136714"><ele>601.0</ele><time>2026-04-19T06:27:22.999Z</time></trkpt><trkpt lat="45.78613405022883" lon="8.48680767430591"><ele>601.0</ele><time>2026-04-19T06:27:25.999Z</time></trkpt><trkpt lat="45.78609007363016" lon="8.48669144445516"><ele>602.5</ele><time>2026-04-19T06:27:28.998Z</time></trkpt><trkpt lat="45.78601965930274" lon="8.486635492599504"><ele>604.0</ele><time>2026-04-19T06:27:31.998Z</time></trkpt><trkpt lat="45.78594543729964" lon="8.486585009768216"><ele>605.5</ele><time>2026-04-19T06:27:34.998Z</time></trkpt><trkpt lat="45.78585540666811" lon="8.486566568454618"><ele>607.0</ele><time>2026-04-19T06:27:37.998Z</time></trkpt><trkpt lat="45.78577152415104" lon="8.486550325647194"><ele>608.5</ele><time>2026-04-19T06:27:40.998Z</time></trkpt><trkpt lat="45.78569234385805" lon="8.486535481838844"><ele>610.0</ele><time>2026-04-19T06:27:43.998Z</time></trkpt><trkpt lat="45.78562169906722" lon="8.48651782568663"><ele>612.0</ele><time>2026-04-19T06:27:46.998Z</time></trkpt><trkpt lat="45.78554861437602" lon="8.486492556367143"><ele>614.0</ele><time>2026-04-19T06:27:49.998Z</time></trkpt><trkpt lat="45.78548643268713" lon="8.486469856485753"><ele>616.0</ele><time>2026-04-19T06:27:52.998Z</time></trkpt><trkpt lat="45.785413548339676" lon="8.486462832194276"><ele>618.0</ele><time>2026-04-19T06:27:55.998Z</time></trkpt><trkpt lat="45.785366745844954" lon="8.4865393062433"><ele>620.0</ele><time>2026-04-19T06:27:59.998Z</time></trkpt><trkpt lat="45.78536927532729" lon="8.486654451315568"><ele>622.0</ele><time>2026-04-19T06:28:03.998Z</time></trkpt><trkpt lat="45.785405077417764" lon="8.486732808426826"><ele>624.0</ele><time>2026-04-19T06:28:06.998Z</time></trkpt><trkpt lat="45.78545619486952" lon="8.486813622448587"><ele>624.0</ele><time>2026-04-19T06:28:09.997Z</time></trkpt><trkpt lat="45.78551198144161" lon="8.48692432119455"><ele>624.0</ele><time>2026-04-19T06:28:13.997Z</time></trkpt><trkpt lat="45.785528656688726" lon="8.48702010136054"><ele>624.0</ele><time>2026-04-19T06:28:16.997Z</time></trkpt><trkpt lat="45.785557029792734" lon="8.48712401389911"><ele>624.0</ele><time>2026-04-19T06:28:19.997Z</time></trkpt><trkpt lat="45.785583586006574" lon="8.487206436038573"><ele>624.0</ele><time>2026-04-19T06:28:22.997Z</time></trkpt><trkpt lat="45.78559812919905" lon="8.487330012290187"><ele>624.0</ele><time>2026-04-19T06:28:26.997Z</time></trkpt><trkpt lat="45.78556170408533" lon="8.487426534158873"><ele>624.5</ele><time>2026-04-19T06:28:30Z</time></trkpt><trkpt lat="45.785515671629405" lon="8.487516788599992"><ele>625.0</ele><time>2026-04-19T06:28:33Z</time></trkpt><trkpt lat="45.78545411217925" lon="8.487568166843"><ele>625.5</ele><time>2026-04-19T06:28:36Z</time></trkpt><trkpt lat="45.78537234065987" lon="8.487606116484189"><ele>626.0</ele><time>2026-04-19T06:28:39Z</time></trkpt><trkpt lat="45.785300715823674" lon="8.487603666319957"><ele>626.5</ele><time>2026-04-19T06:28:42Z</time></trkpt><trkpt lat="45.78523458943194" lon="8.487584802136666"><ele>627.0</ele><time>2026-04-19T06:28:45Z</time></trkpt><trkpt lat="45.785151845828466" lon="8.487554127294421"><ele>630.4000000000001</ele><time>2026-04-19T06:29:38.998Z</time></trkpt><trkpt lat="45.78507744145196" lon="8.487473909128166"><ele>633.8000000000001</ele><time>2026-04-19T06:29:42.998Z</time></trkpt><trkpt lat="45.78500241637398" lon="8.487404272079766"><ele>637.2</ele><time>2026-04-19T06:29:45.998Z</time></trkpt><trkpt lat="45.784937245657055" lon="8.487382657797376"><ele>640.6</ele><time>2026-04-19T06:29:47.998Z</time></trkpt><trkpt lat="45.78483291737792" lon="8.48738306045278"><ele>644.0</ele><time>2026-04-19T06:29:49.998Z</time></trkpt><trkpt lat="45.7847170710954" lon="8.487352798129754"><ele>644.0</ele><time>2026-04-19T06:29:51.998Z</time></trkpt><trkpt lat="45.78461782277736" lon="8.487337906196634"><ele>644.0</ele><time>2026-04-19T06:29:53.998Z</time></trkpt><trkpt lat="45.78452838447349" lon="8.487296131058113"><ele>644.0</ele><time>2026-04-19T06:29:55.998Z</time></trkpt><trkpt lat="45.78445838403666" lon="8.487229104825685"><ele>644.0</ele><time>2026-04-19T06:29:57.998Z</time></trkpt><trkpt lat="45.784388162385476" lon="8.48715802850336"><ele>644.0</ele><time>2026-04-19T06:30:00.998Z</time></trkpt><trkpt lat="45.78432251964776" lon="8.487119674804246"><ele>644.0</ele><time>2026-04-19T06:30:04.998Z</time></trkpt><trkpt lat="45.784262916058935" lon="8.487071402730885"><ele>647.0</ele><time>2026-04-19T06:30:06.998Z</time></trkpt><trkpt lat="45.78418328717208" lon="8.487032610024434"><ele>650.0</ele><time>2026-04-19T06:30:08.998Z</time></trkpt><trkpt lat="45.78410745204063" lon="8.4869891831462"><ele>653.0</ele><time>2026-04-19T06:30:10.997Z</time></trkpt><trkpt lat="45.7840254720374" lon="8.486952450061663"><ele>656.0</ele><time>2026-04-19T06:30:12.997Z</time></trkpt><trkpt lat="45.783947645623805" lon="8.486929670877524"><ele>659.0</ele><time>2026-04-19T06:30:14.997Z</time></trkpt><trkpt lat="45.783882733374234" lon="8.486897190067777"><ele>662.0</ele><time>2026-04-19T06:30:16.997Z</time></trkpt><trkpt lat="45.7838224006219" lon="8.486867773000375"><ele>662.0</ele><time>2026-04-19T06:30:18.997Z</time></trkpt><trkpt lat="45.783734938757654" lon="8.486827051743594"><ele>662.0</ele><time>2026-04-19T06:30:21.997Z</time></trkpt><trkpt lat="45.783673423157616" lon="8.486800643524925"><ele>662.0</ele><time>2026-04-19T06:30:23.997Z</time></trkpt><trkpt lat="45.78361202540859" lon="8.486758259862167"><ele>662.0</ele><time>2026-04-19T06:30:25.997Z</time></trkpt><trkpt lat="45.78355197594371" lon="8.486718525417182"><ele>662.0</ele><time>2026-04-19T06:30:27.997Z</time></trkpt><trkpt lat="45.783483766217365" lon="8.486683539112596"><ele>662.0</ele><time>2026-04-19T06:30:29.997Z</time></trkpt><trkpt lat="45.78343106262618" lon="8.486632565560303"><ele>662.0</ele><time>2026-04-19T06:30:31.997Z</time></trkpt><trkpt lat="45.78336014539289" lon="8.486589462260401"><ele>661.6666666666666</ele><time>2026-04-19T06:30:33.999Z</time></trkpt><trkpt lat="45.783296120538964" lon="8.48655309579477"><ele>661.3333333333333</ele><time>2026-04-19T06:30:35.999Z</time></trkpt><trkpt lat="45.783212057608885" lon="8.486487568713898"><ele>661.0</ele><time>2026-04-19T06:30:38.999Z</time></trkpt><trkpt lat="45.78316058884014" lon="8.486435542174265"><ele>660.6666666666666</ele><time>2026-04-19T06:30:40.999Z</time></trkpt><trkpt lat="45.78308641439726" lon="8.48635464949686"><ele>660.3333333333334</ele><time>2026-04-19T06:30:44Z</time></trkpt><trkpt lat="45.78302465936722" lon="8.486274280709775"><ele>660.0</ele><time>2026-04-19T06:30:47Z</time></trkpt><trkpt lat="45.78295896669724" lon="8.486191215751742"><ele>662.1428571428572</ele><time>2026-04-19T06:30:49.999Z</time></trkpt><trkpt lat="45.782914718815384" lon="8.486113287897467"><ele>664.2857142857143</ele><time>2026-04-19T06:30:51.999Z</time></trkpt><trkpt lat="45.782889439557074" lon="8.486019293200412"><ele>666.4285714285714</ele><time>2026-04-19T06:30:53.999Z</time></trkpt><trkpt lat="45.782873775390996" lon="8.48592842787148"><ele>668.5714285714287</ele><time>2026-04-19T06:30:55.999Z</time></trkpt><trkpt lat="45.78286854513933" lon="8.485822890675784"><ele>670.7142857142858</ele><time>2026-04-19T06:30:57.999Z</time></trkpt><trkpt lat="45.7828642610232" lon="8.485719159860807"><ele>672.8571428571429</ele><time>2026-04-19T06:30:59.999Z</time></trkpt><trkpt lat="45.782852593070494" lon="8.485610860594052"><ele>675.0</ele><time>2026-04-19T06:31:01.999Z</time></trkpt><trkpt lat="45.78285082524607" lon="8.48548565411126"><ele>676.1666666666666</ele><time>2026-04-19T06:31:04.999Z</time></trkpt><trkpt lat="45.78285380188026" lon="8.485377018970878"><ele>677.3333333333334</ele><time>2026-04-19T06:31:06.999Z</time></trkpt><trkpt lat="45.782843397119834" lon="8.485253215658842"><ele>678.5</ele><time>2026-04-19T06:31:09.999Z</time></trkpt><trkpt lat="45.7828153457661" lon="8.485142123325598"><ele>679.6666666666667</ele><time>2026-04-19T06:31:12.999Z</time></trkpt><trkpt lat="45.78278334523652" lon="8.485059220565324"><ele>680.8333333333334</ele><time>2026-04-19T06:31:14.999Z</time></trkpt><trkpt lat="45.78276912173917" lon="8.484955379072048"><ele>682.0</ele><time>2026-04-19T06:31:17.999Z</time></trkpt><trkpt lat="45.78276177138297" lon="8.484834922555164"><ele>682.0</ele><time>2026-04-19T06:31:19.999Z</time></trkpt><trkpt lat="45.7827443875059" lon="8.484740260642885"><ele>682.0</ele><time>2026-04-19T06:31:21.999Z</time></trkpt><trkpt lat="45.78273049761267" lon="8.484649946971244"><ele>682.0</ele><time>2026-04-19T06:31:23.999Z</time></trkpt><trkpt lat="45.78272239329965" lon="8.484530533565316"><ele>682.0</ele><time>2026-04-19T06:31:26.999Z</time></trkpt><trkpt lat="45.78273397827374" lon="8.484440511058569"><ele>682.0</ele><time>2026-04-19T06:31:28.999Z</time></trkpt><trkpt lat="45.782808020458475" lon="8.484391807586118"><ele>682.0</ele><time>2026-04-19T06:31:31.999Z</time></trkpt><trkpt lat="45.78286541311932" lon="8.48444386457163"><ele>682.0</ele><time>2026-04-19T06:31:34.998Z</time></trkpt><trkpt lat="45.78294093964605" lon="8.484466382415627"><ele>680.1428571428571</ele><time>2026-04-19T06:31:38.998Z</time></trkpt><trkpt lat="45.78300739675353" lon="8.484467771893254"><ele>678.2857142857143</ele><time>2026-04-19T06:31:41.998Z</time></trkpt><trkpt lat="45.78309436923324" lon="8.484458822476137"><ele>676.4285714285714</ele><time>2026-04-19T06:31:45.998Z</time></trkpt><trkpt lat="45.78315839054756" lon="8.484449024735769"><ele>674.5714285714286</ele><time>2026-04-19T06:31:47.998Z</time></trkpt><trkpt lat="45.783222107815135" lon="8.484456181991483"><ele>672.7142857142857</ele><time>2026-04-19T06:31:49.998Z</time></trkpt><trkpt lat="45.78329725114338" lon="8.484440832452945"><ele>670.8571428571429</ele><time>2026-04-19T06:31:52.998Z</time></trkpt><trkpt lat="45.783363618809766" lon="8.484440157682165"><ele>669.0</ele><time>2026-04-19T06:31:55.998Z</time></trkpt><trkpt lat="45.78343612158764" lon="8.484412081122771"><ele>669.0</ele><time>2026-04-19T06:31:58.998Z</time></trkpt><trkpt lat="45.7835009284009" lon="8.484353474545856"><ele>669.0</ele><time>2026-04-19T06:32:01.998Z</time></trkpt><trkpt lat="45.78357350014646" lon="8.484265867600046"><ele>669.0</ele><time>2026-04-19T06:32:04.998Z</time></trkpt><trkpt lat="45.783626190134804" lon="8.484192293771496"><ele>669.0</ele><time>2026-04-19T06:32:07.998Z</time></trkpt><trkpt lat="45.783684468335785" lon="8.484118132128293"><ele>669.0</ele><time>2026-04-19T06:32:09.998Z</time></trkpt><trkpt lat="45.78374680671236" lon="8.484051973112075"><ele>669.0</ele><time>2026-04-19T06:32:12.998Z</time></trkpt><trkpt lat="45.78379084815851" lon="8.483974654858189"><ele>668.8333333333334</ele><time>2026-04-19T06:32:14.997Z</time></trkpt><trkpt lat="45.78385785228006" lon="8.483888420592171"><ele>668.6666666666666</ele><time>2026-04-19T06:32:17.997Z</time></trkpt><trkpt lat="45.783930412237325" lon="8.483822712299304"><ele>668.5</ele><time>2026-04-19T06:32:20.997Z</time></trkpt><trkpt lat="45.78399897137677" lon="8.483740126130474"><ele>668.3333333333333</ele><time>2026-04-19T06:32:23.997Z</time></trkpt><trkpt lat="45.78408052647506" lon="8.483669406037139"><ele>668.1666666666666</ele><time>2026-04-19T06:32:26.997Z</time></trkpt><trkpt lat="45.78413182463045" lon="8.483600706749892"><ele>668.0</ele><time>2026-04-19T06:32:28.997Z</time></trkpt><trkpt lat="45.78418773776295" lon="8.483525647801242"><ele>668.0</ele><time>2026-04-19T06:32:31.997Z</time></trkpt><trkpt lat="45.784251916069515" lon="8.483471854370775"><ele>668.0</ele><time>2026-04-19T06:32:34.997Z</time></trkpt><trkpt lat="45.784305654659896" lon="8.483416949282914"><ele>668.0</ele><time>2026-04-19T06:32:36.997Z</time></trkpt><trkpt lat="45.78437684469431" lon="8.483361965969769"><ele>668.0</ele><time>2026-04-19T06:32:39.999Z</time></trkpt><trkpt lat="45.784438974223605" lon="8.483309902700615"><ele>668.0</ele><time>2026-04-19T06:32:41.999Z</time></trkpt><trkpt lat="45.78448771991448" lon="8.483252325977823"><ele>668.0</ele><time>2026-04-19T06:32:43.999Z</time></trkpt><trkpt lat="45.78455004872356" lon="8.483170861694859"><ele>668.0</ele><time>2026-04-19T06:32:46.999Z</time></trkpt><trkpt lat="45.784628218545116" lon="8.483108231477626"><ele>670.6666666666666</ele><time>2026-04-19T06:32:49.999Z</time></trkpt><trkpt lat="45.784687252320424" lon="8.483044281040604"><ele>673.3333333333333</ele><time>2026-04-19T06:32:51.999Z</time></trkpt><trkpt lat="45.7847660202672" lon="8.48300708529124"><ele>676.0</ele><time>2026-04-19T06:32:53.999Z</time></trkpt><trkpt lat="45.784851159667525" lon="8.48300734296662"><ele>678.6666666666666</ele><time>2026-04-19T06:32:55.999Z</time></trkpt><trkpt lat="45.78491964356522" lon="8.483032388644176"><ele>681.3333333333334</ele><time>2026-04-19T06:32:57.999Z</time></trkpt><trkpt lat="45.78498778645742" lon="8.483105084116074"><ele>684.0</ele><time>2026-04-19T06:32:59.999Z</time></trkpt><trkpt lat="45.78502113040642" lon="8.483183979995937"><ele>684.0</ele><time>2026-04-19T06:33:01.999Z</time></trkpt><trkpt lat="45.78505379545537" lon="8.483285127763008"><ele>684.0</ele><time>2026-04-19T06:33:04.999Z</time></trkpt><trkpt lat="45.785116974969014" lon="8.483349964409474"><ele>684.0</ele><time>2026-04-19T06:33:06.999Z</time></trkpt><trkpt lat="45.78520225281108" lon="8.48336010253622"><ele>684.0</ele><time>2026-04-19T06:33:08.999Z</time></trkpt><trkpt lat="45.78530334451791" lon="8.483373636731601"><ele>684.0</ele><time>2026-04-19T06:33:10.999Z</time></trkpt><trkpt lat="45.78538439527711" lon="8.48337149929543"><ele>684.0</ele><time>2026-04-19T06:33:12.999Z</time></trkpt><trkpt lat="45.785470417324206" lon="8.483390161671675"><ele>683.0</ele><time>2026-04-19T06:33:14.999Z</time></trkpt><trkpt lat="45.78553942540056" lon="8.483384027782618"><ele>682.0</ele><time>2026-04-19T06:33:16.999Z</time></trkpt><trkpt lat="45.78561851842869" lon="8.483383596954079"><ele>681.0</ele><time>2026-04-19T06:33:18.999Z</time></trkpt><trkpt lat="45.78571647455379" lon="8.483388101064392"><ele>680.0</ele><time>2026-04-19T06:33:20.999Z</time></trkpt><trkpt lat="45.78580922480051" lon="8.483392087416185"><ele>679.0</ele><time>2026-04-19T06:33:22.999Z</time></trkpt><trkpt lat="45.78589577479056" lon="8.483387793879787"><ele>678.0</ele><time>2026-04-19T06:33:24.999Z</time></trkpt><trkpt lat="45.78598570190855" lon="8.483362335853856"><ele>676.8</ele><time>2026-04-19T06:33:26.999Z</time></trkpt><trkpt lat="45.78606779484553" lon="8.48330723115222"><ele>675.5999999999999</ele><time>2026-04-19T06:33:28.999Z</time></trkpt><trkpt lat="45.78614771837995" lon="8.483235786751031"><ele>674.4000000000001</ele><time>2026-04-19T06:33:30.999Z</time></trkpt><trkpt lat="45.78623403247057" lon="8.483192766528814"><ele>673.2</ele><time>2026-04-19T06:33:32.998Z</time></trkpt><trkpt lat="45.786328921974956" lon="8.483153169243067"><ele>672.0</ele><time>2026-04-19T06:33:34.998Z</time></trkpt><trkpt lat="45.78643024159429" lon="8.483146357859939"><ele>672.0</ele><time>2026-04-19T06:33:36.998Z</time></trkpt><trkpt lat="45.7865185364004" lon="8.483159692468188"><ele>672.0</ele><time>2026-04-19T06:33:38.998Z</time></trkpt><trkpt lat="45.78660696610052" lon="8.483171380574218"><ele>672.0</ele><time>2026-04-19T06:33:40.998Z</time></trkpt><trkpt lat="45.78667850787061" lon="8.483208458544308"><ele>672.0</ele><time>2026-04-19T06:35:01.999Z</time></trkpt><trkpt lat="45.786742756392705" lon="8.48312234842261"><ele>672.0</ele><time>2026-04-19T06:35:04.999Z</time></trkpt><trkpt lat="45.786821278184135" lon="8.483071036119636"><ele>672.0</ele><time>2026-04-19T06:35:06.999Z</time></trkpt><trkpt lat="45.78688596789513" lon="8.482987962688586"><ele>676.2</ele><time>2026-04-19T06:35:08.999Z</time></trkpt><trkpt lat="45.78695592668799" lon="8.482870527845014"><ele>680.4000000000001</ele><time>2026-04-19T06:35:10.999Z</time></trkpt><trkpt lat="45.78700334979837" lon="8.482758250889862"><ele>684.5999999999999</ele><time>2026-04-19T06:35:12.999Z</time></trkpt><trkpt lat="45.78702900699377" lon="8.482639466538505"><ele>688.8</ele><time>2026-04-19T06:35:14.999Z</time></trkpt><trkpt lat="45.787072534556984" lon="8.48250498612172"><ele>693.0</ele><time>2026-04-19T06:35:16.999Z</time></trkpt><trkpt lat="45.78710469597011" lon="8.482369256522356"><ele>693.0</ele><time>2026-04-19T06:35:18.999Z</time></trkpt><trkpt lat="45.787127889940415" lon="8.48223249952203"><ele>693.0</ele><time>2026-04-19T06:35:20.999Z</time></trkpt><trkpt lat="45.78716880495433" lon="8.482129109049435"><ele>693.0</ele><time>2026-04-19T06:35:22.999Z</time></trkpt><trkpt lat="45.78719117664926" lon="8.482022685661832"><ele>693.0</ele><time>2026-04-19T06:35:24.999Z</time></trkpt><trkpt lat="45.78725050650539" lon="8.481969709855015"><ele>693.0</ele><time>2026-04-19T06:35:26.999Z</time></trkpt><trkpt lat="45.78731179570899" lon="8.481914208406506"><ele>693.0</ele><time>2026-04-19T06:35:28.999Z</time></trkpt><trkpt lat="45.78738336880917" lon="8.481833877732551"><ele>691.5</ele><time>2026-04-19T06:35:31.999Z</time></trkpt><trkpt lat="45.78742066502335" lon="8.481759759509398"><ele>690.0</ele><time>2026-04-19T06:35:33.999Z</time></trkpt><trkpt lat="45.7874750207419" lon="8.481698378608105"><ele>688.5</ele><time>2026-04-19T06:35:35.998Z</time></trkpt><trkpt lat="45.787532728027514" lon="8.481605420765863"><ele>687.0</ele><time>2026-04-19T06:35:37.998Z</time></trkpt><trkpt lat="45.787592802163374" lon="8.48153655060589"><ele>685.5</ele><time>2026-04-19T06:35:39.998Z</time></trkpt><trkpt lat="45.78763654012198" lon="8.481428112944092"><ele>684.0</ele><time>2026-04-19T06:35:42.998Z</time></trkpt><trkpt lat="45.787667622074586" lon="8.481326143193398"><ele>689.1666666666666</ele><time>2026-04-19T06:35:44.998Z</time></trkpt><trkpt lat="45.78769538437307" lon="8.48124448733841"><ele>694.3333333333334</ele><time>2026-04-19T06:35:46.998Z</time></trkpt><trkpt lat="45.78771759480213" lon="8.481130345055613"><ele>699.5</ele><time>2026-04-19T06:35:48.998Z</time></trkpt><trkpt lat="45.787740176510276" lon="8.48102059878677"><ele>704.6666666666667</ele><time>2026-04-19T06:35:50.998Z</time></trkpt><trkpt lat="45.78776559790308" lon="8.480916911087382"><ele>709.8333333333334</ele><time>2026-04-19T06:35:52.998Z</time></trkpt><trkpt lat="45.787787492629725" lon="8.480813126322605"><ele>715.0</ele><time>2026-04-19T06:35:54.998Z</time></trkpt><trkpt lat="45.787803082230695" lon="8.480696025331333"><ele>715.0</ele><time>2026-04-19T06:35:56.998Z</time></trkpt><trkpt lat="45.78781672065746" lon="8.480581522165565"><ele>715.0</ele><time>2026-04-19T06:35:58.998Z</time></trkpt><trkpt lat="45.787799854947224" lon="8.480458642056162"><ele>715.0</ele><time>2026-04-19T06:36:00.998Z</time></trkpt><trkpt lat="45.787786120730566" lon="8.480362422142901"><ele>715.0</ele><time>2026-04-19T06:36:02.998Z</time></trkpt><trkpt lat="45.787773436554694" lon="8.480271269561097"><ele>715.0</ele><time>2026-04-19T06:36:04.998Z</time></trkpt><trkpt lat="45.7877324061318" lon="8.480182875110112"><ele>715.0</ele><time>2026-04-19T06:36:06.998Z</time></trkpt><trkpt lat="45.78768770454826" lon="8.480066314491474"><ele>710.1666666666667</ele><time>2026-04-19T06:36:08.998Z</time></trkpt><trkpt lat="45.78763398392109" lon="8.479984213959101"><ele>705.3333333333334</ele><time>2026-04-19T06:36:10.998Z</time></trkpt><trkpt lat="45.78757640680065" lon="8.479921541012228"><ele>700.5</ele><time>2026-04-19T06:36:12.998Z</time></trkpt><trkpt lat="45.7875276216555" lon="8.479831974716543"><ele>695.6666666666666</ele><time>2026-04-19T06:36:14.998Z</time></trkpt><trkpt lat="45.7874889893784" lon="8.479724137370546"><ele>690.8333333333333</ele><time>2026-04-19T06:36:16.998Z</time></trkpt><trkpt lat="45.78744641226464" lon="8.479612217260131"><ele>686.0</ele><time>2026-04-19T06:36:18.998Z</time></trkpt><trkpt lat="45.78741782793442" lon="8.479484859590997"><ele>686.0</ele><time>2026-04-19T06:36:20.997Z</time></trkpt><trkpt lat="45.787398507828186" lon="8.479359960796563"><ele>686.0</ele><time>2026-04-19T06:36:22.997Z</time></trkpt><trkpt lat="45.787388305489614" lon="8.479220434835579"><ele>686.0</ele><time>2026-04-19T06:36:24.997Z</time></trkpt><trkpt lat="45.78741814060647" lon="8.47907491312836"><ele>686.0</ele><time>2026-04-19T06:36:26.997Z</time></trkpt><trkpt lat="45.787463437586936" lon="8.478943829673627"><ele>686.0</ele><time>2026-04-19T06:36:28.997Z</time></trkpt><trkpt lat="45.78749763856757" lon="8.47880151394852"><ele>684.8</ele><time>2026-04-19T06:36:30.997Z</time></trkpt><trkpt lat="45.787519579235315" lon="8.478669523666584"><ele>683.5999999999999</ele><time>2026-04-19T06:36:32.997Z</time></trkpt><trkpt lat="45.78752936790416" lon="8.478527973377405"><ele>682.4</ele><time>2026-04-19T06:36:34.997Z</time></trkpt><trkpt lat="45.78755338808811" lon="8.478376500429624"><ele>681.2</ele><time>2026-04-19T06:36:36.998Z</time></trkpt><trkpt lat="45.787588978610195" lon="8.47824448578545"><ele>680.0</ele><time>2026-04-19T06:36:38.998Z</time></trkpt><trkpt lat="45.78761334810126" lon="8.478094857917796"><ele>680.0</ele><time>2026-04-19T06:36:40.998Z</time></trkpt><trkpt lat="45.78763413092681" lon="8.477945854641053"><ele>680.0</ele><time>2026-04-19T06:36:42.998Z</time></trkpt><trkpt lat="45.787647444511194" lon="8.477795369348222"><ele>680.0</ele><time>2026-04-19T06:36:44.998Z</time></trkpt><trkpt lat="45.78765917228181" lon="8.47766678364417"><ele>680.0</ele><time>2026-04-19T06:36:46.998Z</time></trkpt><trkpt lat="45.787672640484324" lon="8.477516698688937"><ele>680.0</ele><time>2026-04-19T06:36:48.998Z</time></trkpt><trkpt lat="45.78769257563798" lon="8.477338235444336"><ele>682.2</ele><time>2026-04-19T06:36:51Z</time></trkpt><trkpt lat="45.78770620306042" lon="8.47724657921713"><ele>684.4</ele><time>2026-04-19T06:36:52Z</time></trkpt><trkpt lat="45.78773670021789" lon="8.477069654528389"><ele>686.5999999999999</ele><time>2026-04-19T06:36:54Z</time></trkpt><trkpt lat="45.78779574993764" lon="8.476909949267943"><ele>688.8</ele><time>2026-04-19T06:36:56Z</time></trkpt><trkpt lat="45.78784757825198" lon="8.476842811786579"><ele>691.0</ele><time>2026-04-19T06:36:57Z</time></trkpt><trkpt lat="45.78790717459084" lon="8.476774084084386"><ele>691.0</ele><time>2026-04-19T06:36:58Z</time></trkpt><trkpt lat="45.78796147234754" lon="8.476706210257857"><ele>691.0</ele><time>2026-04-19T06:36:59Z</time></trkpt><trkpt lat="45.78802161959657" lon="8.476641870047466"><ele>691.0</ele><time>2026-04-19T06:37:00Z</time></trkpt><trkpt lat="45.788085764761085" lon="8.476592416178468"><ele>691.0</ele><time>2026-04-19T06:37:01Z</time></trkpt><trkpt lat="45.788150948349546" lon="8.476533050274691"><ele>691.0</ele><time>2026-04-19T06:37:02Z</time></trkpt><trkpt lat="45.788230886330716" lon="8.476488458283663"><ele>691.0</ele><time>2026-04-19T06:37:03Z</time></trkpt><trkpt lat="45.78832963129534" lon="8.476355873390686"><ele>691.0</ele><time>2026-04-19T06:37:05Z</time></trkpt><trkpt lat="45.788374900077486" lon="8.476283669150934"><ele>691.0</ele><time>2026-04-19T06:37:06Z</time></trkpt><trkpt lat="45.78841374208261" lon="8.476212043378535"><ele>691.0</ele><time>2026-04-19T06:37:07Z</time></trkpt><trkpt lat="45.78843699612115" lon="8.476123077396846"><ele>691.0</ele><time>2026-04-19T06:37:08Z</time></trkpt><trkpt lat="45.78846720716242" lon="8.476040026216616"><ele>691.0</ele><time>2026-04-19T06:37:09Z</time></trkpt><trkpt lat="45.78856109894731" lon="8.475913530895706"><ele>691.0</ele><time>2026-04-19T06:37:11Z</time></trkpt><trkpt lat="45.788626922881804" lon="8.475872630676777"><ele>691.5</ele><time>2026-04-19T06:37:12Z</time></trkpt><trkpt lat="45.788694779567194" lon="8.47583897630755"><ele>692.0</ele><time>2026-04-19T06:37:13Z</time></trkpt><trkpt lat="45.78876049928036" lon="8.475789938649294"><ele>692.5</ele><time>2026-04-19T06:37:14Z</time></trkpt><trkpt lat="45.78881647306124" lon="8.475705016014587"><ele>693.0</ele><time>2026-04-19T06:37:15Z</time></trkpt><trkpt lat="45.788847522652574" lon="8.475616318934593"><ele>693.5</ele><time>2026-04-19T06:37:16Z</time></trkpt><trkpt lat="45.78886481597242" lon="8.475523611598515"><ele>694.0</ele><time>2026-04-19T06:37:17Z</time></trkpt><trkpt lat="45.78887807352961" lon="8.475360955443549"><ele>694.6666666666667</ele><time>2026-04-19T06:37:19Z</time></trkpt><trkpt lat="45.78894371451681" lon="8.475273679231863"><ele>695.3333333333334</ele><time>2026-04-19T06:37:21Z</time></trkpt><trkpt lat="45.78903569568946" lon="8.475251161138264"><ele>696.0</ele><time>2026-04-19T06:37:23Z</time></trkpt><trkpt lat="45.789116706728066" lon="8.475233868368608"><ele>696.6666666666666</ele><time>2026-04-19T06:37:25Z</time></trkpt><trkpt lat="45.789184842778" lon="8.475225119133032"><ele>697.3333333333333</ele><time>2026-04-19T06:37:27Z</time></trkpt><trkpt lat="45.78929197600008" lon="8.475189413898566"><ele>698.0</ele><time>2026-04-19T06:37:30Z</time></trkpt><trkpt lat="45.78937939622135" lon="8.475138587972621"><ele>698.0</ele><time>2026-04-19T06:37:32Z</time></trkpt><trkpt lat="45.78946395322742" lon="8.475072005172365"><ele>698.0</ele><time>2026-04-19T06:37:34Z</time></trkpt><trkpt lat="45.78953961628961" lon="8.474984085814064"><ele>698.0</ele><time>2026-04-19T06:37:36Z</time></trkpt><trkpt lat="45.789620665060895" lon="8.474898152263696"><ele>698.0</ele><time>2026-04-19T06:37:38Z</time></trkpt><trkpt lat="45.78970393505419" lon="8.474810736690547"><ele>698.0</ele><time>2026-04-19T06:37:40Z</time></trkpt><trkpt lat="45.78977849922638" lon="8.47471799168073"><ele>698.0</ele><time>2026-04-19T06:37:42Z</time></trkpt><trkpt lat="45.78984670482338" lon="8.474628804103743"><ele>698.0</ele><time>2026-04-19T06:37:44Z</time></trkpt><trkpt lat="45.78991850524628" lon="8.474549609831838"><ele>698.0</ele><time>2026-04-19T06:37:46Z</time></trkpt><trkpt lat="45.789994503793146" lon="8.47446872358373"><ele>698.0</ele><time>2026-04-19T06:37:47.999Z</time></trkpt><trkpt lat="45.79006029462668" lon="8.474390578865854"><ele>698.0</ele><time>2026-04-19T06:37:49.999Z</time></trkpt><trkpt lat="45.790140644148536" lon="8.47431898986062"><ele>698.1666666666666</ele><time>2026-04-19T06:37:51.999Z</time></trkpt><trkpt lat="45.7902045672461" lon="8.474237203767405"><ele>698.3333333333333</ele><time>2026-04-19T06:37:53.999Z</time></trkpt><trkpt lat="45.790278101527264" lon="8.474158915866857"><ele>698.5</ele><time>2026-04-19T06:37:55.999Z</time></trkpt><trkpt lat="45.79034761825908" lon="8.474067559832857"><ele>698.6666666666666</ele><time>2026-04-19T06:37:57.999Z</time></trkpt><trkpt lat="45.79042215643699" lon="8.473986158956263"><ele>698.8333333333334</ele><time>2026-04-19T06:37:59.999Z</time></trkpt><trkpt lat="45.790480152022305" lon="8.473903164422353"><ele>699.0</ele><time>2026-04-19T06:38:01.999Z</time></trkpt><trkpt lat="45.790553478587626" lon="8.473826044358377"><ele>696.2</ele><time>2026-04-19T06:38:03.999Z</time></trkpt><trkpt lat="45.79062571966225" lon="8.473753211350722"><ele>693.4000000000001</ele><time>2026-04-19T06:38:05.999Z</time></trkpt><trkpt lat="45.79069321136082" lon="8.473665050883918"><ele>690.6</ele><time>2026-04-19T06:38:07.999Z</time></trkpt><trkpt lat="45.79075803319203" lon="8.473563541229893"><ele>687.8</ele><time>2026-04-19T06:38:09.999Z</time></trkpt><trkpt lat="45.790811078407195" lon="8.47344251531461"><ele>685.0</ele><time>2026-04-19T06:38:11.999Z</time></trkpt><trkpt lat="45.790846021456126" lon="8.473325868482982"><ele>685.0</ele><time>2026-04-19T06:38:13.999Z</time></trkpt><trkpt lat="45.79088804494751" lon="8.473205034394311"><ele>685.0</ele><time>2026-04-19T06:38:15.999Z</time></trkpt><trkpt lat="45.79093958882542" lon="8.47310138436212"><ele>685.0</ele><time>2026-04-19T06:38:17.999Z</time></trkpt><trkpt lat="45.790976165775284" lon="8.472990670753484"><ele>685.0</ele><time>2026-04-19T06:38:19.999Z</time></trkpt><trkpt lat="45.79102162168864" lon="8.472898010312502"><ele>685.0</ele><time>2026-04-19T06:38:21.999Z</time></trkpt><trkpt lat="45.791088312941895" lon="8.472809623064657"><ele>685.0</ele><time>2026-04-19T06:38:23.999Z</time></trkpt><trkpt lat="45.79114872167974" lon="8.472743097063713"><ele>686.5</ele><time>2026-04-19T06:38:25.999Z</time></trkpt><trkpt lat="45.791229489906954" lon="8.472720522678886"><ele>688.0</ele><time>2026-04-19T06:38:27.999Z</time></trkpt><trkpt lat="45.79130394389427" lon="8.47268408757314"><ele>689.5</ele><time>2026-04-19T06:38:29.999Z</time></trkpt><trkpt lat="45.79137844601952" lon="8.472656507610848"><ele>691.0</ele><time>2026-04-19T06:38:31.998Z</time></trkpt><trkpt lat="45.79146199477927" lon="8.472644255044457"><ele>692.5</ele><time>2026-04-19T06:38:33.998Z</time></trkpt><trkpt lat="45.79152697050555" lon="8.472592181750654"><ele>694.0</ele><time>2026-04-19T06:38:35.998Z</time></trkpt><trkpt lat="45.791605959098284" lon="8.472551020919008"><ele>694.0</ele><time>2026-04-19T06:38:37.998Z</time></trkpt><trkpt lat="45.79165423567809" lon="8.472474997751982"><ele>694.0</ele><time>2026-04-19T06:38:39.998Z</time></trkpt><trkpt lat="45.79170780696991" lon="8.472414367382855"><ele>694.0</ele><time>2026-04-19T06:38:41.998Z</time></trkpt><trkpt lat="45.79178083694037" lon="8.472386287971917"><ele>694.0</ele><time>2026-04-19T06:38:43.998Z</time></trkpt><trkpt lat="45.79181435769202" lon="8.472474051116924"><ele>694.0</ele><time>2026-04-19T06:38:57.001Z</time></trkpt><trkpt lat="45.79180995635627" lon="8.47260640239742"><ele>694.0</ele><time>2026-04-19T06:39:24Z</time></trkpt><trkpt lat="45.79178573977613" lon="8.472730190417098"><ele>694.0</ele><time>2026-04-19T06:39:27Z</time></trkpt><trkpt lat="45.79172905703595" lon="8.472826250861113"><ele>694.0</ele><time>2026-04-19T06:39:30Z</time></trkpt><trkpt lat="45.79169648275195" lon="8.472944236885377"><ele>694.0</ele><time>2026-04-19T06:39:33Z</time></trkpt><trkpt lat="45.79167995338836" lon="8.473043584080699"><ele>694.0</ele><time>2026-04-19T06:39:36Z</time></trkpt><trkpt lat="45.79166379965339" lon="8.473170500156149"><ele>694.0</ele><time>2026-04-19T06:39:40Z</time></trkpt><trkpt lat="45.791632820705026" lon="8.473256897110666"><ele>694.0</ele><time>2026-04-19T06:39:43Z</time></trkpt><trkpt lat="45.791558009673324" lon="8.473327388695148"><ele>694.6666666666667</ele><time>2026-04-19T06:39:46Z</time></trkpt><trkpt lat="45.79150139537955" lon="8.473419607991822"><ele>695.3333333333334</ele><time>2026-04-19T06:39:49Z</time></trkpt><trkpt lat="45.7914636770304" lon="8.473546697241662"><ele>696.0</ele><time>2026-04-19T06:39:51.999Z</time></trkpt><trkpt lat="45.79144370805174" lon="8.473642883167653"><ele>696.6666666666666</ele><time>2026-04-19T06:39:53.999Z</time></trkpt><trkpt lat="45.79141995012854" lon="8.47375795073185"><ele>697.3333333333333</ele><time>2026-04-19T06:39:56.999Z</time></trkpt><trkpt lat="45.7914041896244" lon="8.473859512171726"><ele>698.0</ele><time>2026-04-19T06:39:58.999Z</time></trkpt><trkpt lat="45.79138816462374" lon="8.473984105209835"><ele>698.0</ele><time>2026-04-19T06:40:01.999Z</time></trkpt><trkpt lat="45.79137885161718" lon="8.474081100064176"><ele>698.0</ele><time>2026-04-19T06:40:03.999Z</time></trkpt><trkpt lat="45.79136171107314" lon="8.474176012487307"><ele>698.0</ele><time>2026-04-19T06:40:05.999Z</time></trkpt><trkpt lat="45.79134287872248" lon="8.474270268542883"><ele>698.0</ele><time>2026-04-19T06:40:07.999Z</time></trkpt><trkpt lat="45.79133888751967" lon="8.474378633888819"><ele>698.0</ele><time>2026-04-19T06:40:09.999Z</time></trkpt><trkpt lat="45.791348282978326" lon="8.474520476618952"><ele>698.0</ele><time>2026-04-19T06:40:12.999Z</time></trkpt><trkpt lat="45.791367065112254" lon="8.474654939127818"><ele>698.2857142857142</ele><time>2026-04-19T06:40:15.999Z</time></trkpt><trkpt lat="45.79136763478316" lon="8.474750560551552"><ele>698.5714285714286</ele><time>2026-04-19T06:40:17.999Z</time></trkpt><trkpt lat="45.79137547497951" lon="8.474841089185638"><ele>698.8571428571429</ele><time>2026-04-19T06:40:19.999Z</time></trkpt><trkpt lat="45.791373886448376" lon="8.474961055528524"><ele>699.1428571428571</ele><time>2026-04-19T06:40:22.999Z</time></trkpt><trkpt lat="45.791383849034254" lon="8.475066851078083"><ele>699.4285714285714</ele><time>2026-04-19T06:40:24.999Z</time></trkpt><trkpt lat="45.79140701949713" lon="8.475167007010242"><ele>699.7142857142857</ele><time>2026-04-19T06:40:26.999Z</time></trkpt><trkpt lat="45.791428872642456" lon="8.475273257661021"><ele>700.0</ele><time>2026-04-19T06:40:28.999Z</time></trkpt><trkpt lat="45.791475756972595" lon="8.475390871809642"><ele>701.6666666666667</ele><time>2026-04-19T06:40:31.999Z</time></trkpt><trkpt lat="45.79147176089494" lon="8.475496832580241"><ele>703.3333333333334</ele><time>2026-04-19T06:40:33.999Z</time></trkpt><trkpt lat="45.791509389230804" lon="8.475599692072914"><ele>705.0</ele><time>2026-04-19T06:40:34.999Z</time></trkpt><trkpt lat="45.79154296342882" lon="8.47569143793327"><ele>706.6666666666666</ele><time>2026-04-19T06:40:35.998Z</time></trkpt><trkpt lat="45.79152740222206" lon="8.47581127700966"><ele>708.3333333333333</ele><time>2026-04-19T06:40:39.998Z</time></trkpt><trkpt lat="45.79154298783631" lon="8.475926315037558"><ele>710.0</ele><time>2026-04-19T06:40:42.998Z</time></trkpt><trkpt lat="45.79156786067759" lon="8.47605402973994"><ele>710.0</ele><time>2026-04-19T06:40:45.998Z</time></trkpt><trkpt lat="45.79159740026851" lon="8.476134332358757"><ele>710.0</ele><time>2026-04-19T06:40:47.998Z</time></trkpt><trkpt lat="45.79161826494453" lon="8.476235133599943"><ele>710.0</ele><time>2026-04-19T06:40:50.998Z</time></trkpt><trkpt lat="45.79164285008874" lon="8.476364135671762"><ele>710.0</ele><time>2026-04-19T06:40:53.998Z</time></trkpt><trkpt lat="45.79161651005572" lon="8.476493644921156"><ele>710.0</ele><time>2026-04-19T06:40:56.998Z</time></trkpt><trkpt lat="45.79159711512341" lon="8.476597971100022"><ele>710.0</ele><time>2026-04-19T06:40:59.998Z</time></trkpt><trkpt lat="45.79158604084351" lon="8.47671614665263"><ele>710.8333333333333</ele><time>2026-04-19T06:41:00.998Z</time></trkpt><trkpt lat="45.79159047086107" lon="8.476823241243178"><ele>711.6666666666666</ele><time>2026-04-19T06:41:03.001Z</time></trkpt><trkpt lat="45.79165531474659" lon="8.476915864636604"><ele>712.5</ele><time>2026-04-19T06:41:05.001Z</time></trkpt><trkpt lat="45.791721518193995" lon="8.476938764015555"><ele>713.3333333333334</ele><time>2026-04-19T06:41:07.001Z</time></trkpt><trkpt lat="45.79181051318981" lon="8.476928146335013"><ele>714.1666666666667</ele><time>2026-04-19T06:41:10.001Z</time></trkpt><trkpt lat="45.79188093796939" lon="8.476914212279679"><ele>715.0</ele><time>2026-04-19T06:41:12.001Z</time></trkpt><trkpt lat="45.791972108625345" lon="8.47689848583564"><ele>715.0</ele><time>2026-04-19T06:41:15.001Z</time></trkpt><trkpt lat="45.79203989749094" lon="8.476891039615998"><ele>715.0</ele><time>2026-04-19T06:41:17.001Z</time></trkpt><trkpt lat="45.79210616564684" lon="8.476889441977638"><ele>715.0</ele><time>2026-04-19T06:41:20Z</time></trkpt><trkpt lat="45.79217145650846" lon="8.476908293651304"><ele>715.0</ele><time>2026-04-19T06:41:22Z</time></trkpt><trkpt lat="45.792240405678065" lon="8.47692067877294"><ele>715.0</ele><time>2026-04-19T06:41:26Z</time></trkpt><trkpt lat="45.792325216962524" lon="8.47693666153059"><ele>715.0</ele><time>2026-04-19T06:41:29Z</time></trkpt><trkpt lat="45.79241193100753" lon="8.476960860700206"><ele>715.0</ele><time>2026-04-19T06:41:32Z</time></trkpt><trkpt lat="45.79249005761581" lon="8.477010707008416"><ele>715.0</ele><time>2026-04-19T06:41:36Z</time></trkpt><trkpt lat="45.79255424539117" lon="8.477064441568155"><ele>715.0</ele><time>2026-04-19T06:41:39Z</time></trkpt><trkpt lat="45.79260051486097" lon="8.477126766890482"><ele>715.0</ele><time>2026-04-19T06:41:42Z</time></trkpt><trkpt lat="45.79263416524715" lon="8.477214007679619"><ele>715.0</ele><time>2026-04-19T06:41:45Z</time></trkpt><trkpt lat="45.79265464310392" lon="8.477322112869087"><ele>715.0</ele><time>2026-04-19T06:41:48Z</time></trkpt><trkpt lat="45.792637206617435" lon="8.47742534874457"><ele>715.0</ele><time>2026-04-19T06:41:51Z</time></trkpt><trkpt lat="45.79264392824898" lon="8.477518816800409"><ele>715.0</ele><time>2026-04-19T06:41:54Z</time></trkpt><trkpt lat="45.792635639963194" lon="8.477609265985825"><ele>717.0</ele><time>2026-04-19T06:41:57Z</time></trkpt><trkpt lat="45.79263803240633" lon="8.477736178778862"><ele>719.0</ele><time>2026-04-19T06:42:00Z</time></trkpt><trkpt lat="45.79262561439298" lon="8.477837094139664"><ele>721.0</ele><time>2026-04-19T06:42:02.999Z</time></trkpt><trkpt lat="45.79261668904996" lon="8.477939137265237"><ele>723.0</ele><time>2026-04-19T06:42:05.999Z</time></trkpt><trkpt lat="45.792598789267636" lon="8.47804262340609"><ele>725.0</ele><time>2026-04-19T06:42:07.999Z</time></trkpt><trkpt lat="45.79258794718587" lon="8.47820062040532"><ele>727.0</ele><time>2026-04-19T06:42:09.999Z</time></trkpt><trkpt lat="45.79258282037418" lon="8.478316080267975"><ele>727.1666666666667</ele><time>2026-04-19T06:42:11.999Z</time></trkpt><trkpt lat="45.7925875532566" lon="8.478435732073104"><ele>727.3333333333334</ele><time>2026-04-19T06:42:13.999Z</time></trkpt><trkpt lat="45.79265087963675" lon="8.478540563284602"><ele>727.5</ele><time>2026-04-19T06:42:16.999Z</time></trkpt><trkpt lat="45.792711126688964" lon="8.478611105775828"><ele>727.6666666666666</ele><time>2026-04-19T06:42:20.999Z</time></trkpt><trkpt lat="45.79277361650774" lon="8.478631118049968"><ele>727.8333333333333</ele><time>2026-04-19T06:42:22.999Z</time></trkpt><trkpt lat="45.79284579423921" lon="8.478678453209898"><ele>728.0</ele><time>2026-04-19T06:42:25.999Z</time></trkpt><trkpt lat="45.79290879990464" lon="8.478719207360012"><ele>728.0</ele><time>2026-04-19T06:42:27.999Z</time></trkpt><trkpt lat="45.79298865304619" lon="8.478706046849767"><ele>728.0</ele><time>2026-04-19T06:42:30.999Z</time></trkpt><trkpt lat="45.793058698683915" lon="8.478674782993988"><ele>728.0</ele><time>2026-04-19T06:42:33.999Z</time></trkpt><trkpt lat="45.79311841440413" lon="8.478637713609874"><ele>728.0</ele><time>2026-04-19T06:42:35.999Z</time></trkpt><trkpt lat="45.79321058681404" lon="8.47860496361734"><ele>728.0</ele><time>2026-04-19T06:42:39.999Z</time></trkpt><trkpt lat="45.79327997308521" lon="8.47856514626156"><ele>728.0</ele><time>2026-04-19T06:42:42.999Z</time></trkpt><trkpt lat="45.79337268294426" lon="8.47856028533972"><ele>728.0</ele><time>2026-04-19T06:42:45.998Z</time></trkpt><trkpt lat="45.79345289293402" lon="8.478586097179072"><ele>728.0</ele><time>2026-04-19T06:42:48.998Z</time></trkpt><trkpt lat="45.79352930846983" lon="8.478538380061483"><ele>728.0</ele><time>2026-04-19T06:42:51.998Z</time></trkpt><trkpt lat="45.79361340635535" lon="8.478499981075972"><ele>728.0</ele><time>2026-04-19T06:42:54.998Z</time></trkpt><trkpt lat="45.793699268474036" lon="8.478451143539056"><ele>728.0</ele><time>2026-04-19T06:42:57.998Z</time></trkpt><trkpt lat="45.7937748149453" lon="8.478427700299914"><ele>728.0</ele><time>2026-04-19T06:42:59.998Z</time></trkpt><trkpt lat="45.79385317857946" lon="8.478386857830504"><ele>728.8333333333333</ele><time>2026-04-19T06:43:01.998Z</time></trkpt><trkpt lat="45.79392036687598" lon="8.478345766722622"><ele>729.6666666666666</ele><time>2026-04-19T06:43:03.998Z</time></trkpt><trkpt lat="45.79399830841454" lon="8.478316879392336"><ele>730.5</ele><time>2026-04-19T06:43:05.998Z</time></trkpt><trkpt lat="45.794079368429514" lon="8.478295433799081"><ele>731.3333333333334</ele><time>2026-04-19T06:43:08.001Z</time></trkpt><trkpt lat="45.79417699098366" lon="8.478274326444557"><ele>732.1666666666667</ele><time>2026-04-19T06:43:11.001Z</time></trkpt><trkpt lat="45.794264338646016" lon="8.478240886173149"><ele>733.0</ele><time>2026-04-19T06:43:13.001Z</time></trkpt><trkpt lat="45.794340350058" lon="8.478198665478638"><ele>733.9999999999999</ele><time>2026-04-19T06:43:15.001Z</time></trkpt><trkpt lat="45.794407900590244" lon="8.478167421649387"><ele>735.0</ele><time>2026-04-19T06:43:17.001Z</time></trkpt><trkpt lat="45.79447488385863" lon="8.478155103175714"><ele>736.0</ele><time>2026-04-19T06:43:19.001Z</time></trkpt><trkpt lat="45.794543675853284" lon="8.47815828748096"><ele>737.0</ele><time>2026-04-19T06:43:21.001Z</time></trkpt><trkpt lat="45.79462999298693" lon="8.478167464245683"><ele>738.0</ele><time>2026-04-19T06:43:23.001Z</time></trkpt><trkpt lat="45.79469489308209" lon="8.478174303117498"><ele>738.9999999999999</ele><time>2026-04-19T06:43:25Z</time></trkpt><trkpt lat="45.79476662094258" lon="8.478187217649817"><ele>740.0</ele><time>2026-04-19T06:43:27Z</time></trkpt><trkpt lat="45.79483393956151" lon="8.478199762876216"><ele>740.0</ele><time>2026-04-19T06:43:29Z</time></trkpt><trkpt lat="45.7948996681353" lon="8.478227656179794"><ele>740.0</ele><time>2026-04-19T06:43:31Z</time></trkpt><trkpt lat="45.79496958599151" lon="8.478250801924656"><ele>740.0</ele><time>2026-04-19T06:43:34Z</time></trkpt><trkpt lat="45.79503900957966" lon="8.478279839835896"><ele>740.0</ele><time>2026-04-19T06:43:36Z</time></trkpt><trkpt lat="45.79514034520148" lon="8.478286256237611"><ele>740.0</ele><time>2026-04-19T06:43:39Z</time></trkpt><trkpt lat="45.79521121906303" lon="8.47829450640776"><ele>740.0</ele><time>2026-04-19T06:43:41Z</time></trkpt><trkpt lat="45.79527662873104" lon="8.478305709854022"><ele>740.1428571428571</ele><time>2026-04-19T06:43:43Z</time></trkpt><trkpt lat="45.79535276115227" lon="8.478295937587477"><ele>740.2857142857142</ele><time>2026-04-19T06:43:45Z</time></trkpt><trkpt lat="45.79542208174128" lon="8.47830363960845"><ele>740.4285714285713</ele><time>2026-04-19T06:43:47Z</time></trkpt><trkpt lat="45.79549832138329" lon="8.478310598801624"><ele>740.5714285714286</ele><time>2026-04-19T06:43:49Z</time></trkpt><trkpt lat="45.795565640078145" lon="8.478334992197132"><ele>740.7142857142858</ele><time>2026-04-19T06:43:51Z</time></trkpt><trkpt lat="45.79563429210427" lon="8.478368932871371"><ele>740.8571428571428</ele><time>2026-04-19T06:43:53Z</time></trkpt><trkpt lat="45.79570280334337" lon="8.478422460439784"><ele>741.0</ele><time>2026-04-19T06:43:55Z</time></trkpt><trkpt lat="45.79578545446129" lon="8.478444592086825"><ele>741.0</ele><time>2026-04-19T06:43:57Z</time></trkpt><trkpt lat="45.795845917185645" lon="8.478473290061753"><ele>741.0</ele><time>2026-04-19T06:43:59Z</time></trkpt><trkpt lat="45.79592080703648" lon="8.478508696884534"><ele>741.0</ele><time>2026-04-19T06:44:01Z</time></trkpt><trkpt lat="45.79599932232028" lon="8.478525190016033"><ele>741.0</ele><time>2026-04-19T06:44:02.999Z</time></trkpt><trkpt lat="45.796077132321564" lon="8.47853550158976"><ele>741.0</ele><time>2026-04-19T06:44:04.999Z</time></trkpt><trkpt lat="45.796145880918274" lon="8.478566218887137"><ele>741.0</ele><time>2026-04-19T06:44:06.999Z</time></trkpt><trkpt lat="45.796222514923834" lon="8.478554878795856"><ele>741.0</ele><time>2026-04-19T06:44:08.999Z</time></trkpt><trkpt lat="45.79631025298913" lon="8.478540047754782"><ele>741.8333333333334</ele><time>2026-04-19T06:44:10.999Z</time></trkpt><trkpt lat="45.79639442648797" lon="8.478547879150245"><ele>742.6666666666666</ele><time>2026-04-19T06:44:12.999Z</time></trkpt><trkpt lat="45.796480541242545" lon="8.478549984319052"><ele>743.5</ele><time>2026-04-19T06:44:14.999Z</time></trkpt><trkpt lat="45.79656049773648" lon="8.478571286269236"><ele>744.3333333333333</ele><time>2026-04-19T06:44:16.999Z</time></trkpt><trkpt lat="45.79662358494264" lon="8.478605414630637"><ele>745.1666666666666</ele><time>2026-04-19T06:44:18.999Z</time></trkpt><trkpt lat="45.79670202424992" lon="8.478605595469766"><ele>746.0</ele><time>2026-04-19T06:44:21.999Z</time></trkpt><trkpt lat="45.79678279880016" lon="8.47862066442655"><ele>749.1666666666666</ele><time>2026-04-19T06:44:24.999Z</time></trkpt><trkpt lat="45.79685061452373" lon="8.47864186136451"><ele>752.3333333333333</ele><time>2026-04-19T06:44:27.999Z</time></trkpt><trkpt lat="45.79693249395827" lon="8.478677145892313"><ele>755.5</ele><time>2026-04-19T06:44:30.999Z</time></trkpt><trkpt lat="45.79701174255725" lon="8.478648198257773"><ele>758.6666666666666</ele><time>2026-04-19T06:44:33.999Z</time></trkpt><trkpt lat="45.79707296480134" lon="8.478597313605128"><ele>761.8333333333334</ele><time>2026-04-19T06:44:35.999Z</time></trkpt><trkpt lat="45.79714577276716" lon="8.47855155361667"><ele>765.0</ele><time>2026-04-19T06:44:38.999Z</time></trkpt><trkpt lat="45.79719471881017" lon="8.478483572638675"><ele>765.0</ele><time>2026-04-19T06:44:40.999Z</time></trkpt><trkpt lat="45.797242110650714" lon="8.478414986923047"><ele>765.0</ele><time>2026-04-19T06:44:42.999Z</time></trkpt><trkpt lat="45.79727931948572" lon="8.478317856494806"><ele>765.0</ele><time>2026-04-19T06:44:45.998Z</time></trkpt><trkpt lat="45.797324605005784" lon="8.478208801965181"><ele>765.0</ele><time>2026-04-19T06:44:48.998Z</time></trkpt><trkpt lat="45.7973575233992" lon="8.47811788785771"><ele>765.0</ele><time>2026-04-19T06:44:51.998Z</time></trkpt><trkpt lat="45.79740141473845" lon="8.477995848359967"><ele>765.0</ele><time>2026-04-19T06:44:55.998Z</time></trkpt><trkpt lat="45.79743005016177" lon="8.47790489861801"><ele>764.1666666666666</ele><time>2026-04-19T06:44:57.998Z</time></trkpt><trkpt lat="45.79747477680082" lon="8.47783117309254"><ele>763.3333333333334</ele><time>2026-04-19T06:44:59.998Z</time></trkpt><trkpt lat="45.797518930392386" lon="8.477745072406938"><ele>762.5</ele><time>2026-04-19T06:45:02.998Z</time></trkpt><trkpt lat="45.79756263388026" lon="8.477636173198292"><ele>761.6666666666667</ele><time>2026-04-19T06:45:05.998Z</time></trkpt><trkpt lat="45.797603221759765" lon="8.47753779501013"><ele>760.8333333333334</ele><time>2026-04-19T06:45:08.998Z</time></trkpt><trkpt lat="45.79762265216368" lon="8.477442656790156"><ele>760.0</ele><time>2026-04-19T06:45:12.001Z</time></trkpt><trkpt lat="45.79768844608636" lon="8.477397202499413"><ele>760.0</ele><time>2026-04-19T06:45:15.001Z</time></trkpt><trkpt lat="45.79775509565426" lon="8.477386603721339"><ele>760.0</ele><time>2026-04-19T06:45:18.001Z</time></trkpt><trkpt lat="45.79781884801787" lon="8.477369686241026"><ele>760.0</ele><time>2026-04-19T06:45:34Z</time></trkpt><trkpt lat="45.797796306947035" lon="8.477464882876207"><ele>760.0</ele><time>2026-04-19T06:47:36Z</time></trkpt><trkpt lat="45.79777085195443" lon="8.477548072995996"><ele>760.0</ele><time>2026-04-19T06:47:40Z</time></trkpt><trkpt lat="45.79774116814861" lon="8.477634511081012"><ele>760.0</ele><time>2026-04-19T06:47:44Z</time></trkpt><trkpt lat="45.79772179275489" lon="8.477732009449236"><ele>760.0</ele><time>2026-04-19T06:47:50Z</time></trkpt><trkpt lat="45.79771254342624" lon="8.47782447031413"><ele>760.0</ele><time>2026-04-19T06:47:53Z</time></trkpt><trkpt lat="45.797705837078766" lon="8.47792708563472"><ele>760.0</ele><time>2026-04-19T06:47:56Z</time></trkpt><trkpt lat="45.797706699944534" lon="8.478021727589406"><ele>760.0</ele><time>2026-04-19T06:47:59Z</time></trkpt><trkpt lat="45.79771530569327" lon="8.478132883233892"><ele>760.0</ele><time>2026-04-19T06:48:02Z</time></trkpt><trkpt lat="45.797714252379066" lon="8.478234905567827"><ele>760.0</ele><time>2026-04-19T06:48:05Z</time></trkpt><trkpt lat="45.79771384534153" lon="8.478328716264853"><ele>760.0</ele><time>2026-04-19T06:48:06.999Z</time></trkpt><trkpt lat="45.79769336642726" lon="8.478418396787857"><ele>760.0</ele><time>2026-04-19T06:48:09.999Z</time></trkpt><trkpt lat="45.797681487312815" lon="8.478514027990954"><ele>760.8333333333334</ele><time>2026-04-19T06:48:11.999Z</time></trkpt><trkpt lat="45.797640595178486" lon="8.478625708540257"><ele>761.6666666666667</ele><time>2026-04-19T06:48:14.999Z</time></trkpt><trkpt lat="45.79760244430292" lon="8.478743596060271"><ele>762.5</ele><time>2026-04-19T06:48:17.999Z</time></trkpt><trkpt lat="45.79756941527851" lon="8.478850532605039"><ele>763.3333333333334</ele><time>2026-04-19T06:48:20.999Z</time></trkpt><trkpt lat="45.797558687482635" lon="8.478963658333136"><ele>764.1666666666666</ele><time>2026-04-19T06:48:23.999Z</time></trkpt><trkpt lat="45.79756038676757" lon="8.479078598400129"><ele>765.0</ele><time>2026-04-19T06:48:26.999Z</time></trkpt><trkpt lat="45.79756572820096" lon="8.479193138497028"><ele>765.5</ele><time>2026-04-19T06:48:29.999Z</time></trkpt><trkpt lat="45.79759500703879" lon="8.479303161837088"><ele>766.0</ele><time>2026-04-19T06:48:32.999Z</time></trkpt><trkpt lat="45.79764710253014" lon="8.47938440300939"><ele>766.5</ele><time>2026-04-19T06:48:35.999Z</time></trkpt><trkpt lat="45.79770653128872" lon="8.479441777353633"><ele>767.0</ele><time>2026-04-19T06:48:38.999Z</time></trkpt><trkpt lat="45.797763457399526" lon="8.47949876589256"><ele>767.5</ele><time>2026-04-19T06:48:41.999Z</time></trkpt><trkpt lat="45.79782874182698" lon="8.479559472529827"><ele>768.0</ele><time>2026-04-19T06:48:44.999Z</time></trkpt><trkpt lat="45.7978865389509" lon="8.479639214980633"><ele>768.9999999999999</ele><time>2026-04-19T06:48:47.999Z</time></trkpt><trkpt lat="45.79792828809925" lon="8.47975866658738"><ele>770.0</ele><time>2026-04-19T06:48:50.998Z</time></trkpt><trkpt lat="45.797958999042564" lon="8.479878076555178"><ele>771.0</ele><time>2026-04-19T06:48:53.998Z</time></trkpt><trkpt lat="45.797976720750405" lon="8.47997329512291"><ele>772.0</ele><time>2026-04-19T06:48:55.998Z</time></trkpt><trkpt lat="45.79800919565916" lon="8.480056047613605"><ele>773.0</ele><time>2026-04-19T06:48:57.998Z</time></trkpt><trkpt lat="45.798048655445825" lon="8.480126449711662"><ele>773.9999999999999</ele><time>2026-04-19T06:48:59.998Z</time></trkpt><trkpt lat="45.79809930532685" lon="8.480189292728193"><ele>775.0</ele><time>2026-04-19T06:49:01.998Z</time></trkpt><trkpt lat="45.798142518246856" lon="8.480262699556082"><ele>774.9999999999999</ele><time>2026-04-19T06:49:03.998Z</time></trkpt><trkpt lat="45.79820900166495" lon="8.48036051111693"><ele>775.0</ele><time>2026-04-19T06:49:06.998Z</time></trkpt><trkpt lat="45.79822780836263" lon="8.480450413869193"><ele>775.0</ele><time>2026-04-19T06:49:08.998Z</time></trkpt><trkpt lat="45.798295635359665" lon="8.480511003250559"><ele>775.0</ele><time>2026-04-19T06:49:11.998Z</time></trkpt><trkpt lat="45.79834877919069" lon="8.480565721017923"><ele>774.9999999999999</ele><time>2026-04-19T06:49:13.998Z</time></trkpt><trkpt lat="45.79841972128918" lon="8.480643136107183"><ele>775.0</ele><time>2026-04-19T06:49:16.998Z</time></trkpt><trkpt lat="45.79848989500812" lon="8.480727307586747"><ele>777.1666666666666</ele><time>2026-04-19T06:49:19.998Z</time></trkpt><trkpt lat="45.798547455053324" lon="8.480801199248797"><ele>779.3333333333333</ele><time>2026-04-19T06:49:22.998Z</time></trkpt><trkpt lat="45.79863549642867" lon="8.480866717969027"><ele>781.5</ele><time>2026-04-19T06:49:26Z</time></trkpt><trkpt lat="45.79870000579017" lon="8.480944134188652"><ele>783.6666666666667</ele><time>2026-04-19T06:49:29Z</time></trkpt><trkpt lat="45.798772079954645" lon="8.481027618173345"><ele>785.8333333333334</ele><time>2026-04-19T06:49:32Z</time></trkpt><trkpt lat="45.79881003978006" lon="8.481103643118898"><ele>788.0</ele><time>2026-04-19T06:49:34Z</time></trkpt><trkpt lat="45.79884981797303" lon="8.481203971103307"><ele>788.5714285714286</ele><time>2026-04-19T06:49:37Z</time></trkpt><trkpt lat="45.798884815032416" lon="8.481299040471526"><ele>789.1428571428571</ele><time>2026-04-19T06:49:40Z</time></trkpt><trkpt lat="45.798929351896646" lon="8.481366590829872"><ele>789.7142857142858</ele><time>2026-04-19T06:49:42Z</time></trkpt><trkpt lat="45.79897324097323" lon="8.481439994455672"><ele>790.2857142857142</ele><time>2026-04-19T06:49:45Z</time></trkpt><trkpt lat="45.799012128902035" lon="8.481544761069202"><ele>790.8571428571428</ele><time>2026-04-19T06:49:48Z</time></trkpt><trkpt lat="45.79905121746496" lon="8.481630149376373"><ele>791.4285714285714</ele><time>2026-04-19T06:49:51Z</time></trkpt><trkpt lat="45.79909319201269" lon="8.48172236072946"><ele>792.0</ele><time>2026-04-19T06:49:54Z</time></trkpt><trkpt lat="45.7991611155554" lon="8.481798625233015"><ele>792.0</ele><time>2026-04-19T06:49:58Z</time></trkpt><trkpt lat="45.799220951015" lon="8.481756878185587"><ele>792.0</ele><time>2026-04-19T06:50:01Z</time></trkpt><trkpt lat="45.799298664943755" lon="8.481758237113475"><ele>792.0</ele><time>2026-04-19T06:50:07Z</time></trkpt><trkpt lat="45.79936216389034" lon="8.481812479303935"><ele>792.0</ele><time>2026-04-19T06:50:10.999Z</time></trkpt><trkpt lat="45.79942574446666" lon="8.481827743155439"><ele>792.0</ele><time>2026-04-19T06:50:13.999Z</time></trkpt><trkpt lat="45.79950007418991" lon="8.48184123533354"><ele>792.0</ele><time>2026-04-19T06:50:16.999Z</time></trkpt><trkpt lat="45.799563933614245" lon="8.481852062016195"><ele>792.0</ele><time>2026-04-19T06:50:18.999Z</time></trkpt><trkpt lat="45.79964147578034" lon="8.48183350321194"><ele>791.5</ele><time>2026-04-19T06:50:21.999Z</time></trkpt><trkpt lat="45.79970550047922" lon="8.481839850236456"><ele>791.0</ele><time>2026-04-19T06:50:24.999Z</time></trkpt><trkpt lat="45.79978253878582" lon="8.48185649075462"><ele>790.5</ele><time>2026-04-19T06:50:28.999Z</time></trkpt><trkpt lat="45.79985868865539" lon="8.481909998753832"><ele>790.0</ele><time>2026-04-19T06:50:30.999Z</time></trkpt><trkpt lat="45.79995750789408" lon="8.481935206602913"><ele>789.5</ele><time>2026-04-19T06:50:32.999Z</time></trkpt><trkpt lat="45.800063428407" lon="8.482015551863201"><ele>789.0</ele><time>2026-04-19T06:50:34.999Z</time></trkpt><trkpt lat="45.80018198715526" lon="8.482066924665787"><ele>789.0</ele><time>2026-04-19T06:50:36.999Z</time></trkpt><trkpt lat="45.8002472352702" lon="8.482093490436482"><ele>789.0</ele><time>2026-04-19T06:50:37.999Z</time></trkpt><trkpt lat="45.80034391745072" lon="8.482121527216858"><ele>789.0</ele><time>2026-04-19T06:50:39.999Z</time></trkpt><trkpt lat="45.80045714597362" lon="8.48214876130508"><ele>789.0</ele><time>2026-04-19T06:50:41.999Z</time></trkpt><trkpt lat="45.80054266456434" lon="8.482209118340457"><ele>789.0</ele><time>2026-04-19T06:50:43.999Z</time></trkpt><trkpt lat="45.800614584209065" lon="8.482184855894086"><ele>791.8000000000001</ele><time>2026-04-19T06:50:46.999Z</time></trkpt><trkpt lat="45.80072134374496" lon="8.482182526277215"><ele>794.6</ele><time>2026-04-19T06:50:48.999Z</time></trkpt><trkpt lat="45.800793833112785" lon="8.482239063392425"><ele>797.4</ele><time>2026-04-19T06:50:50.999Z</time></trkpt><trkpt lat="45.800885916659716" lon="8.482260783391478"><ele>800.2</ele><time>2026-04-19T06:50:52.998Z</time></trkpt><trkpt lat="45.80097917414439" lon="8.482305691478757"><ele>803.0</ele><time>2026-04-19T06:50:54.998Z</time></trkpt><trkpt lat="45.801048655980075" lon="8.482318191118313"><ele>803.8</ele><time>2026-04-19T06:50:56.998Z</time></trkpt><trkpt lat="45.80111630170765" lon="8.482332429214443"><ele>804.5999999999999</ele><time>2026-04-19T06:50:58.998Z</time></trkpt><trkpt lat="45.801210073899426" lon="8.482338938862718"><ele>805.4000000000001</ele><time>2026-04-19T06:51:01.998Z</time></trkpt><trkpt lat="45.80130795877146" lon="8.48234566329535"><ele>806.2</ele><time>2026-04-19T06:51:03.998Z</time></trkpt><trkpt lat="45.801415186724064" lon="8.482316778350299"><ele>807.0</ele><time>2026-04-19T06:51:05.998Z</time></trkpt><trkpt lat="45.80152527464152" lon="8.482280849039752"><ele>807.0</ele><time>2026-04-19T06:51:07.998Z</time></trkpt><trkpt lat="45.80162719066057" lon="8.482248730544317"><ele>807.0</ele><time>2026-04-19T06:51:09.998Z</time></trkpt><trkpt lat="45.8017120577761" lon="8.48218637049954"><ele>807.0</ele><time>2026-04-19T06:51:11.998Z</time></trkpt><trkpt lat="45.80178687036921" lon="8.482106521609564"><ele>807.0</ele><time>2026-04-19T06:51:13.998Z</time></trkpt><trkpt lat="45.80185407515154" lon="8.48201834250656"><ele>807.0</ele><time>2026-04-19T06:51:15.998Z</time></trkpt><trkpt lat="45.80192317823456" lon="8.481964350237279"><ele>805.3333333333334</ele><time>2026-04-19T06:51:17.998Z</time></trkpt><trkpt lat="45.80200273724755" lon="8.481894027985103"><ele>803.6666666666667</ele><time>2026-04-19T06:51:19.998Z</time></trkpt><trkpt lat="45.80207101932033" lon="8.481856626981997"><ele>802.0</ele><time>2026-04-19T06:51:20.998Z</time></trkpt><trkpt lat="45.80215206998099" lon="8.481819290117645"><ele>800.3333333333334</ele><time>2026-04-19T06:51:21.998Z</time></trkpt><trkpt lat="45.80222860639306" lon="8.48180100090478"><ele>798.6666666666667</ele><time>2026-04-19T06:51:22.998Z</time></trkpt><trkpt lat="45.80230475963522" lon="8.481774634146111"><ele>797.0</ele><time>2026-04-19T06:51:23.998Z</time></trkpt><trkpt lat="45.80238643963965" lon="8.481762977558894"><ele>797.0000000000001</ele><time>2026-04-19T06:51:24.998Z</time></trkpt><trkpt lat="45.80248210302396" lon="8.481750684722563"><ele>797.0</ele><time>2026-04-19T06:51:25.998Z</time></trkpt><trkpt lat="45.802575360551366" lon="8.48174391549604"><ele>797.0</ele><time>2026-04-19T06:51:26.998Z</time></trkpt><trkpt lat="45.802654777542195" lon="8.481721420699488"><ele>797.0</ele><time>2026-04-19T06:51:27.998Z</time></trkpt><trkpt lat="45.80273503664943" lon="8.481689637287015"><ele>797.0000000000001</ele><time>2026-04-19T06:51:28.998Z</time></trkpt><trkpt lat="45.802824762190674" lon="8.481656847844565"><ele>797.0</ele><time>2026-04-19T06:51:30Z</time></trkpt><trkpt lat="45.80289386084925" lon="8.481608285650605"><ele>795.3333333333334</ele><time>2026-04-19T06:51:31Z</time></trkpt><trkpt lat="45.8029583920513" lon="8.481520173208791"><ele>793.6666666666667</ele><time>2026-04-19T06:51:32Z</time></trkpt><trkpt lat="45.80302148960027" lon="8.481425305880094"><ele>792.0</ele><time>2026-04-19T06:51:33Z</time></trkpt><trkpt lat="45.80309518424339" lon="8.481350642929582"><ele>790.3333333333333</ele><time>2026-04-19T06:51:34Z</time></trkpt><trkpt lat="45.803162176798324" lon="8.481279861153011"><ele>788.6666666666666</ele><time>2026-04-19T06:51:35Z</time></trkpt><trkpt lat="45.80323656086381" lon="8.481195494452724"><ele>787.0</ele><time>2026-04-19T06:51:36Z</time></trkpt><trkpt lat="45.80332429448179" lon="8.481119795351324"><ele>785.1666666666666</ele><time>2026-04-19T06:51:37Z</time></trkpt><trkpt lat="45.80340399315815" lon="8.481058597618796"><ele>783.3333333333333</ele><time>2026-04-19T06:51:38Z</time></trkpt><trkpt lat="45.80346700445575" lon="8.481020597718045"><ele>781.5</ele><time>2026-04-19T06:51:39Z</time></trkpt><trkpt lat="45.803530579965106" lon="8.481011210740968"><ele>779.6666666666667</ele><time>2026-04-19T06:51:40Z</time></trkpt><trkpt lat="45.80359479713875" lon="8.480976039350024"><ele>777.8333333333334</ele><time>2026-04-19T06:51:41Z</time></trkpt><trkpt lat="45.80368661179612" lon="8.48090892890414"><ele>776.0</ele><time>2026-04-19T06:51:43Z</time></trkpt><trkpt lat="45.803832724337845" lon="8.480757792497188"><ele>775.6666666666667</ele><time>2026-04-19T06:51:44Z</time></trkpt><trkpt lat="45.80390265406069" lon="8.48077634659752"><ele>775.3333333333334</ele><time>2026-04-19T06:51:46Z</time></trkpt><trkpt lat="45.80388577811876" lon="8.480890804655532"><ele>775.0</ele><time>2026-04-19T06:51:56Z</time></trkpt><trkpt lat="45.80383205680623" lon="8.480977262147338"><ele>774.6666666666667</ele><time>2026-04-19T06:51:59Z</time></trkpt><trkpt lat="45.80379114575536" lon="8.481106637347478"><ele>774.3333333333334</ele><time>2026-04-19T06:52:02Z</time></trkpt><trkpt lat="45.803766143362004" lon="8.481217409936907"><ele>774.0</ele><time>2026-04-19T06:52:04Z</time></trkpt><trkpt lat="45.80374783079266" lon="8.481354872402141"><ele>772.8000000000001</ele><time>2026-04-19T06:52:07Z</time></trkpt><trkpt lat="45.803725816806" lon="8.4815031791508"><ele>771.6</ele><time>2026-04-19T06:52:09Z</time></trkpt><trkpt lat="45.803716686832615" lon="8.481612141291585"><ele>770.4</ele><time>2026-04-19T06:52:11Z</time></trkpt><trkpt lat="45.80369733733606" lon="8.481739220295891"><ele>769.2</ele><time>2026-04-19T06:52:13Z</time></trkpt><trkpt lat="45.803660274715654" lon="8.48186852890669"><ele>768.0</ele><time>2026-04-19T06:52:15Z</time></trkpt><trkpt lat="45.80362062046714" lon="8.482080925469628"><ele>768.5999999999999</ele><time>2026-04-19T06:52:16.999Z</time></trkpt><trkpt lat="45.80357311912287" lon="8.482142776738778"><ele>769.1999999999999</ele><time>2026-04-19T06:52:17.999Z</time></trkpt><trkpt lat="45.803569122856786" lon="8.482288565501399"><ele>769.8</ele><time>2026-04-19T06:52:19.999Z</time></trkpt><trkpt lat="45.803629467382876" lon="8.482420950054513"><ele>770.4</ele><time>2026-04-19T06:52:21.999Z</time></trkpt><trkpt lat="45.803730116220194" lon="8.482491634829003"><ele>771.0</ele><time>2026-04-19T06:52:23.999Z</time></trkpt><trkpt lat="45.80378856017809" lon="8.482545237910154"><ele>771.0</ele><time>2026-04-19T06:52:24.999Z</time></trkpt><trkpt lat="45.80384570434991" lon="8.482697686204606"><ele>771.0</ele><time>2026-04-19T06:52:26.999Z</time></trkpt><trkpt lat="45.80385041879516" lon="8.48278989545212"><ele>771.0</ele><time>2026-04-19T06:52:27.999Z</time></trkpt><trkpt lat="45.803853297110486" lon="8.48289282194964"><ele>771.0</ele><time>2026-04-19T06:52:28.999Z</time></trkpt><trkpt lat="45.80385525526576" lon="8.482996498943052"><ele>771.0</ele><time>2026-04-19T06:52:29.999Z</time></trkpt><trkpt lat="45.80387752912327" lon="8.483089349937115"><ele>771.0</ele><time>2026-04-19T06:52:30.999Z</time></trkpt><trkpt lat="45.80390196469581" lon="8.483189197837874"><ele>771.5</ele><time>2026-04-19T06:52:31.999Z</time></trkpt><trkpt lat="45.80391662329144" lon="8.483284658751874"><ele>772.0</ele><time>2026-04-19T06:52:32.999Z</time></trkpt><trkpt lat="45.803956140096375" lon="8.483425714902337"><ele>772.5</ele><time>2026-04-19T06:52:34.999Z</time></trkpt><trkpt lat="45.80391291462041" lon="8.483508982513179"><ele>773.0</ele><time>2026-04-19T06:52:36.999Z</time></trkpt><trkpt lat="45.80397768939437" lon="8.48349530326886"><ele>773.5</ele><time>2026-04-19T06:52:48.999Z</time></trkpt><trkpt lat="45.80400524134643" lon="8.483579440195685"><ele>774.0</ele><time>2026-04-19T06:52:58.998Z</time></trkpt><trkpt lat="45.804047732221896" lon="8.483687258373957"><ele>773.6</ele><time>2026-04-19T06:53:05.998Z</time></trkpt><trkpt lat="45.804084872043674" lon="8.483801810044413"><ele>773.2</ele><time>2026-04-19T06:53:07.998Z</time></trkpt><trkpt lat="45.804165736450884" lon="8.483912053161758"><ele>772.8000000000001</ele><time>2026-04-19T06:53:09.998Z</time></trkpt><trkpt lat="45.804269032656435" lon="8.483978235944262"><ele>772.4000000000001</ele><time>2026-04-19T06:53:11.998Z</time></trkpt><trkpt lat="45.80432604476856" lon="8.484100203312273"><ele>772.0</ele><time>2026-04-19T06:53:13.998Z</time></trkpt><trkpt lat="45.804360800094784" lon="8.484202347682514"><ele>772.9999999999999</ele><time>2026-04-19T06:53:15.998Z</time></trkpt><trkpt lat="45.804315760769676" lon="8.48430081765377"><ele>774.0</ele><time>2026-04-19T06:53:17.998Z</time></trkpt><trkpt lat="45.80426611019334" lon="8.484359904750061"><ele>775.0</ele><time>2026-04-19T06:53:30.998Z</time></trkpt><trkpt lat="45.80420387168818" lon="8.484392264523306"><ele>776.0</ele><time>2026-04-19T06:53:34.998Z</time></trkpt><trkpt lat="45.80412558640679" lon="8.48439835743813"><ele>776.9999999999999</ele><time>2026-04-19T06:53:38Z</time></trkpt><trkpt lat="45.804047583845836" lon="8.484417555541558"><ele>778.0</ele><time>2026-04-19T06:53:41Z</time></trkpt><trkpt lat="45.80396635562105" lon="8.484431344846037"><ele>777.9999999999999</ele><time>2026-04-19T06:53:44Z</time></trkpt><trkpt lat="45.803890132487695" lon="8.484430661453311"><ele>778.0</ele><time>2026-04-19T06:53:47Z</time></trkpt><trkpt lat="45.80381549940353" lon="8.484425369560523"><ele>778.0</ele><time>2026-04-19T06:53:50Z</time></trkpt><trkpt lat="45.80372589519769" lon="8.484441477604378"><ele>778.0</ele><time>2026-04-19T06:53:54Z</time></trkpt><trkpt lat="45.80364833190072" lon="8.484424550366322"><ele>777.9999999999999</ele><time>2026-04-19T06:53:57Z</time></trkpt><trkpt lat="45.80356554333065" lon="8.484415271348432"><ele>778.0</ele><time>2026-04-19T06:54:00Z</time></trkpt><trkpt lat="45.80350068713493" lon="8.484416631470642"><ele>779.8571428571429</ele><time>2026-04-19T06:54:03Z</time></trkpt><trkpt lat="45.80342867452839" lon="8.484402615567625"><ele>781.7142857142857</ele><time>2026-04-19T06:54:06Z</time></trkpt><trkpt lat="45.803361653501995" lon="8.484355245478637"><ele>783.5714285714286</ele><time>2026-04-19T06:54:09Z</time></trkpt><trkpt lat="45.80332822279319" lon="8.484278700599573"><ele>785.4285714285714</ele><time>2026-04-19T06:54:12Z</time></trkpt><trkpt lat="45.8032694522896" lon="8.484179212116398"><ele>787.2857142857142</ele><time>2026-04-19T06:54:15Z</time></trkpt><trkpt lat="45.80322150943376" lon="8.484114883246688"><ele>789.1428571428571</ele><time>2026-04-19T06:54:18Z</time></trkpt><trkpt lat="45.803154863476415" lon="8.484058471516702"><ele>791.0</ele><time>2026-04-19T06:54:21Z</time></trkpt><trkpt lat="45.8030789983961" lon="8.484024386997445"><ele>791.0000000000001</ele><time>2026-04-19T06:54:23.999Z</time></trkpt><trkpt lat="45.802992817013276" lon="8.484029737643889"><ele>791.0</ele><time>2026-04-19T06:54:26.999Z</time></trkpt><trkpt lat="45.80290713387845" lon="8.483978949522255"><ele>791.0</ele><time>2026-04-19T06:54:29.999Z</time></trkpt><trkpt lat="45.80282320612803" lon="8.483942078044612"><ele>791.0</ele><time>2026-04-19T06:54:32.999Z</time></trkpt><trkpt lat="45.802758034319965" lon="8.483890886146588"><ele>791.0000000000001</ele><time>2026-04-19T06:54:35.999Z</time></trkpt><trkpt lat="45.802689282918315" lon="8.483824302914831"><ele>791.0</ele><time>2026-04-19T06:54:38.999Z</time></trkpt><trkpt lat="45.80260282672089" lon="8.483785959918626"><ele>791.3333333333334</ele><time>2026-04-19T06:54:41.999Z</time></trkpt><trkpt lat="45.802529461073064" lon="8.483777524435316"><ele>791.6666666666667</ele><time>2026-04-19T06:54:43.999Z</time></trkpt><trkpt lat="45.802431649028065" lon="8.483794846151278"><ele>792.0</ele><time>2026-04-19T06:54:46.999Z</time></trkpt><trkpt lat="45.80233630376095" lon="8.483745299052242"><ele>792.3333333333333</ele><time>2026-04-19T06:54:49.999Z</time></trkpt><trkpt lat="45.80226385046459" lon="8.483712167230298"><ele>792.6666666666666</ele><time>2026-04-19T06:54:51.999Z</time></trkpt><trkpt lat="45.802183917611295" lon="8.483714172482143"><ele>793.0</ele><time>2026-04-19T06:54:53.999Z</time></trkpt><trkpt lat="45.80211564526953" lon="8.483743646841488"><ele>792.9999999999999</ele><time>2026-04-19T06:54:55.999Z</time></trkpt><trkpt lat="45.80204182306552" lon="8.483812791631776"><ele>793.0</ele><time>2026-04-19T06:54:57.999Z</time></trkpt><trkpt lat="45.80197121670069" lon="8.483875799319527"><ele>793.0</ele><time>2026-04-19T06:54:59.999Z</time></trkpt><trkpt lat="45.8019054931915" lon="8.483894096428314"><ele>793.0</ele><time>2026-04-19T06:55:01.999Z</time></trkpt><trkpt lat="45.80183804899372" lon="8.483898017137367"><ele>792.9999999999999</ele><time>2026-04-19T06:55:03.999Z</time></trkpt><trkpt lat="45.80176719328604" lon="8.483879783959086"><ele>793.0</ele><time>2026-04-19T06:55:05.998Z</time></trkpt><trkpt lat="45.80168368130676" lon="8.483848395056933"><ele>793.8333333333333</ele><time>2026-04-19T06:55:07.998Z</time></trkpt><trkpt lat="45.801606136894314" lon="8.483824639847374"><ele>794.6666666666666</ele><time>2026-04-19T06:55:09.998Z</time></trkpt><trkpt lat="45.80153110815563" lon="8.483825533752475"><ele>795.5</ele><time>2026-04-19T06:55:11.998Z</time></trkpt><trkpt lat="45.801468308615114" lon="8.483886344077218"><ele>796.3333333333333</ele><time>2026-04-19T06:55:13.998Z</time></trkpt><trkpt lat="45.8014082515681" lon="8.48396337189353"><ele>797.1666666666666</ele><time>2026-04-19T06:55:15.998Z</time></trkpt><trkpt lat="45.80136113258115" lon="8.484058984623832"><ele>798.0</ele><time>2026-04-19T06:55:17.998Z</time></trkpt><trkpt lat="45.80132672110074" lon="8.484151112558518"><ele>798.0</ele><time>2026-04-19T06:55:19.998Z</time></trkpt><trkpt lat="45.80131521158756" lon="8.484268206694964"><ele>798.0</ele><time>2026-04-19T06:55:22.998Z</time></trkpt><trkpt lat="45.80127834731953" lon="8.484361662745245"><ele>798.0</ele><time>2026-04-19T06:55:25.998Z</time></trkpt><trkpt lat="45.80124580695893" lon="8.484486384824576"><ele>798.0</ele><time>2026-04-19T06:55:28.998Z</time></trkpt><trkpt lat="45.80123502043605" lon="8.484620287964258"><ele>798.0</ele><time>2026-04-19T06:55:30.998Z</time></trkpt><trkpt lat="45.801245446889084" lon="8.484745401534424"><ele>798.0</ele><time>2026-04-19T06:55:32.998Z</time></trkpt><trkpt lat="45.801256104666265" lon="8.484881872640495"><ele>796.5</ele><time>2026-04-19T06:55:34.998Z</time></trkpt><trkpt lat="45.80127201107" lon="8.484997099567138"><ele>795.0</ele><time>2026-04-19T06:55:36.998Z</time></trkpt><trkpt lat="45.80128225907118" lon="8.485096322172387"><ele>793.5</ele><time>2026-04-19T06:55:38.998Z</time></trkpt><trkpt lat="45.80130705347917" lon="8.485238895241089"><ele>792.0</ele><time>2026-04-19T06:55:42Z</time></trkpt><trkpt lat="45.801300303237504" lon="8.485352255562354"><ele>790.5</ele><time>2026-04-19T06:55:44Z</time></trkpt><trkpt lat="45.801303931943245" lon="8.485482244697417"><ele>789.0</ele><time>2026-04-19T06:55:46Z</time></trkpt><trkpt lat="45.80130099109729" lon="8.48563177209201"><ele>788.6</ele><time>2026-04-19T06:55:48Z</time></trkpt><trkpt lat="45.80130034271328" lon="8.48580102466672"><ele>788.2</ele><time>2026-04-19T06:55:50Z</time></trkpt><trkpt lat="45.80129416289125" lon="8.48590567535192"><ele>787.8000000000001</ele><time>2026-04-19T06:55:51Z</time></trkpt><trkpt lat="45.80128636480142" lon="8.485999276737335"><ele>787.4000000000001</ele><time>2026-04-19T06:55:52Z</time></trkpt><trkpt lat="45.80126527451572" lon="8.486147878848088"><ele>787.0</ele><time>2026-04-19T06:55:54Z</time></trkpt><trkpt lat="45.80126592180873" lon="8.486413477764653"><ele>786.6666666666666</ele><time>2026-04-19T06:55:56Z</time></trkpt><trkpt lat="45.80128914208965" lon="8.486510959863566"><ele>786.3333333333333</ele><time>2026-04-19T06:55:57Z</time></trkpt><trkpt lat="45.80132787591914" lon="8.486685408930242"><ele>786.0</ele><time>2026-04-19T06:55:59Z</time></trkpt><trkpt lat="45.801356966066315" lon="8.486774650229075"><ele>785.6666666666667</ele><time>2026-04-19T06:56:00Z</time></trkpt><trkpt lat="45.8013505314153" lon="8.48688712940618"><ele>785.3333333333334</ele><time>2026-04-19T06:56:01Z</time></trkpt><trkpt lat="45.80136325240225" lon="8.486986930279611"><ele>785.0</ele><time>2026-04-19T06:56:02Z</time></trkpt><trkpt lat="45.80140486005549" lon="8.487095395623172"><ele>784.8333333333334</ele><time>2026-04-19T06:56:03Z</time></trkpt><trkpt lat="45.801452151448416" lon="8.487191955573063"><ele>784.6666666666667</ele><time>2026-04-19T06:56:04Z</time></trkpt><trkpt lat="45.80150293832611" lon="8.48729084665074"><ele>784.5</ele><time>2026-04-19T06:56:05Z</time></trkpt><trkpt lat="45.801541061540405" lon="8.487411815437392"><ele>784.3333333333333</ele><time>2026-04-19T06:56:06Z</time></trkpt><trkpt lat="45.80158490944771" lon="8.487534090850732"><ele>784.1666666666666</ele><time>2026-04-19T06:56:07Z</time></trkpt><trkpt lat="45.801641389503885" lon="8.48761342928951"><ele>784.0</ele><time>2026-04-19T06:56:08Z</time></trkpt><trkpt lat="45.80172960464028" lon="8.48763015585941"><ele>783.9999999999999</ele><time>2026-04-19T06:56:09Z</time></trkpt><trkpt lat="45.80182514055968" lon="8.487629464655633"><ele>784.0</ele><time>2026-04-19T06:56:10Z</time></trkpt><trkpt lat="45.80190651855529" lon="8.487749421544445"><ele>784.0</ele><time>2026-04-19T06:56:12Z</time></trkpt><trkpt lat="45.80197754719717" lon="8.487790554322103"><ele>784.0</ele><time>2026-04-19T06:56:13Z</time></trkpt><trkpt lat="45.801999715128154" lon="8.487886928859758"><ele>783.9999999999999</ele><time>2026-04-19T06:56:14Z</time></trkpt><trkpt lat="45.80201748543543" lon="8.487981862155237"><ele>784.0</ele><time>2026-04-19T06:56:15Z</time></trkpt><trkpt lat="45.80201570426622" lon="8.488146799981273"><ele>781.9999999999999</ele><time>2026-04-19T06:56:17Z</time></trkpt><trkpt lat="45.80197257114123" lon="8.488237488848872"><ele>780.0</ele><time>2026-04-19T06:56:18Z</time></trkpt><trkpt lat="45.801937473360546" lon="8.488320275605604"><ele>778.0</ele><time>2026-04-19T06:56:19Z</time></trkpt><trkpt lat="45.80192316022477" lon="8.48849293623724"><ele>776.0</ele><time>2026-04-19T06:56:21Z</time></trkpt><trkpt lat="45.801900861056296" lon="8.488659137479033"><ele>773.9999999999999</ele><time>2026-04-19T06:56:23Z</time></trkpt><trkpt lat="45.801912551949734" lon="8.48875058489137"><ele>772.0</ele><time>2026-04-19T06:56:25Z</time></trkpt><trkpt lat="45.801975106663726" lon="8.488722997738392"><ele>771.9999999999999</ele><time>2026-04-19T06:57:23.998Z</time></trkpt><trkpt lat="45.80204976403836" lon="8.488741308860778"><ele>772.0</ele><time>2026-04-19T06:57:25.998Z</time></trkpt><trkpt lat="45.8021269907183" lon="8.48877078793264"><ele>772.0</ele><time>2026-04-19T06:57:27.998Z</time></trkpt><trkpt lat="45.80219811892922" lon="8.488815199828464"><ele>772.0</ele><time>2026-04-19T06:57:29.998Z</time></trkpt><trkpt lat="45.80226745877181" lon="8.48887193845615"><ele>771.9999999999999</ele><time>2026-04-19T06:57:31.998Z</time></trkpt><trkpt lat="45.802343656999305" lon="8.488877244875374"><ele>772.0</ele><time>2026-04-19T06:57:33.998Z</time></trkpt><trkpt lat="45.80244011544302" lon="8.488920148081963"><ele>772.8333333333333</ele><time>2026-04-19T06:57:35.998Z</time></trkpt><trkpt lat="45.80254653656946" lon="8.489009161611191"><ele>773.6666666666666</ele><time>2026-04-19T06:57:37.998Z</time></trkpt><trkpt lat="45.802604695752336" lon="8.489054950948846"><ele>774.5</ele><time>2026-04-19T06:57:38.998Z</time></trkpt><trkpt lat="45.80266094604985" lon="8.48909556391307"><ele>775.3333333333333</ele><time>2026-04-19T06:57:39.998Z</time></trkpt><trkpt lat="45.80277429513534" lon="8.489129607568906"><ele>776.1666666666666</ele><time>2026-04-19T06:57:41.998Z</time></trkpt><trkpt lat="45.80282876874058" lon="8.489181531713712"><ele>777.0</ele><time>2026-04-19T06:57:42.998Z</time></trkpt><trkpt lat="45.8029212249189" lon="8.48927427204768"><ele>777.0</ele><time>2026-04-19T06:57:44.998Z</time></trkpt><trkpt lat="45.80302994485373" lon="8.489357537869061"><ele>777.0</ele><time>2026-04-19T06:57:46.998Z</time></trkpt><trkpt lat="45.80312478128917" lon="8.489435505953018"><ele>777.0</ele><time>2026-04-19T06:57:49Z</time></trkpt><trkpt lat="45.803222471826395" lon="8.489509117262564"><ele>777.0</ele><time>2026-04-19T06:57:51Z</time></trkpt><trkpt lat="45.80333636803773" lon="8.489526534938067"><ele>777.0</ele><time>2026-04-19T06:57:53Z</time></trkpt><trkpt lat="45.80339985290572" lon="8.489543988855806"><ele>777.0</ele><time>2026-04-19T06:57:54Z</time></trkpt><trkpt lat="45.8034635464514" lon="8.489556340858195"><ele>777.0</ele><time>2026-04-19T06:57:55Z</time></trkpt><trkpt lat="45.80352704915938" lon="8.489581750730153"><ele>777.0</ele><time>2026-04-19T06:57:56Z</time></trkpt><trkpt lat="45.803590029983305" lon="8.489605994788551"><ele>777.0</ele><time>2026-04-19T06:57:57Z</time></trkpt><trkpt lat="45.80371491945035" lon="8.489639833700402"><ele>777.0</ele><time>2026-04-19T06:57:59Z</time></trkpt><trkpt lat="45.80377823198029" lon="8.489645526294336"><ele>777.0</ele><time>2026-04-19T06:58:00Z</time></trkpt><trkpt lat="45.80387557249943" lon="8.489675242500144"><ele>777.0</ele><time>2026-04-19T06:58:02Z</time></trkpt><trkpt lat="45.80398983691118" lon="8.48968770790839"><ele>777.0</ele><time>2026-04-19T06:58:04Z</time></trkpt><trkpt lat="45.804050285571265" lon="8.489713972524754"><ele>777.0</ele><time>2026-04-19T06:58:05Z</time></trkpt><trkpt lat="45.80411623624366" lon="8.489735788732336"><ele>777.0</ele><time>2026-04-19T06:58:06Z</time></trkpt><trkpt lat="45.80422371893936" lon="8.489772580107156"><ele>777.0</ele><time>2026-04-19T06:58:08Z</time></trkpt><trkpt lat="45.804328097826115" lon="8.489808265835686"><ele>777.0</ele><time>2026-04-19T06:58:10Z</time></trkpt><trkpt lat="45.804436659746955" lon="8.489846365007814"><ele>777.0</ele><time>2026-04-19T06:58:12Z</time></trkpt><trkpt lat="45.804553783803264" lon="8.48990759248309"><ele>777.0</ele><time>2026-04-19T06:58:14Z</time></trkpt><trkpt lat="45.80461402677718" lon="8.489942905327524"><ele>777.0</ele><time>2026-04-19T06:58:15Z</time></trkpt><trkpt lat="45.80467416005674" lon="8.48998059439166"><ele>777.25</ele><time>2026-04-19T06:58:16Z</time></trkpt><trkpt lat="45.804784108984" lon="8.490041630062393"><ele>777.5</ele><time>2026-04-19T06:58:18Z</time></trkpt><trkpt lat="45.80489787073602" lon="8.490110890803571"><ele>777.75</ele><time>2026-04-19T06:58:20Z</time></trkpt><trkpt lat="45.804971960090974" lon="8.490237224106961"><ele>778.0</ele><time>2026-04-19T06:58:22Z</time></trkpt><trkpt lat="45.805044797707495" lon="8.490346415066075"><ele>778.2</ele><time>2026-04-19T06:58:24Z</time></trkpt><trkpt lat="45.80512923600785" lon="8.490437083712653"><ele>778.4</ele><time>2026-04-19T06:58:26Z</time></trkpt><trkpt lat="45.80518081612122" lon="8.490490356749097"><ele>778.6</ele><time>2026-04-19T06:58:27Z</time></trkpt><trkpt lat="45.80527609588097" lon="8.490601594568956"><ele>778.8000000000001</ele><time>2026-04-19T06:58:29Z</time></trkpt><trkpt lat="45.80535359519314" lon="8.490733709842468"><ele>779.0</ele><time>2026-04-19T06:58:31Z</time></trkpt><trkpt lat="45.80540858234797" lon="8.49084226947007"><ele>779.0000000000001</ele><time>2026-04-19T06:58:32.999Z</time></trkpt><trkpt lat="45.805455242101814" lon="8.490911291755976"><ele>779.0</ele><time>2026-04-19T06:58:33.999Z</time></trkpt><trkpt lat="45.80549479122304" lon="8.490985742048457"><ele>779.0</ele><time>2026-04-19T06:58:34.999Z</time></trkpt><trkpt lat="45.80552035946763" lon="8.491086263399797"><ele>779.0</ele><time>2026-04-19T06:58:35.999Z</time></trkpt><trkpt lat="45.805559526394816" lon="8.491262758483275"><ele>779.0000000000001</ele><time>2026-04-19T06:58:37.999Z</time></trkpt><trkpt lat="45.805583836127916" lon="8.4913716033555"><ele>779.0</ele><time>2026-04-19T06:58:38.999Z</time></trkpt><trkpt lat="45.80560443028087" lon="8.491466229391072"><ele>778.8333333333334</ele><time>2026-04-19T06:58:39.999Z</time></trkpt><trkpt lat="45.805626718039754" lon="8.491551534991812"><ele>778.6666666666667</ele><time>2026-04-19T06:58:40.999Z</time></trkpt><trkpt lat="45.80564118549222" lon="8.49165252020943"><ele>778.5</ele><time>2026-04-19T06:58:41.999Z</time></trkpt><trkpt lat="45.80566133865192" lon="8.491761065189142"><ele>778.3333333333333</ele><time>2026-04-19T06:58:42.999Z</time></trkpt><trkpt lat="45.80565982169417" lon="8.491934811901896"><ele>778.1666666666666</ele><time>2026-04-19T06:58:44.999Z</time></trkpt><trkpt lat="45.80567032149225" lon="8.492034365730518"><ele>778.0</ele><time>2026-04-19T06:58:45.999Z</time></trkpt><trkpt lat="45.80570509990634" lon="8.492130729773324"><ele>777.9999999999999</ele><time>2026-04-19T06:58:46.999Z</time></trkpt><trkpt lat="45.8057253384802" lon="8.492248661263634"><ele>778.0</ele><time>2026-04-19T06:58:47.999Z</time></trkpt><trkpt lat="45.80575539343442" lon="8.492366798715125"><ele>778.0</ele><time>2026-04-19T06:58:48.999Z</time></trkpt><trkpt lat="45.80578966258576" lon="8.492490240514384"><ele>778.0</ele><time>2026-04-19T06:58:49.999Z</time></trkpt><trkpt lat="45.80576593784834" lon="8.492643881298562"><ele>777.9999999999999</ele><time>2026-04-19T06:58:50.999Z</time></trkpt><trkpt lat="45.80578942024617" lon="8.49273997891075"><ele>778.0</ele><time>2026-04-19T06:58:51.999Z</time></trkpt><trkpt lat="45.805785153194186" lon="8.49286013331271"><ele>776.9999999999999</ele><time>2026-04-19T06:58:53.999Z</time></trkpt><trkpt lat="45.80576167377354" lon="8.492961097206074"><ele>776.0</ele><time>2026-04-19T06:58:54.999Z</time></trkpt><trkpt lat="45.80574164885443" lon="8.493057384342722"><ele>775.0</ele><time>2026-04-19T06:58:55.999Z</time></trkpt><trkpt lat="45.80566383031382" lon="8.493216250904824"><ele>774.0</ele><time>2026-04-19T06:58:57.999Z</time></trkpt><trkpt lat="45.80561912281962" lon="8.493306429915394"><ele>772.9999999999999</ele><time>2026-04-19T06:58:58.999Z</time></trkpt><trkpt lat="45.8055907453699" lon="8.493406199896814"><ele>772.0</ele><time>2026-04-19T06:59:00.999Z</time></trkpt><trkpt lat="45.80562352481634" lon="8.493529553615598"><ele>771.9999999999999</ele><time>2026-04-19T06:59:02.999Z</time></trkpt><trkpt lat="45.805654844604675" lon="8.493612686790598"><ele>772.0</ele><time>2026-04-19T06:59:03.999Z</time></trkpt><trkpt lat="45.80570442663008" lon="8.493709414963087"><ele>772.0</ele><time>2026-04-19T06:59:04.999Z</time></trkpt><trkpt lat="45.80577278299302" lon="8.49377532787953"><ele>772.0</ele><time>2026-04-19T06:59:05.999Z</time></trkpt><trkpt lat="45.80583367605289" lon="8.493827609954447"><ele>771.9999999999999</ele><time>2026-04-19T06:59:06.999Z</time></trkpt><trkpt lat="45.805869308916996" lon="8.493999082688886"><ele>772.0</ele><time>2026-04-19T06:59:08.999Z</time></trkpt><trkpt lat="45.80586010384556" lon="8.494090019058175"><ele>770.3333333333333</ele><time>2026-04-19T06:59:09.999Z</time></trkpt><trkpt lat="45.80585839845497" lon="8.494263985931076"><ele>768.6666666666666</ele><time>2026-04-19T06:59:11.999Z</time></trkpt><trkpt lat="45.805863425207725" lon="8.494374828648802"><ele>767.0</ele><time>2026-04-19T06:59:12.999Z</time></trkpt><trkpt lat="45.80587226167394" lon="8.49447275935795"><ele>765.3333333333333</ele><time>2026-04-19T06:59:13.998Z</time></trkpt><trkpt lat="45.80587865852921" lon="8.494564225102302"><ele>763.6666666666666</ele><time>2026-04-19T06:59:14.998Z</time></trkpt><trkpt lat="45.805891898415325" lon="8.494662798316307"><ele>762.0</ele><time>2026-04-19T06:59:15.998Z</time></trkpt><trkpt lat="45.80592315053166" lon="8.494751868106908"><ele>760.1666666666666</ele><time>2026-04-19T06:59:16.998Z</time></trkpt><trkpt lat="45.80595042301735" lon="8.494839241894153"><ele>758.3333333333334</ele><time>2026-04-19T06:59:17.998Z</time></trkpt><trkpt lat="45.80598016410373" lon="8.49493645779845"><ele>756.5</ele><time>2026-04-19T06:59:18.998Z</time></trkpt><trkpt lat="45.805993471422155" lon="8.495038594136709"><ele>754.6666666666667</ele><time>2026-04-19T06:59:19.998Z</time></trkpt><trkpt lat="45.80597714242084" lon="8.495137808993993"><ele>752.8333333333334</ele><time>2026-04-19T06:59:20.998Z</time></trkpt><trkpt lat="45.80590284223495" lon="8.495292812282857"><ele>751.0</ele><time>2026-04-19T06:59:22.998Z</time></trkpt><trkpt lat="45.80584934271096" lon="8.495355477310138"><ele>750.4</ele><time>2026-04-19T06:59:26.998Z</time></trkpt><trkpt lat="45.80577252120905" lon="8.495421120069226"><ele>749.8</ele><time>2026-04-19T07:02:45.999Z</time></trkpt><trkpt lat="45.805709409128575" lon="8.495472158442707"><ele>749.1999999999999</ele><time>2026-04-19T07:02:47.999Z</time></trkpt><trkpt lat="45.80559900336916" lon="8.495565951317978"><ele>748.5999999999999</ele><time>2026-04-19T07:02:49.999Z</time></trkpt><trkpt lat="45.80556766698812" lon="8.495653880005852"><ele>748.0</ele><time>2026-04-19T07:02:50.999Z</time></trkpt><trkpt lat="45.80547856763641" lon="8.495762956982368"><ele>748.0</ele><time>2026-04-19T07:02:52.999Z</time></trkpt><trkpt lat="45.80543781249867" lon="8.495944621339692"><ele>748.0</ele><time>2026-04-19T07:02:54.999Z</time></trkpt><trkpt lat="45.80543960172705" lon="8.496120310035197"><ele>748.0</ele><time>2026-04-19T07:02:56.999Z</time></trkpt><trkpt lat="45.80548251550246" lon="8.496194221914394"><ele>748.0</ele><time>2026-04-19T07:02:57.999Z</time></trkpt><trkpt lat="45.80554553472071" lon="8.496238676793919"><ele>748.0</ele><time>2026-04-19T07:02:58.999Z</time></trkpt><trkpt lat="45.80560601806891" lon="8.496274570634416"><ele>746.0</ele><time>2026-04-19T07:02:59.999Z</time></trkpt><trkpt lat="45.80566853839955" lon="8.49632059675202"><ele>744.0</ele><time>2026-04-19T07:03:00.999Z</time></trkpt><trkpt lat="45.80573502983542" lon="8.496358344427756"><ele>742.0</ele><time>2026-04-19T07:03:01.999Z</time></trkpt><trkpt lat="45.805823504448" lon="8.496399829333855"><ele>740.0</ele><time>2026-04-19T07:03:02.999Z</time></trkpt><trkpt lat="45.80590101578663" lon="8.496441632583242"><ele>738.0</ele><time>2026-04-19T07:03:03.999Z</time></trkpt><trkpt lat="45.80600622912116" lon="8.496494132557762"><ele>736.0</ele><time>2026-04-19T07:03:04.999Z</time></trkpt><trkpt lat="45.806096367769925" lon="8.496549796124308"><ele>734.4</ele><time>2026-04-19T07:03:05.999Z</time></trkpt><trkpt lat="45.806170033375636" lon="8.49659619381524"><ele>732.8</ele><time>2026-04-19T07:03:06.999Z</time></trkpt><trkpt lat="45.80623773007229" lon="8.49664068121939"><ele>731.1999999999999</ele><time>2026-04-19T07:03:07.999Z</time></trkpt><trkpt lat="45.806343382661716" lon="8.496626184502158"><ele>729.5999999999999</ele><time>2026-04-19T07:03:09.999Z</time></trkpt><trkpt lat="45.80647792533505" lon="8.496545700706037"><ele>728.0</ele><time>2026-04-19T07:03:11.999Z</time></trkpt><trkpt lat="45.80654381661685" lon="8.496459579818174"><ele>728.0</ele><time>2026-04-19T07:03:12.999Z</time></trkpt><trkpt lat="45.80659528862768" lon="8.49634532057517"><ele>728.0</ele><time>2026-04-19T07:03:13.999Z</time></trkpt><trkpt lat="45.80663713062175" lon="8.496240468376161"><ele>728.0</ele><time>2026-04-19T07:03:14.999Z</time></trkpt><trkpt lat="45.80674820744066" lon="8.496173487450521"><ele>728.0</ele><time>2026-04-19T07:03:16.999Z</time></trkpt><trkpt lat="45.80684119928741" lon="8.496224723166009"><ele>728.0</ele><time>2026-04-19T07:03:17.999Z</time></trkpt><trkpt lat="45.80691049372388" lon="8.496255805980857"><ele>726.75</ele><time>2026-04-19T07:03:18.999Z</time></trkpt><trkpt lat="45.80702360297493" lon="8.496180538507621"><ele>725.5</ele><time>2026-04-19T07:03:20.999Z</time></trkpt><trkpt lat="45.807088787853026" lon="8.496114559167873"><ele>724.25</ele><time>2026-04-19T07:03:21.998Z</time></trkpt><trkpt lat="45.80714837237776" lon="8.495979697140982"><ele>723.0</ele><time>2026-04-19T07:03:22.998Z</time></trkpt><trkpt lat="45.80728956456384" lon="8.496037856967618"><ele>723.0</ele><time>2026-04-19T07:03:24.998Z</time></trkpt><trkpt lat="45.80734415574386" lon="8.496134527934535"><ele>723.0</ele><time>2026-04-19T07:03:25.998Z</time></trkpt><trkpt lat="45.80742079763087" lon="8.496196211900955"><ele>723.0</ele><time>2026-04-19T07:03:26.998Z</time></trkpt><trkpt lat="45.807483994900785" lon="8.49624883826268"><ele>723.0</ele><time>2026-04-19T07:03:27.998Z</time></trkpt><trkpt lat="45.807564372618785" lon="8.49623497809342"><ele>723.0</ele><time>2026-04-19T07:03:29.998Z</time></trkpt><trkpt lat="45.807652692712786" lon="8.496179131102286"><ele>723.0</ele><time>2026-04-19T07:03:31.998Z</time></trkpt><trkpt lat="45.80771982363934" lon="8.496143395220084"><ele>719.5999999999999</ele><time>2026-04-19T07:03:32.998Z</time></trkpt><trkpt lat="45.807776007381676" lon="8.496064058928164"><ele>716.1999999999999</ele><time>2026-04-19T07:03:33.998Z</time></trkpt><trkpt lat="45.80780301884271" lon="8.495973502114547"><ele>712.8</ele><time>2026-04-19T07:03:34.998Z</time></trkpt><trkpt lat="45.80780001256868" lon="8.495791054245705"><ele>709.4</ele><time>2026-04-19T07:03:36.998Z</time></trkpt><trkpt lat="45.807783164366356" lon="8.49566621761707"><ele>706.0</ele><time>2026-04-19T07:03:38.998Z</time></trkpt><trkpt lat="45.80776350710627" lon="8.49552251680044"><ele>706.0</ele><time>2026-04-19T07:03:40.998Z</time></trkpt><trkpt lat="45.80773252073064" lon="8.495427226048548"><ele>706.0</ele><time>2026-04-19T07:03:42.998Z</time></trkpt><trkpt lat="45.80768509002069" lon="8.495329423398971"><ele>706.0</ele><time>2026-04-19T07:03:46.998Z</time></trkpt><trkpt lat="45.80764757245888" lon="8.495220058109892"><ele>706.0</ele><time>2026-04-19T07:03:48.998Z</time></trkpt><trkpt lat="45.80762823892172" lon="8.495118425037601"><ele>706.0</ele><time>2026-04-19T07:03:51.998Z</time></trkpt><trkpt lat="45.807582233194125" lon="8.495055349741074"><ele>706.0</ele><time>2026-04-19T07:03:54.998Z</time></trkpt><trkpt lat="45.80752581996353" lon="8.494952189721749"><ele>708.5</ele><time>2026-04-19T07:03:58.998Z</time></trkpt><trkpt lat="45.807594989127615" lon="8.49490424092214"><ele>711.0</ele><time>2026-04-19T07:04:01.998Z</time></trkpt><trkpt lat="45.807675056310025" lon="8.49487471753368"><ele>713.5</ele><time>2026-04-19T07:04:03.997Z</time></trkpt><trkpt lat="45.80773394014553" lon="8.494772237334837"><ele>716.0</ele><time>2026-04-19T07:04:06Z</time></trkpt><trkpt lat="45.807783717740925" lon="8.494688334306163"><ele>718.5</ele><time>2026-04-19T07:04:08Z</time></trkpt><trkpt lat="45.80785822347975" lon="8.494733604453454"><ele>721.0</ele><time>2026-04-19T07:04:10Z</time></trkpt><trkpt lat="45.80791654701562" lon="8.494821314849347"><ele>721.0</ele><time>2026-04-19T07:04:12Z</time></trkpt><trkpt lat="45.807941525098414" lon="8.494930203062728"><ele>721.0</ele><time>2026-04-19T07:04:14Z</time></trkpt><trkpt lat="45.8079913109525" lon="8.49502043901744"><ele>721.0</ele><time>2026-04-19T07:04:16Z</time></trkpt><trkpt lat="45.8080648106665" lon="8.495056252446236"><ele>721.0</ele><time>2026-04-19T07:04:18Z</time></trkpt><trkpt lat="45.8081651110565" lon="8.495070908622445"><ele>721.0</ele><time>2026-04-19T07:04:20Z</time></trkpt><trkpt lat="45.8082433992467" lon="8.495108921738506"><ele>721.0</ele><time>2026-04-19T07:04:22Z</time></trkpt><trkpt lat="45.80833112617492" lon="8.495139114172586"><ele>721.0</ele><time>2026-04-19T07:04:24Z</time></trkpt><trkpt lat="45.80843160087426" lon="8.495118600883481"><ele>721.0</ele><time>2026-04-19T07:04:26Z</time></trkpt><trkpt lat="45.808477865077805" lon="8.495038546321705"><ele>721.0</ele><time>2026-04-19T07:04:28Z</time></trkpt><trkpt lat="45.80851969726813" lon="8.494914308439064"><ele>721.0</ele><time>2026-04-19T07:04:30Z</time></trkpt><trkpt lat="45.80860742776436" lon="8.494901154499813"><ele>721.0</ele><time>2026-04-19T07:04:32Z</time></trkpt><trkpt lat="45.808685073375564" lon="8.494931304045961"><ele>721.0</ele><time>2026-04-19T07:04:34Z</time></trkpt><trkpt lat="45.80876330142482" lon="8.494963307804602"><ele>721.0</ele><time>2026-04-19T07:04:36Z</time></trkpt><trkpt lat="45.80887233609745" lon="8.494969043772151"><ele>721.0</ele><time>2026-04-19T07:04:39Z</time></trkpt><trkpt lat="45.80895176030357" lon="8.494930165013464"><ele>721.0</ele><time>2026-04-19T07:04:40.999Z</time></trkpt><trkpt lat="45.809049921170086" lon="8.494859829573896"><ele>721.0</ele><time>2026-04-19T07:04:43.999Z</time></trkpt><trkpt lat="45.80912715830691" lon="8.49480509600286"><ele>721.0</ele><time>2026-04-19T07:04:45.999Z</time></trkpt><trkpt lat="45.809274392187724" lon="8.494734937973755"><ele>722.1999999999999</ele><time>2026-04-19T07:04:47.999Z</time></trkpt><trkpt lat="45.80938013636844" lon="8.494676459000852"><ele>723.4</ele><time>2026-04-19T07:04:49.999Z</time></trkpt><trkpt lat="45.80949730772803" lon="8.49463189013783"><ele>724.6</ele><time>2026-04-19T07:04:51.999Z</time></trkpt><trkpt lat="45.809600566730786" lon="8.494699071411869"><ele>725.8</ele><time>2026-04-19T07:04:53.999Z</time></trkpt><trkpt lat="45.809647321647994" lon="8.494765512755624"><ele>727.0</ele><time>2026-04-19T07:04:55.999Z</time></trkpt><trkpt lat="45.809695450129" lon="8.494825315432536"><ele>727.0</ele><time>2026-04-19T07:04:57.999Z</time></trkpt><trkpt lat="45.80977901331279" lon="8.494862683832308"><ele>727.0</ele><time>2026-04-19T07:05:00.999Z</time></trkpt><trkpt lat="45.80985006161584" lon="8.494835834949331"><ele>727.0</ele><time>2026-04-19T07:05:02.999Z</time></trkpt><trkpt lat="45.80991777017357" lon="8.49481518421284"><ele>727.0</ele><time>2026-04-19T07:05:04.999Z</time></trkpt><trkpt lat="45.8099966306151" lon="8.494807534491025"><ele>727.0</ele><time>2026-04-19T07:05:06.999Z</time></trkpt><trkpt lat="45.81006637666415" lon="8.494761198174254"><ele>727.0</ele><time>2026-04-19T07:05:08.999Z</time></trkpt><trkpt lat="45.810130958570824" lon="8.49473844124614"><ele>730.8333333333334</ele><time>2026-04-19T07:05:11.999Z</time></trkpt><trkpt lat="45.81018967526491" lon="8.494677028918282"><ele>734.6666666666667</ele><time>2026-04-19T07:05:14.999Z</time></trkpt><trkpt lat="45.8102847299709" lon="8.494611903874837"><ele>738.5</ele><time>2026-04-19T07:05:17.999Z</time></trkpt><trkpt lat="45.81035035757393" lon="8.494597712196171"><ele>742.3333333333334</ele><time>2026-04-19T07:05:20.998Z</time></trkpt><trkpt lat="45.810407411278455" lon="8.494541526095565"><ele>746.1666666666666</ele><time>2026-04-19T07:05:23.998Z</time></trkpt><trkpt lat="45.81045967290752" lon="8.494466156293447"><ele>750.0</ele><time>2026-04-19T07:05:25.998Z</time></trkpt><trkpt lat="45.81051935839287" lon="8.494542461208695"><ele>750.0</ele><time>2026-04-19T07:05:28.998Z</time></trkpt><trkpt lat="45.810518803191826" lon="8.49465724281612"><ele>750.0</ele><time>2026-04-19T07:05:30.998Z</time></trkpt><trkpt lat="45.81053711640586" lon="8.494750851409988"><ele>750.0</ele><time>2026-04-19T07:05:32.998Z</time></trkpt><trkpt lat="45.81057854153677" lon="8.494825023579024"><ele>750.0</ele><time>2026-04-19T07:05:34.998Z</time></trkpt><trkpt lat="45.810634863959336" lon="8.49487700837207"><ele>750.0</ele><time>2026-04-19T07:05:36.998Z</time></trkpt><trkpt lat="45.81072658645927" lon="8.494920024218802"><ele>750.0</ele><time>2026-04-19T07:05:38.998Z</time></trkpt><trkpt lat="45.81076820801408" lon="8.494992277300879"><ele>750.0</ele><time>2026-04-19T07:05:40.998Z</time></trkpt><trkpt lat="45.81071334550659" lon="8.495111983268803"><ele>750.0</ele><time>2026-04-19T07:05:42.998Z</time></trkpt><trkpt lat="45.810641336795705" lon="8.495173522111985"><ele>750.0</ele><time>2026-04-19T07:05:44.998Z</time></trkpt><trkpt lat="45.81059163130283" lon="8.495279979844554"><ele>750.0</ele><time>2026-04-19T07:05:46.998Z</time></trkpt><trkpt lat="45.81058645580836" lon="8.49540458711521"><ele>750.0</ele><time>2026-04-19T07:05:48.998Z</time></trkpt><trkpt lat="45.81062190502811" lon="8.495513250347683"><ele>750.0</ele><time>2026-04-19T07:05:50.998Z</time></trkpt><trkpt lat="45.81061570144936" lon="8.495614485031284"><ele>750.0</ele><time>2026-04-19T07:05:52.998Z</time></trkpt><trkpt lat="45.8106188480826" lon="8.495724750515032"><ele>749.6666666666666</ele><time>2026-04-19T07:05:54.998Z</time></trkpt><trkpt lat="45.81059029648108" lon="8.495864711252153"><ele>749.3333333333334</ele><time>2026-04-19T07:05:57.998Z</time></trkpt><trkpt lat="45.810570688134064" lon="8.495971620658276"><ele>749.0</ele><time>2026-04-19T07:05:59.998Z</time></trkpt><trkpt lat="45.81057408390748" lon="8.49606575235893"><ele>748.6666666666667</ele><time>2026-04-19T07:06:01.997Z</time></trkpt><trkpt lat="45.81058196972215" lon="8.49618373029447"><ele>748.3333333333334</ele><time>2026-04-19T07:06:03.997Z</time></trkpt><trkpt lat="45.810639605524514" lon="8.496268660677488"><ele>748.0</ele><time>2026-04-19T07:06:05.997Z</time></trkpt><trkpt lat="45.81069009557158" lon="8.496324863467413"><ele>747.1428571428571</ele><time>2026-04-19T07:06:07.997Z</time></trkpt><trkpt lat="45.8107790879261" lon="8.496345532654582"><ele>746.2857142857143</ele><time>2026-04-19T07:06:09.997Z</time></trkpt><trkpt lat="45.81084630764157" lon="8.496366019630228"><ele>745.4285714285714</ele><time>2026-04-19T07:06:12Z</time></trkpt><trkpt lat="45.810913264432344" lon="8.496381925886254"><ele>744.5714285714286</ele><time>2026-04-19T07:06:14Z</time></trkpt><trkpt lat="45.810972052742144" lon="8.49642439257307"><ele>743.7142857142858</ele><time>2026-04-19T07:06:16Z</time></trkpt><trkpt lat="45.81104947627513" lon="8.496454589710046"><ele>742.8571428571429</ele><time>2026-04-19T07:06:19Z</time></trkpt><trkpt lat="45.811116008840045" lon="8.49645135821667"><ele>742.0</ele><time>2026-04-19T07:06:21Z</time></trkpt><trkpt lat="45.811179568717485" lon="8.496454267712506"><ele>746.0</ele><time>2026-04-19T07:06:23Z</time></trkpt><trkpt lat="45.81124603354144" lon="8.496465722179671"><ele>750.0</ele><time>2026-04-19T07:06:25Z</time></trkpt><trkpt lat="45.81131034148925" lon="8.496498562546735"><ele>754.0</ele><time>2026-04-19T07:06:27Z</time></trkpt><trkpt lat="45.81137347600534" lon="8.496574492963589"><ele>758.0</ele><time>2026-04-19T07:06:29Z</time></trkpt><trkpt lat="45.81139066524119" lon="8.4966780024109"><ele>762.0</ele><time>2026-04-19T07:06:31Z</time></trkpt><trkpt lat="45.81136312239648" lon="8.496793171702347"><ele>766.0</ele><time>2026-04-19T07:06:33Z</time></trkpt><trkpt lat="45.81131412030238" lon="8.496924986299986"><ele>766.0</ele><time>2026-04-19T07:06:35Z</time></trkpt><trkpt lat="45.81127270581416" lon="8.49703950108826"><ele>766.0</ele><time>2026-04-19T07:06:37Z</time></trkpt><trkpt lat="45.811212217426814" lon="8.497174125958193"><ele>766.0</ele><time>2026-04-19T07:06:39Z</time></trkpt><trkpt lat="45.811186313946536" lon="8.497264690862815"><ele>766.0</ele><time>2026-04-19T07:06:40Z</time></trkpt><trkpt lat="45.81115198588153" lon="8.497395215685536"><ele>766.0</ele><time>2026-04-19T07:06:42Z</time></trkpt><trkpt lat="45.81115664258251" lon="8.49757025763301"><ele>765.0</ele><time>2026-04-19T07:06:44Z</time></trkpt><trkpt lat="45.81124740517004" lon="8.497648385299454"><ele>764.0</ele><time>2026-04-19T07:06:46Z</time></trkpt><trkpt lat="45.811311610267914" lon="8.497713195467428"><ele>763.0</ele><time>2026-04-19T07:06:47.999Z</time></trkpt><trkpt lat="45.81140293973722" lon="8.4977630995057"><ele>762.0</ele><time>2026-04-19T07:06:49.999Z</time></trkpt><trkpt lat="45.811523258564954" lon="8.497825761687848"><ele>761.0</ele><time>2026-04-19T07:06:51.999Z</time></trkpt><trkpt lat="45.81158388953617" lon="8.497901879685905"><ele>763.5999999999999</ele><time>2026-04-19T07:06:52.999Z</time></trkpt><trkpt lat="45.81164167984908" lon="8.497973377891958"><ele>766.2</ele><time>2026-04-19T07:06:53.999Z</time></trkpt><trkpt lat="45.81174479221375" lon="8.498058542917802"><ele>768.8</ele><time>2026-04-19T07:06:55.999Z</time></trkpt><trkpt lat="45.811804621519585" lon="8.498094348731453"><ele>771.4000000000001</ele><time>2026-04-19T07:06:56.999Z</time></trkpt><trkpt lat="45.81190081545984" lon="8.498122420464984"><ele>774.0</ele><time>2026-04-19T07:06:58.999Z</time></trkpt><trkpt lat="45.811990429297076" lon="8.498174704226278"><ele>774.0</ele><time>2026-04-19T07:07:00.999Z</time></trkpt><trkpt lat="45.81201508152918" lon="8.49829723721561"><ele>774.0</ele><time>2026-04-19T07:07:02.999Z</time></trkpt><trkpt lat="45.812055242925986" lon="8.498426374814903"><ele>774.0</ele><time>2026-04-19T07:07:06.999Z</time></trkpt><trkpt lat="45.81209888788932" lon="8.498515322968293"><ele>774.0</ele><time>2026-04-19T07:07:08.999Z</time></trkpt><trkpt lat="45.812159807251206" lon="8.498607922602734"><ele>774.0</ele><time>2026-04-19T07:07:10.999Z</time></trkpt><trkpt lat="45.812231790215414" lon="8.498686219517438"><ele>774.0</ele><time>2026-04-19T07:07:12.999Z</time></trkpt><trkpt lat="45.81230151853266" lon="8.49876043495296"><ele>772.0</ele><time>2026-04-19T07:07:14.999Z</time></trkpt><trkpt lat="45.81236543471161" lon="8.498820140818717"><ele>770.0</ele><time>2026-04-19T07:07:16.999Z</time></trkpt><trkpt lat="45.8124253678244" lon="8.498920995727568"><ele>768.0</ele><time>2026-04-19T07:07:18.999Z</time></trkpt><trkpt lat="45.81249522919134" lon="8.498974730343978"><ele>766.0</ele><time>2026-04-19T07:07:20.999Z</time></trkpt><trkpt lat="45.812562858256065" lon="8.499036051624822"><ele>764.0</ele><time>2026-04-19T07:07:22.999Z</time></trkpt><trkpt lat="45.812603686022165" lon="8.499161375314145"><ele>762.0</ele><time>2026-04-19T07:07:24.999Z</time></trkpt><trkpt lat="45.81266040711803" lon="8.499255442637375"><ele>765.5</ele><time>2026-04-19T07:07:26.999Z</time></trkpt><trkpt lat="45.81274571394445" lon="8.499272341663417"><ele>769.0</ele><time>2026-04-19T07:07:28.999Z</time></trkpt><trkpt lat="45.812816779924646" lon="8.499365295948754"><ele>772.5</ele><time>2026-04-19T07:07:30.999Z</time></trkpt><trkpt lat="45.812785695315426" lon="8.499503152734441"><ele>776.0</ele><time>2026-04-19T07:07:32.998Z</time></trkpt><trkpt lat="45.81276867548125" lon="8.499609091790086"><ele>779.5</ele><time>2026-04-19T07:07:34.998Z</time></trkpt><trkpt lat="45.812756278583116" lon="8.49971648092526"><ele>783.0</ele><time>2026-04-19T07:07:36.998Z</time></trkpt><trkpt lat="45.81274715017794" lon="8.499866854064704"><ele>783.0</ele><time>2026-04-19T07:07:38.998Z</time></trkpt><trkpt lat="45.8127143990059" lon="8.500017373985404"><ele>783.0</ele><time>2026-04-19T07:07:40.998Z</time></trkpt><trkpt lat="45.8126820900241" lon="8.500148654481228"><ele>783.0</ele><time>2026-04-19T07:07:42.998Z</time></trkpt><trkpt lat="45.81267776928892" lon="8.500290242301263"><ele>783.0</ele><time>2026-04-19T07:07:44.998Z</time></trkpt><trkpt lat="45.81267159133897" lon="8.50043691141773"><ele>783.0</ele><time>2026-04-19T07:07:46.998Z</time></trkpt><trkpt lat="45.81267409010616" lon="8.50057279167446"><ele>779.6666666666666</ele><time>2026-04-19T07:07:48.998Z</time></trkpt><trkpt lat="45.81263173849271" lon="8.500653847006236"><ele>776.3333333333334</ele><time>2026-04-19T07:07:49.998Z</time></trkpt><trkpt lat="45.812577454399644" lon="8.500705409093163"><ele>773.0</ele><time>2026-04-19T07:07:50.998Z</time></trkpt><trkpt lat="45.8124901678365" lon="8.500818657635762"><ele>769.6666666666667</ele><time>2026-04-19T07:07:52.998Z</time></trkpt><trkpt lat="45.81247283839673" lon="8.500923594626386"><ele>766.3333333333334</ele><time>2026-04-19T07:07:54.998Z</time></trkpt><trkpt lat="45.81254914641179" lon="8.501000256495741"><ele>763.0</ele><time>2026-04-19T07:07:57.998Z</time></trkpt><trkpt lat="45.812612661215894" lon="8.50101668071875"><ele>764.1428571428571</ele><time>2026-04-19T07:07:59.998Z</time></trkpt><trkpt lat="45.81267695546901" lon="8.500993550296508"><ele>765.2857142857142</ele><time>2026-04-19T07:08:01.998Z</time></trkpt><trkpt lat="45.81273184514418" lon="8.500924870464015"><ele>766.4285714285714</ele><time>2026-04-19T07:08:05.998Z</time></trkpt><trkpt lat="45.81278776200604" lon="8.500846041903454"><ele>767.5714285714286</ele><time>2026-04-19T07:08:08.998Z</time></trkpt><trkpt lat="45.8128436538383" lon="8.500764380459424"><ele>768.7142857142857</ele><time>2026-04-19T07:08:11.998Z</time></trkpt><trkpt lat="45.81288621320113" lon="8.500695263697441"><ele>769.8571428571429</ele><time>2026-04-19T07:08:14.997Z</time></trkpt><trkpt lat="45.81295536294347" lon="8.50062278011042"><ele>771.0</ele><time>2026-04-19T07:08:34Z</time></trkpt><trkpt lat="45.81300465642518" lon="8.500560156617174"><ele>771.0</ele><time>2026-04-19T07:08:42Z</time></trkpt><trkpt lat="45.813053554144034" lon="8.500502536923477"><ele>771.0</ele><time>2026-04-19T07:08:49Z</time></trkpt><trkpt lat="45.813111082490494" lon="8.500448899028468"><ele>771.0</ele><time>2026-04-19T07:08:57.999Z</time></trkpt><trkpt lat="45.81316695699686" lon="8.500396941259064"><ele>771.0</ele><time>2026-04-19T07:09:04.999Z</time></trkpt><trkpt lat="45.813187453376344" lon="8.500308170363068"><ele>771.0</ele><time>2026-04-19T07:09:12.999Z</time></trkpt><trkpt lat="45.813181343623675" lon="8.500211396467977"><ele>771.0</ele><time>2026-04-19T07:09:22.999Z</time></trkpt><trkpt lat="45.813191786746295" lon="8.50010767279132"><ele>771.0</ele><time>2026-04-19T07:09:30.999Z</time></trkpt><trkpt lat="45.813219614342415" lon="8.500018276324084"><ele>773.0</ele><time>2026-04-19T07:09:47.998Z</time></trkpt><trkpt lat="45.81324365712379" lon="8.499929105314525"><ele>775.0</ele><time>2026-04-19T07:09:55.998Z</time></trkpt><trkpt lat="45.813272026814744" lon="8.499835991559289"><ele>777.0</ele><time>2026-04-19T07:10:09.998Z</time></trkpt><trkpt lat="45.81328473185466" lon="8.499746312750927"><ele>779.0</ele><time>2026-04-19T07:10:17.997Z</time></trkpt><trkpt lat="45.81329743674849" lon="8.499657457797"><ele>781.0</ele><time>2026-04-19T07:10:26Z</time></trkpt><trkpt lat="45.813339395296055" lon="8.499532317300792"><ele>783.0</ele><time>2026-04-19T07:10:56Z</time></trkpt><trkpt lat="45.813374235223314" lon="8.499392337955266"><ele>784.0</ele><time>2026-04-19T07:10:59.999Z</time></trkpt><trkpt lat="45.8134004846043" lon="8.499298644970809"><ele>785.0</ele><time>2026-04-19T07:11:01.999Z</time></trkpt><trkpt lat="45.813416431815575" lon="8.499198749081838"><ele>786.0</ele><time>2026-04-19T07:11:04.999Z</time></trkpt><trkpt lat="45.813409298164544" lon="8.499108779761922"><ele>787.0</ele><time>2026-04-19T07:11:08.999Z</time></trkpt><trkpt lat="45.81342652042446" lon="8.499015609565454"><ele>788.0</ele><time>2026-04-19T07:11:12.999Z</time></trkpt><trkpt lat="45.813420563218685" lon="8.498864673871765"><ele>789.0</ele><time>2026-04-19T07:11:15.999Z</time></trkpt><trkpt lat="45.81345323168897" lon="8.498721134212536"><ele>789.8333333333334</ele><time>2026-04-19T07:11:18.999Z</time></trkpt><trkpt lat="45.813469035452854" lon="8.498630058299913"><ele>790.6666666666667</ele><time>2026-04-19T07:11:20.999Z</time></trkpt><trkpt lat="45.81348544137533" lon="8.498483663177227"><ele>791.5</ele><time>2026-04-19T07:11:23.999Z</time></trkpt><trkpt lat="45.813540907630575" lon="8.498436769449976"><ele>792.3333333333334</ele><time>2026-04-19T07:11:26.999Z</time></trkpt><trkpt lat="45.813615076266515" lon="8.498477434527183"><ele>793.1666666666667</ele><time>2026-04-19T07:12:01.998Z</time></trkpt><trkpt lat="45.81367887728775" lon="8.498513604547536"><ele>794.0</ele><time>2026-04-19T07:12:04.998Z</time></trkpt><trkpt lat="45.81374859028463" lon="8.498557760988986"><ele>795.0000000000001</ele><time>2026-04-19T07:12:07.998Z</time></trkpt><trkpt lat="45.813811335459285" lon="8.498576834837014"><ele>796.0</ele><time>2026-04-19T07:12:11.998Z</time></trkpt><trkpt lat="45.81386555027169" lon="8.498635006256611"><ele>797.0</ele><time>2026-04-19T07:12:15.998Z</time></trkpt><trkpt lat="45.81393816943258" lon="8.498682747949697"><ele>798.0</ele><time>2026-04-19T07:12:19.998Z</time></trkpt><trkpt lat="45.8140005818252" lon="8.498745863730562"><ele>799.0000000000001</ele><time>2026-04-19T07:12:21.997Z</time></trkpt><trkpt lat="45.81407560527491" lon="8.498819930632477"><ele>800.0</ele><time>2026-04-19T07:12:24.997Z</time></trkpt><trkpt lat="45.81413579990125" lon="8.498884822510677"><ele>801.5000000000001</ele><time>2026-04-19T07:12:26.997Z</time></trkpt><trkpt lat="45.81419706933106" lon="8.498949683081593"><ele>803.0</ele><time>2026-04-19T07:12:29Z</time></trkpt><trkpt lat="45.81427268891612" lon="8.49902166627919"><ele>804.5</ele><time>2026-04-19T07:12:31Z</time></trkpt><trkpt lat="45.81430882726069" lon="8.499110301545713"><ele>806.0</ele><time>2026-04-19T07:12:33Z</time></trkpt><trkpt lat="45.814355520345664" lon="8.499180766607774"><ele>807.5000000000001</ele><time>2026-04-19T07:12:35Z</time></trkpt><trkpt lat="45.814410666110696" lon="8.499253828083795"><ele>809.0</ele><time>2026-04-19T07:12:37Z</time></trkpt><trkpt lat="45.81447894671987" lon="8.49930511960745"><ele>810.1428571428571</ele><time>2026-04-19T07:12:39Z</time></trkpt><trkpt lat="45.81453753299663" lon="8.499359386836227"><ele>811.2857142857143</ele><time>2026-04-19T07:12:41Z</time></trkpt><trkpt lat="45.8146228686602" lon="8.499370567536696"><ele>812.4285714285713</ele><time>2026-04-19T07:12:44Z</time></trkpt><trkpt lat="45.8147020936075" lon="8.499397990921251"><ele>813.5714285714286</ele><time>2026-04-19T07:12:46Z</time></trkpt><trkpt lat="45.81476972681377" lon="8.499401481970828"><ele>814.7142857142857</ele><time>2026-04-19T07:12:48Z</time></trkpt><trkpt lat="45.814835488602185" lon="8.499391651426128"><ele>815.8571428571428</ele><time>2026-04-19T07:12:51Z</time></trkpt><trkpt lat="45.814900716632295" lon="8.499381331281896"><ele>817.0</ele><time>2026-04-19T07:12:54Z</time></trkpt><trkpt lat="45.81497821705446" lon="8.499366828359245"><ele>816.9999999999999</ele><time>2026-04-19T07:12:58Z</time></trkpt><trkpt lat="45.81504092195059" lon="8.499356839463417"><ele>817.0</ele><time>2026-04-19T07:12:59.999Z</time></trkpt><trkpt lat="45.81511673001838" lon="8.499340083128772"><ele>817.0</ele><time>2026-04-19T07:13:02.999Z</time></trkpt><trkpt lat="45.8151966259723" lon="8.49931513585324"><ele>817.0</ele><time>2026-04-19T07:13:05.999Z</time></trkpt><trkpt lat="45.81526790602974" lon="8.499248956752567"><ele>816.9999999999999</ele><time>2026-04-19T07:13:08.999Z</time></trkpt><trkpt lat="45.8153198508894" lon="8.4991932266164"><ele>817.0</ele><time>2026-04-19T07:13:10.999Z</time></trkpt><trkpt lat="45.81537684597678" lon="8.499105105290889"><ele>818.9999999999999</ele><time>2026-04-19T07:13:13.999Z</time></trkpt><trkpt lat="45.81545176612955" lon="8.499046489707824"><ele>821.0</ele><time>2026-04-19T07:13:16.999Z</time></trkpt><trkpt lat="45.81553443067686" lon="8.499013484339534"><ele>823.0</ele><time>2026-04-19T07:13:19.999Z</time></trkpt><trkpt lat="45.8156161744356" lon="8.4990454001889"><ele>825.0</ele><time>2026-04-19T07:13:22.999Z</time></trkpt><trkpt lat="45.81562720983861" lon="8.499164636578055"><ele>826.9999999999999</ele><time>2026-04-19T07:13:25.999Z</time></trkpt><trkpt lat="45.815635576106864" lon="8.499272279986013"><ele>829.0</ele><time>2026-04-19T07:13:28.999Z</time></trkpt><trkpt lat="45.81563618156104" lon="8.499387776695448"><ele>829.0</ele><time>2026-04-19T07:13:31.999Z</time></trkpt><trkpt lat="45.81563607590623" lon="8.499486889617776"><ele>829.0</ele><time>2026-04-19T07:13:34.999Z</time></trkpt><trkpt lat="45.81564681040783" lon="8.499588413769853"><ele>829.0</ele><time>2026-04-19T07:13:37.999Z</time></trkpt><trkpt lat="45.81565760960012" lon="8.499693915653625"><ele>829.0</ele><time>2026-04-19T07:13:41.998Z</time></trkpt><trkpt lat="45.81567044597876" lon="8.499808632342708"><ele>829.0</ele><time>2026-04-19T07:13:45.998Z</time></trkpt><trkpt lat="45.81570053069371" lon="8.499903634696722"><ele>829.0</ele><time>2026-04-19T07:13:49.998Z</time></trkpt><trkpt lat="45.815726698079715" lon="8.50000150718047"><ele>829.0</ele><time>2026-04-19T07:13:54.998Z</time></trkpt><trkpt lat="45.815742754948545" lon="8.50010199850428"><ele>830.7142857142857</ele><time>2026-04-19T07:13:58.998Z</time></trkpt><trkpt lat="45.8157671394325" lon="8.500202446941497"><ele>832.4285714285713</ele><time>2026-04-19T07:14:02.998Z</time></trkpt><trkpt lat="45.815789809716975" lon="8.500302908135403"><ele>834.1428571428571</ele><time>2026-04-19T07:14:06.998Z</time></trkpt><trkpt lat="45.81582235555894" lon="8.500392280112665"><ele>835.8571428571429</ele><time>2026-04-19T07:14:10.998Z</time></trkpt><trkpt lat="45.815864715185356" lon="8.500477805094647"><ele>837.5714285714286</ele><time>2026-04-19T07:14:14.998Z</time></trkpt><trkpt lat="45.81589722654509" lon="8.500589306415167"><ele>839.2857142857143</ele><time>2026-04-19T07:14:18.998Z</time></trkpt><trkpt lat="45.815936316747354" lon="8.500669768461895"><ele>841.0</ele><time>2026-04-19T07:14:22.997Z</time></trkpt><trkpt lat="45.815985291524065" lon="8.500744223373927"><ele>844.3333333333333</ele><time>2026-04-19T07:14:26.997Z</time></trkpt><trkpt lat="45.816054272437476" lon="8.500828081523121"><ele>847.6666666666666</ele><time>2026-04-19T07:18:17.998Z</time></trkpt><trkpt lat="45.81612244118269" lon="8.500877198948855"><ele>851.0</ele><time>2026-04-19T07:18:20.998Z</time></trkpt><trkpt lat="45.816210362219216" lon="8.500935173503676"><ele>854.3333333333333</ele><time>2026-04-19T07:18:23.998Z</time></trkpt><trkpt lat="45.81628153297948" lon="8.500992886525276"><ele>857.6666666666666</ele><time>2026-04-19T07:18:25.998Z</time></trkpt><trkpt lat="45.816343465619056" lon="8.501080530965291"><ele>861.0</ele><time>2026-04-19T07:18:27.997Z</time></trkpt><trkpt lat="45.8164140642465" lon="8.501137638234093"><ele>861.0</ele><time>2026-04-19T07:18:29.997Z</time></trkpt><trkpt lat="45.816501388532124" lon="8.501198531813074"><ele>860.9999999999999</ele><time>2026-04-19T07:18:31.997Z</time></trkpt><trkpt lat="45.81658068586376" lon="8.501266078033678"><ele>860.9999999999999</ele><time>2026-04-19T07:18:33.997Z</time></trkpt><trkpt lat="45.81665722544282" lon="8.501307026755638"><ele>861.0</ele><time>2026-04-19T07:18:35.997Z</time></trkpt><trkpt lat="45.816745325411844" lon="8.501355006463296"><ele>861.0</ele><time>2026-04-19T07:18:37.997Z</time></trkpt><trkpt lat="45.81684528080136" lon="8.501354837928453"><ele>860.1999999999999</ele><time>2026-04-19T07:18:39.997Z</time></trkpt><trkpt lat="45.81693508630656" lon="8.501355313310727"><ele>859.3999999999999</ele><time>2026-04-19T07:18:41.997Z</time></trkpt><trkpt lat="45.817023008725975" lon="8.501372163228066"><ele>858.6</ele><time>2026-04-19T07:18:43.997Z</time></trkpt><trkpt lat="45.81711123015614" lon="8.501378746569326"><ele>857.8</ele><time>2026-04-19T07:18:46Z</time></trkpt><trkpt lat="45.81721243245665" lon="8.501382619439358"><ele>857.0</ele><time>2026-04-19T07:18:48Z</time></trkpt><trkpt lat="45.81732593661156" lon="8.50140251073867"><ele>857.0000000000001</ele><time>2026-04-19T07:18:50Z</time></trkpt><trkpt lat="45.81741313057358" lon="8.501463102883276"><ele>857.0</ele><time>2026-04-19T07:18:52Z</time></trkpt><trkpt lat="45.81750026311615" lon="8.50150335433456"><ele>857.0</ele><time>2026-04-19T07:18:54Z</time></trkpt><trkpt lat="45.817588944203344" lon="8.501553775795106"><ele>857.0</ele><time>2026-04-19T07:18:56Z</time></trkpt><trkpt lat="45.81766852249211" lon="8.501534815460662"><ele>857.0000000000001</ele><time>2026-04-19T07:18:58Z</time></trkpt><trkpt lat="45.817731897112665" lon="8.501541415060945"><ele>857.0</ele><time>2026-04-19T07:19:00Z</time></trkpt><trkpt lat="45.81780211610424" lon="8.501526018371935"><ele>857.1666666666667</ele><time>2026-04-19T07:19:02Z</time></trkpt><trkpt lat="45.817901584346785" lon="8.501513902702628"><ele>857.3333333333334</ele><time>2026-04-19T07:19:05Z</time></trkpt><trkpt lat="45.81798243525841" lon="8.501545835179066"><ele>857.5</ele><time>2026-04-19T07:19:08Z</time></trkpt><trkpt lat="45.81801598139719" lon="8.501632402451932"><ele>857.6666666666667</ele><time>2026-04-19T07:19:10Z</time></trkpt><trkpt lat="45.81806723572348" lon="8.501737179610572"><ele>857.8333333333334</ele><time>2026-04-19T07:19:12.999Z</time></trkpt><trkpt lat="45.818112145099846" lon="8.501808865524284"><ele>858.0</ele><time>2026-04-19T07:19:14.999Z</time></trkpt><trkpt lat="45.818185761085914" lon="8.50190606002981"><ele>858.0</ele><time>2026-04-19T07:19:17.999Z</time></trkpt><trkpt lat="45.818259587392625" lon="8.501987959813155"><ele>858.0</ele><time>2026-04-19T07:19:20.999Z</time></trkpt><trkpt lat="45.818304420583615" lon="8.502067123212427"><ele>858.0</ele><time>2026-04-19T07:19:22.999Z</time></trkpt><trkpt lat="45.818356410416264" lon="8.502133534783578"><ele>858.0</ele><time>2026-04-19T07:19:24.999Z</time></trkpt><trkpt lat="45.81841726650337" lon="8.502220407383861"><ele>858.0</ele><time>2026-04-19T07:19:27.999Z</time></trkpt><trkpt lat="45.81846733951049" lon="8.502285233212245"><ele>858.0</ele><time>2026-04-19T07:19:29.999Z</time></trkpt><trkpt lat="45.818513936005395" lon="8.502368820906563"><ele>859.5</ele><time>2026-04-19T07:19:31.999Z</time></trkpt><trkpt lat="45.818563147030176" lon="8.50242972157122"><ele>861.0</ele><time>2026-04-19T07:19:33.999Z</time></trkpt><trkpt lat="45.81863128775335" lon="8.502519807834478"><ele>862.5</ele><time>2026-04-19T07:19:36.999Z</time></trkpt><trkpt lat="45.81867178170592" lon="8.502632682426212"><ele>864.0</ele><time>2026-04-19T07:19:39.999Z</time></trkpt><trkpt lat="45.81870195084053" lon="8.502719089593219"><ele>865.5</ele><time>2026-04-19T07:19:41.999Z</time></trkpt><trkpt lat="45.81872081832014" lon="8.502829491977693"><ele>867.0</ele><time>2026-04-19T07:19:44.999Z</time></trkpt><trkpt lat="45.8187434840475" lon="8.502922519818926"><ele>869.0</ele><time>2026-04-19T07:19:47.999Z</time></trkpt><trkpt lat="45.8187891614414" lon="8.503033275999453"><ele>871.0</ele><time>2026-04-19T07:19:50.999Z</time></trkpt><trkpt lat="45.8188220912168" lon="8.503116412062447"><ele>873.0</ele><time>2026-04-19T07:19:53.999Z</time></trkpt><trkpt lat="45.81884667651012" lon="8.503204451674199"><ele>875.0</ele><time>2026-04-19T07:19:56.998Z</time></trkpt><trkpt lat="45.81887799367021" lon="8.50328604930509"><ele>877.0</ele><time>2026-04-19T07:19:58.998Z</time></trkpt><trkpt lat="45.81894559915829" lon="8.503381220319602"><ele>879.0</ele><time>2026-04-19T07:20:01.998Z</time></trkpt><trkpt lat="45.81902708560314" lon="8.503414898856555"><ele>879.0</ele><time>2026-04-19T07:20:03.998Z</time></trkpt><trkpt lat="45.81909288647056" lon="8.503391287034093"><ele>879.0</ele><time>2026-04-19T07:20:05.998Z</time></trkpt><trkpt lat="45.81917427357601" lon="8.503341714623568"><ele>879.0</ele><time>2026-04-19T07:20:08.998Z</time></trkpt><trkpt lat="45.81924579117917" lon="8.503294884697588"><ele>879.0</ele><time>2026-04-19T07:20:10.998Z</time></trkpt><trkpt lat="45.819318901537066" lon="8.503259313043943"><ele>879.0</ele><time>2026-04-19T07:20:13.998Z</time></trkpt><trkpt lat="45.81937933555748" lon="8.503221429311884"><ele>879.0</ele><time>2026-04-19T07:20:16.998Z</time></trkpt><trkpt lat="45.819452430208415" lon="8.503193617015722"><ele>879.8333333333334</ele><time>2026-04-19T07:20:19.998Z</time></trkpt><trkpt lat="45.81953283153694" lon="8.503141439947456"><ele>880.6666666666667</ele><time>2026-04-19T07:20:21.998Z</time></trkpt><trkpt lat="45.81959704748793" lon="8.50308661078091"><ele>881.5</ele><time>2026-04-19T07:20:23.998Z</time></trkpt><trkpt lat="45.819671149306146" lon="8.502995849623632"><ele>882.3333333333334</ele><time>2026-04-19T07:20:26.998Z</time></trkpt><trkpt lat="45.81973397726318" lon="8.502901417161908"><ele>883.1666666666667</ele><time>2026-04-19T07:20:28.998Z</time></trkpt><trkpt lat="45.81979652744186" lon="8.502841098446439"><ele>884.0</ele><time>2026-04-19T07:20:30.998Z</time></trkpt><trkpt lat="45.81984431770425" lon="8.502755919144395"><ele>884.0000000000001</ele><time>2026-04-19T07:20:32.998Z</time></trkpt><trkpt lat="45.81988720201679" lon="8.502678445788806"><ele>884.0</ele><time>2026-04-19T07:20:34.998Z</time></trkpt><trkpt lat="45.81993513317046" lon="8.50261563820799"><ele>884.0</ele><time>2026-04-19T07:20:36.997Z</time></trkpt><trkpt lat="45.8199725920186" lon="8.502498027773154"><ele>884.0</ele><time>2026-04-19T07:20:38.997Z</time></trkpt><trkpt lat="45.81999634440492" lon="8.502382392668483"><ele>884.0000000000001</ele><time>2026-04-19T07:20:40.997Z</time></trkpt><trkpt lat="45.82001832221045" lon="8.50226223835084"><ele>884.0</ele><time>2026-04-19T07:20:42.997Z</time></trkpt><trkpt lat="45.820037084930654" lon="8.502159347851178"><ele>882.0</ele><time>2026-04-19T07:20:44.997Z</time></trkpt><trkpt lat="45.820037156994886" lon="8.502045463195984"><ele>880.0000000000001</ele><time>2026-04-19T07:20:46.997Z</time></trkpt><trkpt lat="45.820030154708434" lon="8.501895737901975"><ele>878.0000000000001</ele><time>2026-04-19T07:20:48.997Z</time></trkpt><trkpt lat="45.82007300023403" lon="8.501738919692"><ele>876.0</ele><time>2026-04-19T07:20:51Z</time></trkpt><trkpt lat="45.820176648752266" lon="8.5016432764167"><ele>874.0</ele><time>2026-04-19T07:20:53Z</time></trkpt><trkpt lat="45.82025473398764" lon="8.501581010025836"><ele>874.0</ele><time>2026-04-19T07:20:54Z</time></trkpt><trkpt lat="45.82033435906347" lon="8.50153619337721"><ele>874.0000000000001</ele><time>2026-04-19T07:20:55Z</time></trkpt><trkpt lat="45.82043058028128" lon="8.501464628019079"><ele>874.0000000000001</ele><time>2026-04-19T07:20:56Z</time></trkpt><trkpt lat="45.82054905563527" lon="8.501404803917683"><ele>874.0</ele><time>2026-04-19T07:20:58Z</time></trkpt><trkpt lat="45.82063949972518" lon="8.501398203705492"><ele>874.0</ele><time>2026-04-19T07:21:00Z</time></trkpt><trkpt lat="45.820708899442614" lon="8.501427420608557"><ele>873.9999999999999</ele><time>2026-04-19T07:21:02Z</time></trkpt><trkpt lat="45.82074785866415" lon="8.5015211767532"><ele>874.0</ele><time>2026-04-19T07:21:04Z</time></trkpt><trkpt lat="45.820754114512624" lon="8.501668267485167"><ele>874.0</ele><time>2026-04-19T07:21:06Z</time></trkpt><trkpt lat="45.820778693925796" lon="8.501801909813896"><ele>874.0</ele><time>2026-04-19T07:21:08Z</time></trkpt><trkpt lat="45.82080064953022" lon="8.501916107286238"><ele>873.9999999999999</ele><time>2026-04-19T07:21:10Z</time></trkpt><trkpt lat="45.82082799471541" lon="8.502009531859803"><ele>874.0</ele><time>2026-04-19T07:21:13Z</time></trkpt><trkpt lat="45.82087483678722" lon="8.502094612874957"><ele>872.6666666666666</ele><time>2026-04-19T07:21:14.999Z</time></trkpt><trkpt lat="45.820937888837456" lon="8.502202681398389"><ele>871.3333333333333</ele><time>2026-04-19T07:21:17.999Z</time></trkpt><trkpt lat="45.820991961485035" lon="8.502283261502226"><ele>870.0</ele><time>2026-04-19T07:21:19.999Z</time></trkpt><trkpt lat="45.8210573981503" lon="8.502359975338571"><ele>868.6666666666667</ele><time>2026-04-19T07:21:22.999Z</time></trkpt><trkpt lat="45.82111165025408" lon="8.502434044210608"><ele>867.3333333333334</ele><time>2026-04-19T07:21:25.999Z</time></trkpt><trkpt lat="45.82117929705514" lon="8.502501426276355"><ele>866.0</ele><time>2026-04-19T07:21:29.999Z</time></trkpt><trkpt lat="45.82123689887317" lon="8.502565645842894"><ele>866.0000000000001</ele><time>2026-04-19T07:21:32.999Z</time></trkpt><trkpt lat="45.821300823499506" lon="8.502654051050229"><ele>866.0</ele><time>2026-04-19T07:21:34.999Z</time></trkpt><trkpt lat="45.821401317222076" lon="8.502752148263642"><ele>866.0</ele><time>2026-04-19T07:21:36.999Z</time></trkpt><trkpt lat="45.82146426350056" lon="8.50279849565503"><ele>866.0</ele><time>2026-04-19T07:21:37.999Z</time></trkpt><trkpt lat="45.8215178393707" lon="8.50288017962964"><ele>866.0000000000001</ele><time>2026-04-19T07:21:39.999Z</time></trkpt><trkpt lat="45.82158881199103" lon="8.502929225678864"><ele>866.0</ele><time>2026-04-19T07:21:41.999Z</time></trkpt><trkpt lat="45.821812313078695" lon="8.503010505811737"><ele>864.6666666666667</ele><time>2026-04-19T07:21:42.999Z</time></trkpt><trkpt lat="45.82187663798262" lon="8.502993673344115"><ele>863.3333333333334</ele><time>2026-04-19T07:21:43.999Z</time></trkpt><trkpt lat="45.82193767182976" lon="8.502943338668546"><ele>862.0</ele><time>2026-04-19T07:21:44.999Z</time></trkpt><trkpt lat="45.82199768663643" lon="8.50287548664323"><ele>860.6666666666667</ele><time>2026-04-19T07:21:45.999Z</time></trkpt><trkpt lat="45.822061825687285" lon="8.502785038277116"><ele>859.3333333333334</ele><time>2026-04-19T07:21:46.999Z</time></trkpt><trkpt lat="45.82208484680258" lon="8.50265808891496"><ele>858.0</ele><time>2026-04-19T07:21:47.999Z</time></trkpt><trkpt lat="45.822069880341516" lon="8.50253667073653"><ele>856.8</ele><time>2026-04-19T07:21:48.999Z</time></trkpt><trkpt lat="45.822045012355616" lon="8.502442451713291"><ele>855.5999999999999</ele><time>2026-04-19T07:21:50.999Z</time></trkpt><trkpt lat="45.822117095299674" lon="8.502477088912137"><ele>854.4000000000001</ele><time>2026-04-19T07:21:52.999Z</time></trkpt><trkpt lat="45.82223299428428" lon="8.502590588682331"><ele>853.2</ele><time>2026-04-19T07:21:54.999Z</time></trkpt><trkpt lat="45.82230493179489" lon="8.5026579434552"><ele>852.0</ele><time>2026-04-19T07:21:55.999Z</time></trkpt><trkpt lat="45.822365808759145" lon="8.502726090998335"><ele>852.0</ele><time>2026-04-19T07:21:56.999Z</time></trkpt><trkpt lat="45.82244559961266" lon="8.502775912078533"><ele>852.0</ele><time>2026-04-19T07:21:57.998Z</time></trkpt><trkpt lat="45.822543535150864" lon="8.502796054294663"><ele>852.0</ele><time>2026-04-19T07:21:58.998Z</time></trkpt><trkpt lat="45.82261503444771" lon="8.502858023823958"><ele>852.0</ele><time>2026-04-19T07:21:59.998Z</time></trkpt><trkpt lat="45.82265959225015" lon="8.502951668461556"><ele>852.0</ele><time>2026-04-19T07:22:00.998Z</time></trkpt><trkpt lat="45.82267587254366" lon="8.503060927658854"><ele>852.0</ele><time>2026-04-19T07:22:01.998Z</time></trkpt><trkpt lat="45.822701421211626" lon="8.503157369063407"><ele>848.5</ele><time>2026-04-19T07:22:02.998Z</time></trkpt><trkpt lat="45.82273981169504" lon="8.503259941257818"><ele>845.0</ele><time>2026-04-19T07:22:03.998Z</time></trkpt><trkpt lat="45.822780715776844" lon="8.503361384672715"><ele>841.5</ele><time>2026-04-19T07:22:04.998Z</time></trkpt><trkpt lat="45.82282090989659" lon="8.503460570137198"><ele>838.0</ele><time>2026-04-19T07:22:05.998Z</time></trkpt><trkpt lat="45.82286585518341" lon="8.503581399049907"><ele>834.5</ele><time>2026-04-19T07:22:06.998Z</time></trkpt><trkpt lat="45.82291087157526" lon="8.5036891450085"><ele>831.0</ele><time>2026-04-19T07:22:07.998Z</time></trkpt><trkpt lat="45.822953852957134" lon="8.503804972551631"><ele>831.0</ele><time>2026-04-19T07:22:08.998Z</time></trkpt><trkpt lat="45.82301190521331" lon="8.50390501545379"><ele>831.0</ele><time>2026-04-19T07:22:09.998Z</time></trkpt><trkpt lat="45.82304084885291" lon="8.504095678551915"><ele>831.0</ele><time>2026-04-19T07:22:11.998Z</time></trkpt><trkpt lat="45.82301707489216" lon="8.504203550763371"><ele>831.0</ele><time>2026-04-19T07:22:12.998Z</time></trkpt><trkpt lat="45.82300549635285" lon="8.504309625976234"><ele>831.0</ele><time>2026-04-19T07:22:13.998Z</time></trkpt><trkpt lat="45.82303020236215" lon="8.504430287202899"><ele>831.0</ele><time>2026-04-19T07:22:14.998Z</time></trkpt><trkpt lat="45.82304068601043" lon="8.504551646111818"><ele>831.0</ele><time>2026-04-19T07:22:15.998Z</time></trkpt><trkpt lat="45.82308992248861" lon="8.504697123184178"><ele>831.0</ele><time>2026-04-19T07:22:17.998Z</time></trkpt><trkpt lat="45.82315457380152" lon="8.504872053956733"><ele>831.0</ele><time>2026-04-19T07:22:19.998Z</time></trkpt><trkpt lat="45.82319420902673" lon="8.504951395857791"><ele>831.0</ele><time>2026-04-19T07:22:20.998Z</time></trkpt><trkpt lat="45.82327474105701" lon="8.50501706964617"><ele>831.0</ele><time>2026-04-19T07:22:21.998Z</time></trkpt><trkpt lat="45.823342844271416" lon="8.505085120471222"><ele>831.0</ele><time>2026-04-19T07:22:22.998Z</time></trkpt><trkpt lat="45.823401500417084" lon="8.505168117465127"><ele>831.0</ele><time>2026-04-19T07:22:23.998Z</time></trkpt><trkpt lat="45.82345545310294" lon="8.505240218509627"><ele>831.0</ele><time>2026-04-19T07:22:24.998Z</time></trkpt><trkpt lat="45.82346276313909" lon="8.505408684899868"><ele>831.0</ele><time>2026-04-19T07:22:26.998Z</time></trkpt><trkpt lat="45.82340544563044" lon="8.505484317687152"><ele>831.0</ele><time>2026-04-19T07:22:28.998Z</time></trkpt><trkpt lat="45.82335217093667" lon="8.505541623000438"><ele>829.6666666666666</ele><time>2026-04-19T07:22:33.998Z</time></trkpt><trkpt lat="45.82329583125535" lon="8.505584839147879"><ele>828.3333333333333</ele><time>2026-04-19T07:22:50.997Z</time></trkpt><trkpt lat="45.82324903487507" lon="8.50568231179142"><ele>827.0</ele><time>2026-04-19T07:22:52.997Z</time></trkpt><trkpt lat="45.82319945388536" lon="8.505800124656206"><ele>825.6666666666666</ele><time>2026-04-19T07:22:54.997Z</time></trkpt><trkpt lat="45.82308770672965" lon="8.505897108914294"><ele>824.3333333333333</ele><time>2026-04-19T07:22:57Z</time></trkpt><trkpt lat="45.823020714924034" lon="8.505901299863272"><ele>823.0</ele><time>2026-04-19T07:22:58Z</time></trkpt><trkpt lat="45.82292319629799" lon="8.505977852902411"><ele>822.9999999999999</ele><time>2026-04-19T07:23:00Z</time></trkpt><trkpt lat="45.82286563670769" lon="8.50602303810557"><ele>823.0</ele><time>2026-04-19T07:23:01Z</time></trkpt><trkpt lat="45.82280745132514" lon="8.50607618335728"><ele>823.0</ele><time>2026-04-19T07:23:02Z</time></trkpt><trkpt lat="45.822755925654526" lon="8.506131543659736"><ele>823.0</ele><time>2026-04-19T07:23:03Z</time></trkpt><trkpt lat="45.822707004898376" lon="8.506194918381741"><ele>822.9999999999999</ele><time>2026-04-19T07:23:04Z</time></trkpt><trkpt lat="45.82265688778703" lon="8.506258670727851"><ele>823.0</ele><time>2026-04-19T07:23:05Z</time></trkpt><trkpt lat="45.822561055311034" lon="8.506364447308528"><ele>825.2</ele><time>2026-04-19T07:23:07Z</time></trkpt><trkpt lat="45.82250780688057" lon="8.506417501869615"><ele>827.4</ele><time>2026-04-19T07:23:08Z</time></trkpt><trkpt lat="45.8223996079515" lon="8.506435964547748"><ele>829.6</ele><time>2026-04-19T07:23:10Z</time></trkpt><trkpt lat="45.82231451737882" lon="8.506356990175309"><ele>831.8000000000001</ele><time>2026-04-19T07:23:12Z</time></trkpt><trkpt lat="45.822244406690515" lon="8.506283416283173"><ele>834.0</ele><time>2026-04-19T07:23:13Z</time></trkpt><trkpt lat="45.822174573449026" lon="8.506204040282606"><ele>834.0</ele><time>2026-04-19T07:23:14Z</time></trkpt><trkpt lat="45.82206407979157" lon="8.50609536500708"><ele>834.0</ele><time>2026-04-19T07:23:16Z</time></trkpt><trkpt lat="45.821995030306006" lon="8.506055639364238"><ele>834.0</ele><time>2026-04-19T07:23:18Z</time></trkpt><trkpt lat="45.8218908775369" lon="8.506009806730063"><ele>834.0</ele><time>2026-04-19T07:23:19.999Z</time></trkpt><trkpt lat="45.82180285431521" lon="8.505996230654087"><ele>834.0</ele><time>2026-04-19T07:23:21.999Z</time></trkpt><trkpt lat="45.821671082008066" lon="8.505983149618242"><ele>833.1666666666666</ele><time>2026-04-19T07:23:23.999Z</time></trkpt><trkpt lat="45.82157363948162" lon="8.505989742931936"><ele>832.3333333333333</ele><time>2026-04-19T07:23:25.999Z</time></trkpt><trkpt lat="45.82150964033587" lon="8.506018211007424"><ele>831.5</ele><time>2026-04-19T07:23:26.999Z</time></trkpt><trkpt lat="45.821449320592876" lon="8.506045381577964"><ele>830.6666666666666</ele><time>2026-04-19T07:23:27.999Z</time></trkpt><trkpt lat="45.821407403214955" lon="8.506159931357859"><ele>829.8333333333333</ele><time>2026-04-19T07:23:29.999Z</time></trkpt><trkpt lat="45.821420840219766" lon="8.50626537415378"><ele>829.0</ele><time>2026-04-19T07:23:31.999Z</time></trkpt><trkpt lat="45.8214048237379" lon="8.506387726041368"><ele>823.4000000000001</ele><time>2026-04-19T07:23:33.999Z</time></trkpt><trkpt lat="45.821374651916216" lon="8.506504854478534"><ele>817.8</ele><time>2026-04-19T07:23:35.999Z</time></trkpt><trkpt lat="45.821305365261075" lon="8.506614007240808"><ele>812.2</ele><time>2026-04-19T07:23:37.999Z</time></trkpt><trkpt lat="45.82121738243588" lon="8.506714264434574"><ele>806.5999999999999</ele><time>2026-04-19T07:23:39.999Z</time></trkpt><trkpt lat="45.821122561715505" lon="8.506804319962484"><ele>801.0</ele><time>2026-04-19T07:23:41.999Z</time></trkpt><trkpt lat="45.82106795741673" lon="8.506855297003701"><ele>801.0</ele><time>2026-04-19T07:23:42.999Z</time></trkpt><trkpt lat="45.82101127413652" lon="8.506905850816564"><ele>801.0</ele><time>2026-04-19T07:23:43.999Z</time></trkpt><trkpt lat="45.82091322213259" lon="8.506993615314151"><ele>801.0</ele><time>2026-04-19T07:23:45.999Z</time></trkpt><trkpt lat="45.82082096639691" lon="8.507076191539392"><ele>801.0</ele><time>2026-04-19T07:23:47.999Z</time></trkpt><trkpt lat="45.82076379002328" lon="8.5071273687516"><ele>801.0</ele><time>2026-04-19T07:23:48.999Z</time></trkpt><trkpt lat="45.8206688944641" lon="8.507220558677583"><ele>801.1666666666666</ele><time>2026-04-19T07:23:50.999Z</time></trkpt><trkpt lat="45.82061438666298" lon="8.507272608321562"><ele>801.3333333333333</ele><time>2026-04-19T07:23:51.999Z</time></trkpt><trkpt lat="45.82051313556189" lon="8.50736683265191"><ele>801.5</ele><time>2026-04-19T07:23:53.999Z</time></trkpt><trkpt lat="45.8204561745462" lon="8.507421959247543"><ele>801.6666666666666</ele><time>2026-04-19T07:23:54.999Z</time></trkpt><trkpt lat="45.8203943203084" lon="8.507490606232826"><ele>801.8333333333333</ele><time>2026-04-19T07:23:55.999Z</time></trkpt><trkpt lat="45.8203165574951" lon="8.507611327967036"><ele>802.0</ele><time>2026-04-19T07:23:57.999Z</time></trkpt><trkpt lat="45.82027929611794" lon="8.507694625530139"><ele>801.9999999999999</ele><time>2026-04-19T07:23:58.999Z</time></trkpt><trkpt lat="45.82024443942475" lon="8.507814301623398"><ele>802.0</ele><time>2026-04-19T07:24:00.998Z</time></trkpt><trkpt lat="45.82021193560153" lon="8.507947376024172"><ele>802.0</ele><time>2026-04-19T07:24:02.998Z</time></trkpt><trkpt lat="45.82020188319114" lon="8.508087581004656"><ele>802.0</ele><time>2026-04-19T07:24:04.998Z</time></trkpt><trkpt lat="45.82017206846905" lon="8.508190485281254"><ele>801.9999999999999</ele><time>2026-04-19T07:24:06.998Z</time></trkpt><trkpt lat="45.8201575237542" lon="8.508279005369566"><ele>802.0</ele><time>2026-04-19T07:24:08.998Z</time></trkpt><trkpt lat="45.8201377491051" lon="8.50838374603614"><ele>801.4999999999999</ele><time>2026-04-19T07:24:11.998Z</time></trkpt><trkpt lat="45.82010886103661" lon="8.508485281876522"><ele>801.0</ele><time>2026-04-19T07:24:45.997Z</time></trkpt><trkpt lat="45.82003153687428" lon="8.508477780024323"><ele>800.5</ele><time>2026-04-19T07:24:58.997Z</time></trkpt><trkpt lat="45.81999135035192" lon="8.50856186667863"><ele>800.0</ele><time>2026-04-19T07:25:02Z</time></trkpt><trkpt lat="45.81993917404666" lon="8.508631536086538"><ele>799.4999999999999</ele><time>2026-04-19T07:25:05Z</time></trkpt><trkpt lat="45.8198670134269" lon="8.508710202560874"><ele>799.0</ele><time>2026-04-19T07:25:08Z</time></trkpt><trkpt lat="45.81981446948551" lon="8.508782599337245"><ele>798.9999999999999</ele><time>2026-04-19T07:25:11Z</time></trkpt><trkpt lat="45.819756638116864" lon="8.508866922090021"><ele>799.0</ele><time>2026-04-19T07:25:14Z</time></trkpt><trkpt lat="45.81971242601111" lon="8.508942053978803"><ele>799.0</ele><time>2026-04-19T07:25:17Z</time></trkpt><trkpt lat="45.81965652672939" lon="8.509022136404095"><ele>799.0</ele><time>2026-04-19T07:25:20Z</time></trkpt><trkpt lat="45.81960980774593" lon="8.509116224315648"><ele>798.9999999999999</ele><time>2026-04-19T07:25:23.999Z</time></trkpt><trkpt lat="45.81956648734503" lon="8.509219178625814"><ele>799.0</ele><time>2026-04-19T07:25:36.999Z</time></trkpt><trkpt lat="45.81951996860496" lon="8.509300346360645"><ele>798.9999999999999</ele><time>2026-04-19T07:25:38.999Z</time></trkpt><trkpt lat="45.81946963786941" lon="8.509380207311558"><ele>799.0</ele><time>2026-04-19T07:25:40.999Z</time></trkpt><trkpt lat="45.81941910587903" lon="8.509465131734913"><ele>799.0</ele><time>2026-04-19T07:25:42.999Z</time></trkpt><trkpt lat="45.819380651988915" lon="8.50957275708735"><ele>799.0</ele><time>2026-04-19T07:25:44.999Z</time></trkpt><trkpt lat="45.81931288221455" lon="8.509639104028125"><ele>798.9999999999999</ele><time>2026-04-19T07:25:46.999Z</time></trkpt><trkpt lat="45.819224468433525" lon="8.509603385394179"><ele>799.0</ele><time>2026-04-19T07:25:48.999Z</time></trkpt><trkpt lat="45.81916772999885" lon="8.509489180499177"><ele>800.3333333333333</ele><time>2026-04-19T07:25:50.999Z</time></trkpt><trkpt lat="45.81913824766863" lon="8.509394240109557"><ele>801.6666666666666</ele><time>2026-04-19T07:25:52.999Z</time></trkpt><trkpt lat="45.81911002275268" lon="8.509289583709625"><ele>803.0</ele><time>2026-04-19T07:25:54.999Z</time></trkpt><trkpt lat="45.819087737365" lon="8.509164659467181"><ele>804.3333333333333</ele><time>2026-04-19T07:25:56.999Z</time></trkpt><trkpt lat="45.81905747110943" lon="8.509058777897053"><ele>805.6666666666666</ele><time>2026-04-19T07:25:58.999Z</time></trkpt><trkpt lat="45.819041236399286" lon="8.508966659516917"><ele>807.0</ele><time>2026-04-19T07:26:00.999Z</time></trkpt><trkpt lat="45.81902774032223" lon="8.508832454245777"><ele>810.8333333333334</ele><time>2026-04-19T07:26:04.999Z</time></trkpt><trkpt lat="45.81901653908484" lon="8.5087163822035"><ele>814.6666666666667</ele><time>2026-04-19T07:26:06.998Z</time></trkpt><trkpt lat="45.818972602894625" lon="8.508615730947895"><ele>818.5</ele><time>2026-04-19T07:26:08.998Z</time></trkpt><trkpt lat="45.81890077174367" lon="8.50856422922822"><ele>822.3333333333334</ele><time>2026-04-19T07:26:10.998Z</time></trkpt><trkpt lat="45.8188267024515" lon="8.5085299079572"><ele>826.1666666666667</ele><time>2026-04-19T07:26:12.998Z</time></trkpt><trkpt lat="45.81874276756406" lon="8.508480304850858"><ele>830.0</ele><time>2026-04-19T07:26:15.998Z</time></trkpt><trkpt lat="45.818674727086275" lon="8.508444980597908"><ele>830.0000000000001</ele><time>2026-04-19T07:26:17.998Z</time></trkpt><trkpt lat="45.81861132472612" lon="8.508406098576462"><ele>830.0</ele><time>2026-04-19T07:26:19.998Z</time></trkpt><trkpt lat="45.81853867928144" lon="8.508366667869558"><ele>830.0</ele><time>2026-04-19T07:26:21.998Z</time></trkpt><trkpt lat="45.81846624704695" lon="8.508328485655944"><ele>830.0</ele><time>2026-04-19T07:26:23.998Z</time></trkpt><trkpt lat="45.818399578046616" lon="8.508289076242441"><ele>830.0000000000001</ele><time>2026-04-19T07:26:25.998Z</time></trkpt><trkpt lat="45.81833774996969" lon="8.50820135684893"><ele>830.0</ele><time>2026-04-19T07:26:28.998Z</time></trkpt><trkpt lat="45.8182883030066" lon="8.508115081930162"><ele>828.3333333333334</ele><time>2026-04-19T07:26:31.998Z</time></trkpt><trkpt lat="45.81822308563207" lon="8.508067052745705"><ele>826.6666666666667</ele><time>2026-04-19T07:26:36.998Z</time></trkpt><trkpt lat="45.81815711591409" lon="8.508043242869695"><ele>825.0</ele><time>2026-04-19T07:26:38.998Z</time></trkpt><trkpt lat="45.8180612528449" lon="8.508115802905833"><ele>823.3333333333333</ele><time>2026-04-19T07:26:40.998Z</time></trkpt><trkpt lat="45.81797601302528" lon="8.508221081585958"><ele>821.6666666666666</ele><time>2026-04-19T07:26:42.998Z</time></trkpt><trkpt lat="45.817929008092875" lon="8.508287807550683"><ele>820.0</ele><time>2026-04-19T07:26:43.998Z</time></trkpt><trkpt lat="45.81780940837601" lon="8.508379267223395"><ele>819.9999999999999</ele><time>2026-04-19T07:26:45.998Z</time></trkpt><trkpt lat="45.81773782016186" lon="8.508399058744601"><ele>820.0</ele><time>2026-04-19T07:26:46.998Z</time></trkpt><trkpt lat="45.81766308655127" lon="8.508398218466665"><ele>820.0</ele><time>2026-04-19T07:26:47.997Z</time></trkpt><trkpt lat="45.81758385886353" lon="8.50838720891394"><ele>820.0</ele><time>2026-04-19T07:26:48.997Z</time></trkpt><trkpt lat="45.81748037882051" lon="8.508401881139653"><ele>819.9999999999999</ele><time>2026-04-19T07:26:49.997Z</time></trkpt><trkpt lat="45.817382995697045" lon="8.508449372297019"><ele>820.0</ele><time>2026-04-19T07:26:50.997Z</time></trkpt><trkpt lat="45.81730321852405" lon="8.508502581102467"><ele>818.25</ele><time>2026-04-19T07:26:51.997Z</time></trkpt><trkpt lat="45.81719659278294" lon="8.50856398112433"><ele>816.5</ele><time>2026-04-19T07:26:52.997Z</time></trkpt><trkpt lat="45.81708307344055" lon="8.508628151334566"><ele>814.75</ele><time>2026-04-19T07:26:53.997Z</time></trkpt><trkpt lat="45.81696187516571" lon="8.50866839945153"><ele>813.0</ele><time>2026-04-19T07:26:54.997Z</time></trkpt><trkpt lat="45.81687299669327" lon="8.508689637572116"><ele>807.8</ele><time>2026-04-19T07:26:55.997Z</time></trkpt><trkpt lat="45.816743069442204" lon="8.508744064419542"><ele>802.5999999999999</ele><time>2026-04-19T07:26:56.997Z</time></trkpt><trkpt lat="45.81663309642329" lon="8.508792077678422"><ele>797.4000000000001</ele><time>2026-04-19T07:26:57.997Z</time></trkpt><trkpt lat="45.81653682763374" lon="8.508826662401724"><ele>792.2</ele><time>2026-04-19T07:26:58.997Z</time></trkpt><trkpt lat="45.816445189024" lon="8.508872500719782"><ele>787.0</ele><time>2026-04-19T07:26:59.997Z</time></trkpt><trkpt lat="45.81636444356303" lon="8.508950147267988"><ele>787.0</ele><time>2026-04-19T07:27:00.997Z</time></trkpt><trkpt lat="45.81629223576861" lon="8.50906087880351"><ele>787.0</ele><time>2026-04-19T07:27:01.997Z</time></trkpt><trkpt lat="45.81622310040083" lon="8.509163128624976"><ele>787.0</ele><time>2026-04-19T07:27:02.997Z</time></trkpt><trkpt lat="45.8161536238714" lon="8.509243882262899"><ele>787.0</ele><time>2026-04-19T07:27:03.997Z</time></trkpt><trkpt lat="45.81608042662227" lon="8.509325404666802"><ele>787.0</ele><time>2026-04-19T07:27:04.997Z</time></trkpt><trkpt lat="45.816016852399" lon="8.509393577187764"><ele>786.8571428571429</ele><time>2026-04-19T07:27:05.997Z</time></trkpt><trkpt lat="45.815954118083496" lon="8.509450942624662"><ele>786.7142857142857</ele><time>2026-04-19T07:27:07Z</time></trkpt><trkpt lat="45.815893423968355" lon="8.509500724437297"><ele>786.5714285714287</ele><time>2026-04-19T07:27:08Z</time></trkpt><trkpt lat="45.81584058925615" lon="8.509562756887776"><ele>786.4285714285714</ele><time>2026-04-19T07:27:09Z</time></trkpt><trkpt lat="45.81579698443338" lon="8.50963629406709"><ele>786.2857142857143</ele><time>2026-04-19T07:27:10Z</time></trkpt><trkpt lat="45.81576008107705" lon="8.50971254114049"><ele>786.1428571428572</ele><time>2026-04-19T07:27:11Z</time></trkpt><trkpt lat="45.81573275539361" lon="8.509807346497027"><ele>786.0</ele><time>2026-04-19T07:27:12Z</time></trkpt><trkpt lat="45.815710706271204" lon="8.509997997011732"><ele>785.75</ele><time>2026-04-19T07:27:14Z</time></trkpt><trkpt lat="45.815643744441616" lon="8.51012266773714"><ele>785.5</ele><time>2026-04-19T07:27:16Z</time></trkpt><trkpt lat="45.815537556513156" lon="8.510246664146923"><ele>785.25</ele><time>2026-04-19T07:27:18Z</time></trkpt><trkpt lat="45.815452220601" lon="8.510398260338494"><ele>785.0</ele><time>2026-04-19T07:27:20Z</time></trkpt><trkpt lat="45.8154230943228" lon="8.510518813285573"><ele>782.1666666666667</ele><time>2026-04-19T07:27:21Z</time></trkpt><trkpt lat="45.81539721864919" lon="8.510612994393522"><ele>779.3333333333334</ele><time>2026-04-19T07:27:22Z</time></trkpt><trkpt lat="45.81536213435393" lon="8.51070037467659"><ele>776.5</ele><time>2026-04-19T07:27:23Z</time></trkpt><trkpt lat="45.81525900881627" lon="8.510731148453978"><ele>773.6666666666667</ele><time>2026-04-19T07:27:24Z</time></trkpt><trkpt lat="45.81518957500017" lon="8.51080063290172"><ele>770.8333333333334</ele><time>2026-04-19T07:27:25Z</time></trkpt><trkpt lat="45.815111849014954" lon="8.510847333490931"><ele>768.0</ele><time>2026-04-19T07:27:26Z</time></trkpt><trkpt lat="45.81503455258934" lon="8.510882761535745"><ele>768.0</ele><time>2026-04-19T07:27:27Z</time></trkpt><trkpt lat="45.814899613838115" lon="8.51095630385876"><ele>768.0</ele><time>2026-04-19T07:27:28.999Z</time></trkpt><trkpt lat="45.814815924011874" lon="8.510930181680747"><ele>768.0</ele><time>2026-04-19T07:27:29.999Z</time></trkpt><trkpt lat="45.814747064510726" lon="8.510941579895519"><ele>768.0</ele><time>2026-04-19T07:27:30.999Z</time></trkpt><trkpt lat="45.814679478912836" lon="8.511053326281694"><ele>768.0</ele><time>2026-04-19T07:27:32.999Z</time></trkpt><trkpt lat="45.81465468396043" lon="8.51114546411018"><ele>766.9999999999999</ele><time>2026-04-19T07:27:33.999Z</time></trkpt><trkpt lat="45.81463236973348" lon="8.511241192039671"><ele>766.0</ele><time>2026-04-19T07:27:34.999Z</time></trkpt><trkpt lat="45.81460823945469" lon="8.511336145569741"><ele>765.0</ele><time>2026-04-19T07:27:35.999Z</time></trkpt><trkpt lat="45.81457727933938" lon="8.511438637359529"><ele>764.0</ele><time>2026-04-19T07:27:36.999Z</time></trkpt><trkpt lat="45.814512648883486" lon="8.511516995557052"><ele>763.0</ele><time>2026-04-19T07:27:37.999Z</time></trkpt><trkpt lat="45.81445078811818" lon="8.511574328995126"><ele>761.9999999999999</ele><time>2026-04-19T07:27:38.999Z</time></trkpt><trkpt lat="45.81439658322731" lon="8.511639991556379"><ele>761.0</ele><time>2026-04-19T07:27:39.999Z</time></trkpt><trkpt lat="45.81431457705386" lon="8.51174441083863"><ele>761.0</ele><time>2026-04-19T07:27:41.999Z</time></trkpt><trkpt lat="45.81423034635135" lon="8.511866571609051"><ele>761.0</ele><time>2026-04-19T07:27:43.999Z</time></trkpt><trkpt lat="45.81412913747436" lon="8.511963863927045"><ele>761.0</ele><time>2026-04-19T07:27:45.999Z</time></trkpt><trkpt lat="45.814027859988315" lon="8.512070322432233"><ele>761.0</ele><time>2026-04-19T07:27:47.999Z</time></trkpt><trkpt lat="45.81398003577712" lon="8.512152630443072"><ele>761.0</ele><time>2026-04-19T07:27:48.999Z</time></trkpt><trkpt lat="45.813933760472075" lon="8.512234232737788"><ele>760.5714285714286</ele><time>2026-04-19T07:27:49.999Z</time></trkpt><trkpt lat="45.813892014630355" lon="8.51230322149018"><ele>760.1428571428571</ele><time>2026-04-19T07:27:50.999Z</time></trkpt><trkpt lat="45.813853990527285" lon="8.51238107200144"><ele>759.7142857142858</ele><time>2026-04-19T07:27:51.999Z</time></trkpt><trkpt lat="45.81380160261079" lon="8.512456674985884"><ele>759.2857142857142</ele><time>2026-04-19T07:27:52.999Z</time></trkpt><trkpt lat="45.813747091621536" lon="8.512522409802546"><ele>758.8571428571429</ele><time>2026-04-19T07:27:53.999Z</time></trkpt><trkpt lat="45.813697906746704" lon="8.5126135052476"><ele>758.4285714285714</ele><time>2026-04-19T07:27:54.999Z</time></trkpt><trkpt lat="45.813672568114264" lon="8.512708500437393"><ele>758.0</ele><time>2026-04-19T07:27:55.999Z</time></trkpt><trkpt lat="45.81364298765271" lon="8.512801069781725"><ele>758.0</ele><time>2026-04-19T07:27:56.999Z</time></trkpt><trkpt lat="45.813622410652954" lon="8.512904803016976"><ele>758.0</ele><time>2026-04-19T07:27:57.999Z</time></trkpt><trkpt lat="45.81359873750251" lon="8.512993224520919"><ele>758.0</ele><time>2026-04-19T07:27:58.999Z</time></trkpt><trkpt lat="45.813563447376865" lon="8.513100627905196"><ele>758.0</ele><time>2026-04-19T07:28:00.999Z</time></trkpt><trkpt lat="45.813502317896386" lon="8.513187037921877"><ele>758.0</ele><time>2026-04-19T07:28:04.999Z</time></trkpt><trkpt lat="45.81346248835213" lon="8.513333743276998"><ele>758.0</ele><time>2026-04-19T07:28:06.999Z</time></trkpt><trkpt lat="45.81343086707261" lon="8.51344287992349"><ele>757.2857142857143</ele><time>2026-04-19T07:28:07.999Z</time></trkpt><trkpt lat="45.81340282152888" lon="8.513535107403975"><ele>756.5714285714286</ele><time>2026-04-19T07:28:09.999Z</time></trkpt><trkpt lat="45.81334395245156" lon="8.513609063026585"><ele>755.8571428571429</ele><time>2026-04-19T07:29:33.999Z</time></trkpt><trkpt lat="45.81339482947206" lon="8.513541637150501"><ele>755.1428571428571</ele><time>2026-04-19T07:35:10.997Z</time></trkpt><trkpt lat="45.813358327184524" lon="8.51362299481734"><ele>754.4285714285714</ele><time>2026-04-19T07:35:25.997Z</time></trkpt><trkpt lat="45.813395340495894" lon="8.513549829287681"><ele>753.7142857142858</ele><time>2026-04-19T07:36:15.999Z</time></trkpt><trkpt lat="45.81343052675865" lon="8.5134579285826"><ele>753.0</ele><time>2026-04-19T07:36:39.998Z</time></trkpt><trkpt lat="45.81335651003761" lon="8.5133849331404"><ele>753.0</ele><time>2026-04-19T07:36:42.998Z</time></trkpt><trkpt lat="45.813249481249535" lon="8.513296195540114"><ele>753.0</ele><time>2026-04-19T07:36:44.998Z</time></trkpt><trkpt lat="45.813196961811165" lon="8.513243959322649"><ele>753.0</ele><time>2026-04-19T07:36:45.998Z</time></trkpt><trkpt lat="45.81310871231227" lon="8.513194105039494"><ele>753.0</ele><time>2026-04-19T07:36:47.998Z</time></trkpt><trkpt lat="45.81302970126545" lon="8.513117509524498"><ele>753.0</ele><time>2026-04-19T07:36:49.998Z</time></trkpt><trkpt lat="45.8129582813446" lon="8.513103791492696"><ele>753.0</ele><time>2026-04-19T07:36:51.998Z</time></trkpt><trkpt lat="45.8128674938984" lon="8.51308022011836"><ele>753.0</ele><time>2026-04-19T07:36:54.998Z</time></trkpt><trkpt lat="45.81280758089193" lon="8.513045246136851"><ele>753.0</ele><time>2026-04-19T07:36:56.998Z</time></trkpt><trkpt lat="45.81273285822841" lon="8.513001199343865"><ele>753.0</ele><time>2026-04-19T07:36:58.998Z</time></trkpt><trkpt lat="45.81267913195853" lon="8.512939853668705"><ele>753.0</ele><time>2026-04-19T07:37:01.998Z</time></trkpt><trkpt lat="45.812607108208724" lon="8.512882800479893"><ele>753.0</ele><time>2026-04-19T07:37:04.997Z</time></trkpt><trkpt lat="45.81260274216469" lon="8.512973592051084"><ele>753.0</ele><time>2026-04-19T07:37:06.997Z</time></trkpt><trkpt lat="45.8125926368691" lon="8.51306635289398"><ele>753.0</ele><time>2026-04-19T07:37:25.997Z</time></trkpt><trkpt lat="45.81266890541798" lon="8.513109844796745"><ele>753.0</ele><time>2026-04-19T07:38:26.999Z</time></trkpt><trkpt lat="45.81274844655082" lon="8.513197111712048"><ele>753.0</ele><time>2026-04-19T07:38:29.999Z</time></trkpt><trkpt lat="45.81282157970575" lon="8.51323824417396"><ele>753.0</ele><time>2026-04-19T07:38:31.999Z</time></trkpt><trkpt lat="45.81289850698092" lon="8.513270957948192"><ele>753.0</ele><time>2026-04-19T07:38:33.999Z</time></trkpt><trkpt lat="45.81297240745458" lon="8.513237896537866"><ele>753.0</ele><time>2026-04-19T07:38:36.999Z</time></trkpt><trkpt lat="45.81296712729835" lon="8.513141218540396"><ele>753.0</ele><time>2026-04-19T07:38:38.999Z</time></trkpt><trkpt lat="45.813048684973175" lon="8.513111405453369"><ele>753.0</ele><time>2026-04-19T07:38:43.999Z</time></trkpt><trkpt lat="45.81310103905621" lon="8.513054165826553"><ele>753.0</ele><time>2026-04-19T07:38:45.999Z</time></trkpt><trkpt lat="45.81316294908653" lon="8.51299819185423"><ele>753.0</ele><time>2026-04-19T07:38:47.999Z</time></trkpt><trkpt lat="45.81320687991652" lon="8.512868718315682"><ele>753.0</ele><time>2026-04-19T07:38:49.999Z</time></trkpt><trkpt lat="45.813183590124446" lon="8.512747230266529"><ele>753.0</ele><time>2026-04-19T07:38:51.999Z</time></trkpt><trkpt lat="45.813129230192445" lon="8.5126570031727"><ele>753.0</ele><time>2026-04-19T07:38:54.999Z</time></trkpt><trkpt lat="45.81315235008543" lon="8.512570042321393"><ele>753.0</ele><time>2026-04-19T07:39:00.998Z</time></trkpt><trkpt lat="45.81315632620023" lon="8.51247938773871"><ele>753.0</ele><time>2026-04-19T07:39:23.998Z</time></trkpt><trkpt lat="45.81316303975838" lon="8.512384620190568"><ele>753.0</ele><time>2026-04-19T07:39:30.998Z</time></trkpt><trkpt lat="45.81312504874925" lon="8.512200899669262"><ele>753.0</ele><time>2026-04-19T07:39:32.998Z</time></trkpt><trkpt lat="45.81310835892999" lon="8.512102453203527"><ele>751.3333333333334</ele><time>2026-04-19T07:39:33.998Z</time></trkpt><trkpt lat="45.81310342728238" lon="8.511998051811258"><ele>749.6666666666666</ele><time>2026-04-19T07:39:34.998Z</time></trkpt><trkpt lat="45.81311757370217" lon="8.511862831046383"><ele>748.0</ele><time>2026-04-19T07:39:35.998Z</time></trkpt><trkpt lat="45.81313720477191" lon="8.511737935000035"><ele>746.3333333333333</ele><time>2026-04-19T07:39:36.998Z</time></trkpt><trkpt lat="45.81315519171772" lon="8.511641305926005"><ele>744.6666666666666</ele><time>2026-04-19T07:39:37.998Z</time></trkpt><trkpt lat="45.81315819416114" lon="8.51154548997701"><ele>743.0</ele><time>2026-04-19T07:39:41Z</time></trkpt><trkpt lat="45.813143351743975" lon="8.511432702939976"><ele>743.0</ele><time>2026-04-19T07:39:43Z</time></trkpt><trkpt lat="45.81306455736572" lon="8.511359700072786"><ele>743.0</ele><time>2026-04-19T07:39:46Z</time></trkpt><trkpt lat="45.812937917724604" lon="8.511399181345384"><ele>743.0</ele><time>2026-04-19T07:39:48Z</time></trkpt><trkpt lat="45.81286577418006" lon="8.511447158832942"><ele>743.0</ele><time>2026-04-19T07:39:49Z</time></trkpt><trkpt lat="45.812802427854386" lon="8.511459822798471"><ele>743.0</ele><time>2026-04-19T07:39:50Z</time></trkpt><trkpt lat="45.81275416460221" lon="8.511401482949243"><ele>743.0</ele><time>2026-04-19T07:39:51Z</time></trkpt><trkpt lat="45.812682873314074" lon="8.511371199882525"><ele>739.8333333333333</ele><time>2026-04-19T07:39:52Z</time></trkpt><trkpt lat="45.81262531853142" lon="8.511333340147678"><ele>736.6666666666666</ele><time>2026-04-19T07:39:53Z</time></trkpt><trkpt lat="45.812568350562664" lon="8.511288848999108"><ele>733.5</ele><time>2026-04-19T07:39:54Z</time></trkpt><trkpt lat="45.812508262769455" lon="8.511243324362024"><ele>730.3333333333334</ele><time>2026-04-19T07:39:55Z</time></trkpt><trkpt lat="45.81243823297046" lon="8.511201089536888"><ele>727.1666666666667</ele><time>2026-04-19T07:39:56Z</time></trkpt><trkpt lat="45.81233001729641" lon="8.51116622015243"><ele>724.0</ele><time>2026-04-19T07:39:57Z</time></trkpt><trkpt lat="45.81222886932503" lon="8.511165818762807"><ele>721.6666666666667</ele><time>2026-04-19T07:39:58Z</time></trkpt><trkpt lat="45.812139249018095" lon="8.511160531715303"><ele>719.3333333333334</ele><time>2026-04-19T07:39:59Z</time></trkpt><trkpt lat="45.812051230035905" lon="8.511150965307996"><ele>717.0</ele><time>2026-04-19T07:40:00Z</time></trkpt><trkpt lat="45.81197161932489" lon="8.511133183702311"><ele>714.6666666666666</ele><time>2026-04-19T07:40:01Z</time></trkpt><trkpt lat="45.81188428951895" lon="8.511110568869135"><ele>712.3333333333333</ele><time>2026-04-19T07:40:02Z</time></trkpt><trkpt lat="45.81179089274101" lon="8.511075023582885"><ele>710.0</ele><time>2026-04-19T07:40:03Z</time></trkpt><trkpt lat="45.81170162478117" lon="8.511053307287535"><ele>708.0</ele><time>2026-04-19T07:40:04Z</time></trkpt><trkpt lat="45.81161527631447" lon="8.51108285237153"><ele>706.0</ele><time>2026-04-19T07:40:05Z</time></trkpt><trkpt lat="45.81154784856061" lon="8.51113685863312"><ele>704.0</ele><time>2026-04-19T07:40:06Z</time></trkpt><trkpt lat="45.81146383944867" lon="8.511170370652225"><ele>702.0</ele><time>2026-04-19T07:40:07Z</time></trkpt><trkpt lat="45.81139065367762" lon="8.511209451924985"><ele>700.0</ele><time>2026-04-19T07:40:08Z</time></trkpt><trkpt lat="45.81138881403284" lon="8.511069600282358"><ele>698.0</ele><time>2026-04-19T07:40:14Z</time></trkpt><trkpt lat="45.81132579424444" lon="8.510940747934127"><ele>698.0</ele><time>2026-04-19T07:40:16Z</time></trkpt><trkpt lat="45.81126554601287" lon="8.510836184530355"><ele>698.0</ele><time>2026-04-19T07:40:18Z</time></trkpt><trkpt lat="45.81120629992497" lon="8.510800931136606"><ele>698.0</ele><time>2026-04-19T07:40:20Z</time></trkpt><trkpt lat="45.811105089061925" lon="8.510714360098032"><ele>698.0</ele><time>2026-04-19T07:40:22Z</time></trkpt><trkpt lat="45.81102672425221" lon="8.51059096444403"><ele>698.0</ele><time>2026-04-19T07:40:24Z</time></trkpt><trkpt lat="45.810988175053076" lon="8.510473179365574"><ele>693.8</ele><time>2026-04-19T07:40:26Z</time></trkpt><trkpt lat="45.81096475021886" lon="8.510378789401983"><ele>689.5999999999999</ele><time>2026-04-19T07:40:27Z</time></trkpt><trkpt lat="45.81091194788644" lon="8.510206126094953"><ele>685.4000000000001</ele><time>2026-04-19T07:40:28.999Z</time></trkpt><trkpt lat="45.810884381555795" lon="8.51009650741703"><ele>681.2</ele><time>2026-04-19T07:40:29.999Z</time></trkpt><trkpt lat="45.810841464936196" lon="8.510013224683622"><ele>677.0</ele><time>2026-04-19T07:40:30.999Z</time></trkpt><trkpt lat="45.81079464890017" lon="8.509855201053453"><ele>677.0</ele><time>2026-04-19T07:40:32.999Z</time></trkpt><trkpt lat="45.81077462084645" lon="8.509717438799369"><ele>677.0</ele><time>2026-04-19T07:40:34.999Z</time></trkpt><trkpt lat="45.81073524030572" lon="8.509629624411783"><ele>677.0</ele><time>2026-04-19T07:40:36.999Z</time></trkpt><trkpt lat="45.81068476943559" lon="8.509506836510557"><ele>677.0</ele><time>2026-04-19T07:40:38.999Z</time></trkpt><trkpt lat="45.81062374016188" lon="8.5094221587993"><ele>677.0</ele><time>2026-04-19T07:40:39.999Z</time></trkpt><trkpt lat="45.81056274498583" lon="8.50937480854467"><ele>677.0</ele><time>2026-04-19T07:40:40.999Z</time></trkpt><trkpt lat="45.81050848210872" lon="8.509261802370553"><ele>675.5</ele><time>2026-04-19T07:40:42.999Z</time></trkpt><trkpt lat="45.81043650201133" lon="8.50902442343615"><ele>674.0</ele><time>2026-04-19T07:40:44.999Z</time></trkpt><trkpt lat="45.810372678641784" lon="8.508889831505797"><ele>672.5</ele><time>2026-04-19T07:40:46.999Z</time></trkpt><trkpt lat="45.81034319613252" lon="8.508796862653444"><ele>671.0</ele><time>2026-04-19T07:40:50.999Z</time></trkpt><trkpt lat="45.810248947538554" lon="8.508806281882421"><ele>669.1999999999999</ele><time>2026-04-19T07:40:53.999Z</time></trkpt><trkpt lat="45.81014714628764" lon="8.508817971076441"><ele>667.4</ele><time>2026-04-19T07:40:55.999Z</time></trkpt><trkpt lat="45.8100833879239" lon="8.508798984782988"><ele>665.6</ele><time>2026-04-19T07:40:56.999Z</time></trkpt><trkpt lat="45.80997002089879" lon="8.508756558933127"><ele>663.8</ele><time>2026-04-19T07:40:58.999Z</time></trkpt><trkpt lat="45.809905225134514" lon="8.508739542763987"><ele>662.0</ele><time>2026-04-19T07:40:59.999Z</time></trkpt><trkpt lat="45.80981625207127" lon="8.508629218633596"><ele>662.0</ele><time>2026-04-19T07:41:01.999Z</time></trkpt><trkpt lat="45.809752811163214" lon="8.508613231488573"><ele>662.0</ele><time>2026-04-19T07:41:03.999Z</time></trkpt><trkpt lat="45.809689603170256" lon="8.508622835420372"><ele>662.0</ele><time>2026-04-19T07:41:09.999Z</time></trkpt><trkpt lat="45.809623085651666" lon="8.508573279672632"><ele>662.0</ele><time>2026-04-19T07:41:11.999Z</time></trkpt><trkpt lat="45.809522618464314" lon="8.508492268656333"><ele>662.0</ele><time>2026-04-19T07:41:13.999Z</time></trkpt><trkpt lat="45.80946262078291" lon="8.508436035167279"><ele>662.0</ele><time>2026-04-19T07:41:14.999Z</time></trkpt><trkpt lat="45.809410826492105" lon="8.508366429685404"><ele>662.0</ele><time>2026-04-19T07:41:15.999Z</time></trkpt><trkpt lat="45.80932870400915" lon="8.508264426573213"><ele>662.0</ele><time>2026-04-19T07:41:16.999Z</time></trkpt><trkpt lat="45.80924468571922" lon="8.5082000118644"><ele>662.0</ele><time>2026-04-19T07:41:17.999Z</time></trkpt><trkpt lat="45.80915651809606" lon="8.508211914749909"><ele>662.0</ele><time>2026-04-19T07:41:19.999Z</time></trkpt><trkpt lat="45.80915275063132" lon="8.508390641430642"><ele>662.0</ele><time>2026-04-19T07:41:21.998Z</time></trkpt><trkpt lat="45.80914963715394" lon="8.508481722971753"><ele>659.0</ele><time>2026-04-19T07:41:22.998Z</time></trkpt><trkpt lat="45.809178443591456" lon="8.508652260086025"><ele>656.0</ele><time>2026-04-19T07:41:24.998Z</time></trkpt><trkpt lat="45.80920047709131" lon="8.508737052798937"><ele>653.0</ele><time>2026-04-19T07:41:25.998Z</time></trkpt><trkpt lat="45.809237886426885" lon="8.508908165654908"><ele>650.0</ele><time>2026-04-19T07:41:27.998Z</time></trkpt><trkpt lat="45.80926820356691" lon="8.508988158248993"><ele>647.0</ele><time>2026-04-19T07:41:28.998Z</time></trkpt><trkpt lat="45.80930322527336" lon="8.509086114645147"><ele>646.8333333333333</ele><time>2026-04-19T07:41:29.998Z</time></trkpt><trkpt lat="45.80931783890337" lon="8.509205232562255"><ele>646.6666666666666</ele><time>2026-04-19T07:41:30.998Z</time></trkpt><trkpt lat="45.80931114453908" lon="8.509322854520038"><ele>646.5</ele><time>2026-04-19T07:41:31.998Z</time></trkpt><trkpt lat="45.809289296875335" lon="8.509445050814708"><ele>646.3333333333334</ele><time>2026-04-19T07:41:32.998Z</time></trkpt><trkpt lat="45.809272949270685" lon="8.509581173892334"><ele>646.1666666666667</ele><time>2026-04-19T07:41:33.998Z</time></trkpt><trkpt lat="45.809245720743135" lon="8.509713312319377"><ele>646.0</ele><time>2026-04-19T07:41:34.998Z</time></trkpt><trkpt lat="45.809212667104596" lon="8.509848117896377"><ele>644.0</ele><time>2026-04-19T07:41:35.998Z</time></trkpt><trkpt lat="45.80919231289491" lon="8.509986361601483"><ele>642.0</ele><time>2026-04-19T07:41:36.998Z</time></trkpt><trkpt lat="45.80912711983622" lon="8.510071047070344"><ele>640.0</ele><time>2026-04-19T07:41:39.998Z</time></trkpt><trkpt lat="45.80901107660613" lon="8.510135633446305"><ele>638.0</ele><time>2026-04-19T07:41:41.998Z</time></trkpt><trkpt lat="45.808908755371036" lon="8.510191690475262"><ele>636.0</ele><time>2026-04-19T07:41:43.998Z</time></trkpt><trkpt lat="45.80885064338376" lon="8.510268751481542"><ele>636.0</ele><time>2026-04-19T07:41:44.998Z</time></trkpt><trkpt lat="45.80879644957519" lon="8.510349216004363"><ele>636.0</ele><time>2026-04-19T07:41:46.001Z</time></trkpt><trkpt lat="45.80868954244211" lon="8.510405423967779"><ele>636.0</ele><time>2026-04-19T07:41:47.001Z</time></trkpt><trkpt lat="45.80860098760206" lon="8.510510003733678"><ele>636.0</ele><time>2026-04-19T07:41:48Z</time></trkpt><trkpt lat="45.80856174361376" lon="8.51064111211397"><ele>636.0</ele><time>2026-04-19T07:41:49.001Z</time></trkpt><trkpt lat="45.80851033112957" lon="8.510857696987046"><ele>630.0</ele><time>2026-04-19T07:41:51.001Z</time></trkpt><trkpt lat="45.808462667083155" lon="8.510963323419443"><ele>624.0</ele><time>2026-04-19T07:41:52.001Z</time></trkpt><trkpt lat="45.80840021826264" lon="8.511042752628406"><ele>618.0</ele><time>2026-04-19T07:41:53.001Z</time></trkpt><trkpt lat="45.80831772081696" lon="8.51111306338496"><ele>612.0</ele><time>2026-04-19T07:41:54.001Z</time></trkpt><trkpt lat="45.80817465740027" lon="8.511275729027943"><ele>611.5</ele><time>2026-04-19T07:41:56.001Z</time></trkpt><trkpt lat="45.80811484244173" lon="8.511368593471861"><ele>611.0</ele><time>2026-04-19T07:41:57.001Z</time></trkpt><trkpt lat="45.80805146045505" lon="8.511446150951814"><ele>610.5</ele><time>2026-04-19T07:41:58.001Z</time></trkpt><trkpt lat="45.807983773774616" lon="8.511528982123703"><ele>610.0</ele><time>2026-04-19T07:41:59.001Z</time></trkpt><trkpt lat="45.80791752476729" lon="8.511606278674295"><ele>609.5</ele><time>2026-04-19T07:42:00.001Z</time></trkpt><trkpt lat="45.8078460836317" lon="8.511679718251193"><ele>609.0</ele><time>2026-04-19T07:42:01.001Z</time></trkpt><trkpt lat="45.807781564447865" lon="8.51175789400352"><ele>609.0</ele><time>2026-04-19T07:42:02.001Z</time></trkpt><trkpt lat="45.807726116375854" lon="8.511844187573265"><ele>609.0</ele><time>2026-04-19T07:42:03Z</time></trkpt><trkpt lat="45.80767285414858" lon="8.511941375214796"><ele>609.0</ele><time>2026-04-19T07:42:04Z</time></trkpt><trkpt lat="45.80760544691591" lon="8.512006476433434"><ele>609.0</ele><time>2026-04-19T07:42:05Z</time></trkpt><trkpt lat="45.80756276039664" lon="8.51208197507378"><ele>609.0</ele><time>2026-04-19T07:42:06Z</time></trkpt><trkpt lat="45.80746363492375" lon="8.511945519682172"><ele>608.4</ele><time>2026-04-19T07:42:07Z</time></trkpt><trkpt lat="45.80742662134182" lon="8.511845347347831"><ele>607.8</ele><time>2026-04-19T07:42:09Z</time></trkpt><trkpt lat="45.80738156836386" lon="8.511742584678165"><ele>607.2</ele><time>2026-04-19T07:42:11Z</time></trkpt><trkpt lat="45.80733137965277" lon="8.511646467163795"><ele>606.6</ele><time>2026-04-19T07:42:13Z</time></trkpt><trkpt lat="45.807245267264996" lon="8.51154147646974"><ele>606.0</ele><time>2026-04-19T07:42:15Z</time></trkpt><trkpt lat="45.80715841801808" lon="8.511455700611924"><ele>606.0</ele><time>2026-04-19T07:42:17Z</time></trkpt><trkpt lat="45.807088435795926" lon="8.511370869524194"><ele>606.0</ele><time>2026-04-19T07:42:19Z</time></trkpt><trkpt lat="45.80703923898185" lon="8.511275267411063"><ele>606.0</ele><time>2026-04-19T07:42:21Z</time></trkpt><trkpt lat="45.806996869084855" lon="8.511180524445434"><ele>606.0</ele><time>2026-04-19T07:42:23Z</time></trkpt><trkpt lat="45.80695684085411" lon="8.511091578005743"><ele>606.0</ele><time>2026-04-19T07:42:25Z</time></trkpt><trkpt lat="45.8069192181498" lon="8.511009280188487"><ele>606.0</ele><time>2026-04-19T07:42:27Z</time></trkpt><trkpt lat="45.806868477920204" lon="8.510898282698536"><ele>606.2</ele><time>2026-04-19T07:42:29Z</time></trkpt><trkpt lat="45.80681995989921" lon="8.510797829990612"><ele>606.4000000000001</ele><time>2026-04-19T07:42:31Z</time></trkpt><trkpt lat="45.80676772543151" lon="8.510691197671624"><ele>606.6</ele><time>2026-04-19T07:42:33Z</time></trkpt><trkpt lat="45.80671231546354" lon="8.510571324458862"><ele>606.8000000000001</ele><time>2026-04-19T07:42:35Z</time></trkpt><trkpt lat="45.806630343456476" lon="8.510472001549907"><ele>607.0</ele><time>2026-04-19T07:42:37Z</time></trkpt><trkpt lat="45.80653200767947" lon="8.510405344316883"><ele>606.6666666666667</ele><time>2026-04-19T07:42:39Z</time></trkpt><trkpt lat="45.80644653187719" lon="8.510292985765885"><ele>606.3333333333334</ele><time>2026-04-19T07:42:41Z</time></trkpt><trkpt lat="45.80641287052899" lon="8.51021286671757"><ele>606.0</ele><time>2026-04-19T07:42:42Z</time></trkpt><trkpt lat="45.80637184923978" lon="8.51012191073672"><ele>605.6666666666666</ele><time>2026-04-19T07:42:43Z</time></trkpt><trkpt lat="45.806325720044775" lon="8.510033725051251"><ele>605.3333333333333</ele><time>2026-04-19T07:42:44Z</time></trkpt><trkpt lat="45.80627462878795" lon="8.509954133246671"><ele>605.0</ele><time>2026-04-19T07:42:45Z</time></trkpt><trkpt lat="45.80622179127706" lon="8.509886239562885"><ele>605.0</ele><time>2026-04-19T07:42:46Z</time></trkpt><trkpt lat="45.80613650945784" lon="8.509805952311178"><ele>605.0</ele><time>2026-04-19T07:42:48Z</time></trkpt><trkpt lat="45.80621311671242" lon="8.50966506840056"><ele>605.0</ele><time>2026-04-19T07:42:51Z</time></trkpt><trkpt lat="45.806260803532055" lon="8.50956608372799"><ele>605.0</ele><time>2026-04-19T07:42:52.999Z</time></trkpt><trkpt lat="45.806307857530506" lon="8.509468411966793"><ele>605.0</ele><time>2026-04-19T07:42:54.999Z</time></trkpt><trkpt lat="45.806192805268275" lon="8.50931037158414"><ele>604.8</ele><time>2026-04-19T07:42:56.999Z</time></trkpt><trkpt lat="45.80607481691385" lon="8.509261404865121"><ele>604.6</ele><time>2026-04-19T07:42:58.999Z</time></trkpt><trkpt lat="45.80600639269497" lon="8.509260907873896"><ele>604.4</ele><time>2026-04-19T07:42:59.999Z</time></trkpt><trkpt lat="45.80593994334682" lon="8.509258434217157"><ele>604.2</ele><time>2026-04-19T07:43:00.999Z</time></trkpt><trkpt lat="45.80582351048247" lon="8.509205437994035"><ele>604.0</ele><time>2026-04-19T07:43:02.999Z</time></trkpt><trkpt lat="45.80572877815854" lon="8.509162147773774"><ele>604.5</ele><time>2026-04-19T07:43:04.999Z</time></trkpt><trkpt lat="45.80562138995102" lon="8.50906914650908"><ele>605.0</ele><time>2026-04-19T07:43:06.999Z</time></trkpt><trkpt lat="45.805573435384254" lon="8.509007279455338"><ele>605.5</ele><time>2026-04-19T07:43:07.999Z</time></trkpt><trkpt lat="45.8055259128004" lon="8.508940590235754"><ele>606.0</ele><time>2026-04-19T07:43:08.999Z</time></trkpt><trkpt lat="45.80543481398294" lon="8.508820926709623"><ele>606.5</ele><time>2026-04-19T07:43:10.999Z</time></trkpt><trkpt lat="45.80538441611295" lon="8.508766764211526"><ele>607.0</ele><time>2026-04-19T07:43:11.999Z</time></trkpt><trkpt lat="45.80527771637058" lon="8.508687909483907"><ele>607.0</ele><time>2026-04-19T07:43:13.999Z</time></trkpt><trkpt lat="45.80518269243325" lon="8.508577770579038"><ele>607.0</ele><time>2026-04-19T07:43:15.999Z</time></trkpt><trkpt lat="45.805089028502806" lon="8.508497037009626"><ele>607.0</ele><time>2026-04-19T07:43:17.999Z</time></trkpt><trkpt lat="45.8049822085912" lon="8.508394415669157"><ele>607.0</ele><time>2026-04-19T07:43:19.999Z</time></trkpt><trkpt lat="45.8048781929462" lon="8.508291932467952"><ele>607.6</ele><time>2026-04-19T07:43:21.999Z</time></trkpt><trkpt lat="45.80482417852704" lon="8.508237882665995"><ele>608.2</ele><time>2026-04-19T07:43:22.999Z</time></trkpt><trkpt lat="45.8047659890046" lon="8.508180409211281"><ele>608.8</ele><time>2026-04-19T07:43:23.999Z</time></trkpt><trkpt lat="45.804674419548924" lon="8.50804642036733"><ele>609.4</ele><time>2026-04-19T07:43:25.999Z</time></trkpt><trkpt lat="45.80462125536978" lon="8.507892975033231"><ele>610.0</ele><time>2026-04-19T07:43:27.999Z</time></trkpt><trkpt lat="45.80461322405715" lon="8.507786490857988"><ele>608.8</ele><time>2026-04-19T07:43:28.999Z</time></trkpt><trkpt lat="45.80461060311432" lon="8.507611386112456"><ele>607.6</ele><time>2026-04-19T07:43:30.999Z</time></trkpt><trkpt lat="45.8046098066499" lon="8.507511416943412"><ele>606.4</ele><time>2026-04-19T07:43:31.999Z</time></trkpt><trkpt lat="45.80464153237248" lon="8.507344512086055"><ele>605.2</ele><time>2026-04-19T07:43:33.999Z</time></trkpt><trkpt lat="45.804651463918326" lon="8.507253101197072"><ele>604.0</ele><time>2026-04-19T07:43:34.999Z</time></trkpt><trkpt lat="45.80466736126988" lon="8.507096443785109"><ele>604.6</ele><time>2026-04-19T07:43:36.999Z</time></trkpt><trkpt lat="45.804661493083586" lon="8.506967120800349"><ele>605.2</ele><time>2026-04-19T07:43:38.999Z</time></trkpt><trkpt lat="45.804596144687075" lon="8.506875354937064"><ele>605.8000000000001</ele><time>2026-04-19T07:43:40.999Z</time></trkpt><trkpt lat="45.80449318007511" lon="8.506824296600243"><ele>606.4</ele><time>2026-04-19T07:43:42.998Z</time></trkpt><trkpt lat="45.80443213009877" lon="8.506678663584678"><ele>607.0</ele><time>2026-04-19T07:43:44.998Z</time></trkpt><trkpt lat="45.80441437461278" lon="8.506588064239004"><ele>607.0</ele><time>2026-04-19T07:43:49.998Z</time></trkpt><trkpt lat="45.804440880776404" lon="8.506494409861558"><ele>607.0</ele><time>2026-04-19T07:44:02.001Z</time></trkpt><trkpt lat="45.80445602317439" lon="8.506403482274902"><ele>607.0</ele><time>2026-04-19T07:44:04.001Z</time></trkpt><trkpt lat="45.80448053273887" lon="8.506241808965836"><ele>607.0</ele><time>2026-04-19T07:44:06.001Z</time></trkpt><trkpt lat="45.8044734920851" lon="8.506074814309889"><ele>607.0</ele><time>2026-04-19T07:44:08.001Z</time></trkpt><trkpt lat="45.804464240282215" lon="8.505982481565512"><ele>607.0</ele><time>2026-04-19T07:44:09.001Z</time></trkpt><trkpt lat="45.804436081739944" lon="8.505886386096476"><ele>607.4</ele><time>2026-04-19T07:44:10.001Z</time></trkpt><trkpt lat="45.80437393416252" lon="8.50571162695399"><ele>607.8000000000001</ele><time>2026-04-19T07:44:12.001Z</time></trkpt><trkpt lat="45.804305116544064" lon="8.50561022905575"><ele>608.2</ele><time>2026-04-19T07:44:13.001Z</time></trkpt><trkpt lat="45.804234257270146" lon="8.505498656419475"><ele>608.6</ele><time>2026-04-19T07:44:14.001Z</time></trkpt><trkpt lat="45.80425212775665" lon="8.505402975296104"><ele>609.0</ele><time>2026-04-19T07:44:15.001Z</time></trkpt><trkpt lat="45.804230056019364" lon="8.505292930160792"><ele>609.0</ele><time>2026-04-19T07:44:16.001Z</time></trkpt><trkpt lat="45.804186226548275" lon="8.505197104825452"><ele>609.0</ele><time>2026-04-19T07:44:17.001Z</time></trkpt><trkpt lat="45.804131243072135" lon="8.505107617540997"><ele>609.0</ele><time>2026-04-19T07:44:18.001Z</time></trkpt><trkpt lat="45.8040695936476" lon="8.505023975674403"><ele>609.0</ele><time>2026-04-19T07:44:19Z</time></trkpt><trkpt lat="45.80403643985291" lon="8.504923830784692"><ele>609.0</ele><time>2026-04-19T07:44:20Z</time></trkpt><trkpt lat="45.8040122978402" lon="8.504828191575962"><ele>609.0</ele><time>2026-04-19T07:44:21Z</time></trkpt><trkpt lat="45.8039743334814" lon="8.504732278911971"><ele>609.0</ele><time>2026-04-19T07:44:22Z</time></trkpt><trkpt lat="45.803934808231205" lon="8.50463760182166"><ele>609.0</ele><time>2026-04-19T07:44:23Z</time></trkpt><trkpt lat="45.80391974482905" lon="8.504522156001613"><ele>609.0</ele><time>2026-04-19T07:44:24Z</time></trkpt><trkpt lat="45.803893854580615" lon="8.504427574912327"><ele>609.0</ele><time>2026-04-19T07:44:25Z</time></trkpt><trkpt lat="45.803875331284445" lon="8.504327760609089"><ele>609.0</ele><time>2026-04-19T07:44:26Z</time></trkpt><trkpt lat="45.80386109967856" lon="8.504225032651778"><ele>609.0</ele><time>2026-04-19T07:44:27Z</time></trkpt><trkpt lat="45.803844436101656" lon="8.504125170528042"><ele>609.0</ele><time>2026-04-19T07:44:28Z</time></trkpt><trkpt lat="45.8038200053705" lon="8.50401643299532"><ele>608.5</ele><time>2026-04-19T07:44:29Z</time></trkpt><trkpt lat="45.80377126577835" lon="8.50391946817642"><ele>608.0</ele><time>2026-04-19T07:44:30Z</time></trkpt><trkpt lat="45.803738153797546" lon="8.503822982177764"><ele>607.5</ele><time>2026-04-19T07:44:31Z</time></trkpt><trkpt lat="45.80369322082288" lon="8.503734546957505"><ele>607.0</ele><time>2026-04-19T07:44:32Z</time></trkpt><trkpt lat="45.8036538745933" lon="8.503654016915638"><ele>606.5</ele><time>2026-04-19T07:44:33Z</time></trkpt><trkpt lat="45.80360449896211" lon="8.503571469026934"><ele>606.0</ele><time>2026-04-19T07:44:34Z</time></trkpt><trkpt lat="45.803572640004056" lon="8.503402579070764"><ele>605.5</ele><time>2026-04-19T07:44:36Z</time></trkpt><trkpt lat="45.803630556312676" lon="8.503240519486583"><ele>605.0</ele><time>2026-04-19T07:44:38Z</time></trkpt><trkpt lat="45.80364463943548" lon="8.503135861991202"><ele>604.5</ele><time>2026-04-19T07:44:39Z</time></trkpt><trkpt lat="45.80376265639101" lon="8.503003998263171"><ele>604.0</ele><time>2026-04-19T07:44:41Z</time></trkpt><trkpt lat="45.803842203385294" lon="8.502853454544319"><ele>603.8333333333334</ele><time>2026-04-19T07:44:43Z</time></trkpt><trkpt lat="45.80396370423874" lon="8.502686537005337"><ele>603.6666666666667</ele><time>2026-04-19T07:44:45Z</time></trkpt><trkpt lat="45.80401500912991" lon="8.50261790399834"><ele>603.5</ele><time>2026-04-19T07:44:46Z</time></trkpt><trkpt lat="45.804001619604605" lon="8.502528247129026"><ele>603.3333333333334</ele><time>2026-04-19T07:44:47Z</time></trkpt><trkpt lat="45.803946760365555" lon="8.50246051437289"><ele>603.1666666666666</ele><time>2026-04-19T07:44:48Z</time></trkpt><trkpt lat="45.80390803357162" lon="8.502386070472266"><ele>603.0</ele><time>2026-04-19T07:44:49Z</time></trkpt><trkpt lat="45.80389143612568" lon="8.502296847600668"><ele>603.0</ele><time>2026-04-19T07:44:50Z</time></trkpt><trkpt lat="45.80386124571747" lon="8.502217036293013"><ele>603.0</ele><time>2026-04-19T07:44:51Z</time></trkpt><trkpt lat="45.803805467739636" lon="8.502153796324844"><ele>603.0</ele><time>2026-04-19T07:44:52Z</time></trkpt><trkpt lat="45.80375223096784" lon="8.502103004580407"><ele>603.0</ele><time>2026-04-19T07:44:53Z</time></trkpt><trkpt lat="45.803694436862735" lon="8.502049629675321"><ele>603.0</ele><time>2026-04-19T07:44:54Z</time></trkpt><trkpt lat="45.803629643679415" lon="8.501984763341163"><ele>603.0</ele><time>2026-04-19T07:44:55Z</time></trkpt><trkpt lat="45.80352043396248" lon="8.50189013042943"><ele>603.0</ele><time>2026-04-19T07:44:57Z</time></trkpt><trkpt lat="45.80346675894467" lon="8.501841798835542"><ele>603.0</ele><time>2026-04-19T07:44:58Z</time></trkpt><trkpt lat="45.80340860204753" lon="8.501786086151226"><ele>603.0</ele><time>2026-04-19T07:44:59Z</time></trkpt><trkpt lat="45.80335272801877" lon="8.501723738708627"><ele>603.0</ele><time>2026-04-19T07:45:00Z</time></trkpt><trkpt lat="45.80330253972365" lon="8.5016608314048"><ele>603.0</ele><time>2026-04-19T07:45:01Z</time></trkpt><trkpt lat="45.80325357868313" lon="8.501590967952728"><ele>603.0</ele><time>2026-04-19T07:45:02Z</time></trkpt><trkpt lat="45.803201395088024" lon="8.501521063050724"><ele>603.0</ele><time>2026-04-19T07:45:03Z</time></trkpt><trkpt lat="45.80315391870871" lon="8.50145229367295"><ele>603.0</ele><time>2026-04-19T07:45:04Z</time></trkpt><trkpt lat="45.80306945392596" lon="8.501317765329667"><ele>603.0</ele><time>2026-04-19T07:45:05.999Z</time></trkpt><trkpt lat="45.80301830902243" lon="8.501257913092937"><ele>603.0</ele><time>2026-04-19T07:45:06.999Z</time></trkpt><trkpt lat="45.80295790872723" lon="8.501201852200554"><ele>603.0</ele><time>2026-04-19T07:45:07.999Z</time></trkpt><trkpt lat="45.80289213799518" lon="8.501145783029276"><ele>603.0</ele><time>2026-04-19T07:45:08.999Z</time></trkpt><trkpt lat="45.80282552932733" lon="8.501097200294387"><ele>603.0</ele><time>2026-04-19T07:45:09.999Z</time></trkpt><trkpt lat="45.80276392540653" lon="8.501034635757286"><ele>602.0</ele><time>2026-04-19T07:45:10.999Z</time></trkpt><trkpt lat="45.80272152192344" lon="8.500954070372341"><ele>601.0</ele><time>2026-04-19T07:45:11.999Z</time></trkpt><trkpt lat="45.802688284958286" lon="8.500863457866128"><ele>600.0</ele><time>2026-04-19T07:45:12.999Z</time></trkpt><trkpt lat="45.80263371742153" lon="8.500794899165202"><ele>599.0</ele><time>2026-04-19T07:45:13.999Z</time></trkpt><trkpt lat="45.80257331819211" lon="8.500724899071985"><ele>598.0</ele><time>2026-04-19T07:45:14.999Z</time></trkpt><trkpt lat="45.802530782002385" lon="8.500639123800616"><ele>597.0</ele><time>2026-04-19T07:45:15.999Z</time></trkpt><trkpt lat="45.80251812682802" lon="8.500526065954654"><ele>596.0</ele><time>2026-04-19T07:45:16.999Z</time></trkpt><trkpt lat="45.80252944971692" lon="8.500400356711356"><ele>596.0</ele><time>2026-04-19T07:45:17.999Z</time></trkpt><trkpt lat="45.8024872771361" lon="8.500232587774999"><ele>596.0</ele><time>2026-04-19T07:45:19.999Z</time></trkpt><trkpt lat="45.80240581574989" lon="8.50018611248307"><ele>596.0</ele><time>2026-04-19T07:45:20.999Z</time></trkpt><trkpt lat="45.802313830935006" lon="8.500180503434406"><ele>596.0</ele><time>2026-04-19T07:45:21.999Z</time></trkpt><trkpt lat="45.802199903512594" lon="8.500171325680931"><ele>596.0</ele><time>2026-04-19T07:45:23.999Z</time></trkpt><trkpt lat="45.80209586786986" lon="8.50018227328531"><ele>596.0</ele><time>2026-04-19T07:45:25.999Z</time></trkpt><trkpt lat="45.801958908975415" lon="8.500244515601922"><ele>596.0</ele><time>2026-04-19T07:45:27.999Z</time></trkpt><trkpt lat="45.80189805435497" lon="8.500220539334984"><ele>596.0</ele><time>2026-04-19T07:45:28.999Z</time></trkpt><trkpt lat="45.80185499787113" lon="8.500125536468259"><ele>596.0</ele><time>2026-04-19T07:45:29.999Z</time></trkpt><trkpt lat="45.801814283420775" lon="8.500044375284698"><ele>596.0</ele><time>2026-04-19T07:45:30.999Z</time></trkpt><trkpt lat="45.801755533847924" lon="8.500006821906206"><ele>596.0</ele><time>2026-04-19T07:45:31.999Z</time></trkpt><trkpt lat="45.80168673864065" lon="8.499963742643256"><ele>594.3333333333333</ele><time>2026-04-19T07:45:32.999Z</time></trkpt><trkpt lat="45.80162969583756" lon="8.49990009048757"><ele>592.6666666666666</ele><time>2026-04-19T07:45:33.999Z</time></trkpt><trkpt lat="45.801610140924744" lon="8.499807312703956"><ele>591.0</ele><time>2026-04-19T07:45:34.999Z</time></trkpt><trkpt lat="45.801602027548114" lon="8.499714023413514"><ele>589.3333333333334</ele><time>2026-04-19T07:45:35.999Z</time></trkpt><trkpt lat="45.80156245389541" lon="8.499570215911856"><ele>587.6666666666667</ele><time>2026-04-19T07:45:37.999Z</time></trkpt><trkpt lat="45.801481713652635" lon="8.49951031765932"><ele>586.0</ele><time>2026-04-19T07:45:39.999Z</time></trkpt><trkpt lat="45.80142775540056" lon="8.499557882051551"><ele>586.0</ele><time>2026-04-19T07:45:49.999Z</time></trkpt><trkpt lat="45.80139998206494" lon="8.499645264693783"><ele>586.0</ele><time>2026-04-19T07:45:55.998Z</time></trkpt><trkpt lat="45.80133673500886" lon="8.499606807693752"><ele>586.0</ele><time>2026-04-19T07:46:08.001Z</time></trkpt><trkpt lat="45.80126852718331" lon="8.499529298975991"><ele>586.0</ele><time>2026-04-19T07:46:12.001Z</time></trkpt><trkpt lat="45.801189932195" lon="8.49946257228062"><ele>586.0</ele><time>2026-04-19T07:46:15.001Z</time></trkpt><trkpt lat="45.80112371215" lon="8.499386015721969"><ele>586.0</ele><time>2026-04-19T07:46:17.001Z</time></trkpt><trkpt lat="45.80103285369657" lon="8.499315836602246"><ele>586.5</ele><time>2026-04-19T07:46:20.001Z</time></trkpt><trkpt lat="45.80095520544516" lon="8.49927245341213"><ele>587.0</ele><time>2026-04-19T07:46:22.001Z</time></trkpt><trkpt lat="45.80089086538109" lon="8.499210717874169"><ele>587.5</ele><time>2026-04-19T07:46:24.001Z</time></trkpt><trkpt lat="45.800827962896506" lon="8.499146254884474"><ele>588.0</ele><time>2026-04-19T07:46:25.001Z</time></trkpt><trkpt lat="45.80074919557626" lon="8.499081092902856"><ele>588.5</ele><time>2026-04-19T07:46:26Z</time></trkpt><trkpt lat="45.80069139645199" lon="8.499030320001916"><ele>589.0</ele><time>2026-04-19T07:46:27Z</time></trkpt><trkpt lat="45.80061913986752" lon="8.498986988432389"><ele>589.0</ele><time>2026-04-19T07:46:28Z</time></trkpt><trkpt lat="45.800497549166735" lon="8.498895880034226"><ele>589.0</ele><time>2026-04-19T07:46:30Z</time></trkpt><trkpt lat="45.80044128201434" lon="8.498843576352753"><ele>589.0</ele><time>2026-04-19T07:46:31Z</time></trkpt><trkpt lat="45.80038406036858" lon="8.49879919292421"><ele>589.0</ele><time>2026-04-19T07:46:32Z</time></trkpt><trkpt lat="45.80027738861966" lon="8.49873238609345"><ele>589.0</ele><time>2026-04-19T07:46:34Z</time></trkpt><trkpt lat="45.800219082998055" lon="8.498697705678037"><ele>589.0</ele><time>2026-04-19T07:46:46Z</time></trkpt><trkpt lat="45.80012777965382" lon="8.498657191002202"><ele>587.4</ele><time>2026-04-19T07:46:49Z</time></trkpt><trkpt lat="45.80005729094827" lon="8.498610070559977"><ele>585.8</ele><time>2026-04-19T07:46:51Z</time></trkpt><trkpt lat="45.79996721690592" lon="8.498553032989067"><ele>584.2</ele><time>2026-04-19T07:46:53Z</time></trkpt><trkpt lat="45.79988609229437" lon="8.498516408020196"><ele>582.6</ele><time>2026-04-19T07:46:54Z</time></trkpt><trkpt lat="45.799789770395854" lon="8.498444189555125"><ele>581.0</ele><time>2026-04-19T07:46:56Z</time></trkpt><trkpt lat="45.79967044628158" lon="8.49841452607096"><ele>581.0</ele><time>2026-04-19T07:46:58Z</time></trkpt><trkpt lat="45.799599504247205" lon="8.49836899126609"><ele>581.0</ele><time>2026-04-19T07:46:59Z</time></trkpt><trkpt lat="45.79953692324748" lon="8.498306477154355"><ele>581.0</ele><time>2026-04-19T07:47:00Z</time></trkpt><trkpt lat="45.79947115101765" lon="8.498272396990393"><ele>581.0</ele><time>2026-04-19T07:47:01Z</time></trkpt><trkpt lat="45.799409031964124" lon="8.498239071142033"><ele>581.0</ele><time>2026-04-19T07:47:02Z</time></trkpt><trkpt lat="45.79929442952873" lon="8.498223169292459"><ele>581.0</ele><time>2026-04-19T07:47:04Z</time></trkpt><trkpt lat="45.79923167912158" lon="8.498180084023497"><ele>580.5</ele><time>2026-04-19T07:47:05Z</time></trkpt><trkpt lat="45.799106319743494" lon="8.49812398281431"><ele>580.0</ele><time>2026-04-19T07:47:07Z</time></trkpt><trkpt lat="45.79903804229408" lon="8.498095124413647"><ele>579.5</ele><time>2026-04-19T07:47:07.999Z</time></trkpt><trkpt lat="45.798917848046734" lon="8.49802917975248"><ele>579.0</ele><time>2026-04-19T07:47:09.999Z</time></trkpt><trkpt lat="45.79880019512441" lon="8.497986291605462"><ele>579.0</ele><time>2026-04-19T07:47:11.999Z</time></trkpt><trkpt lat="45.79872555082168" lon="8.49794933282439"><ele>579.0</ele><time>2026-04-19T07:47:12.999Z</time></trkpt><trkpt lat="45.798663339402566" lon="8.497931051155291"><ele>579.0</ele><time>2026-04-19T07:47:13.999Z</time></trkpt><trkpt lat="45.798533575198185" lon="8.497862828889758"><ele>579.0</ele><time>2026-04-19T07:47:15.999Z</time></trkpt><trkpt lat="45.798464222947445" lon="8.497854849242382"><ele>579.0</ele><time>2026-04-19T07:47:16.999Z</time></trkpt><trkpt lat="45.798393188899745" lon="8.49784477130298"><ele>579.0</ele><time>2026-04-19T07:47:17.999Z</time></trkpt><trkpt lat="45.79826752974706" lon="8.497789228919691"><ele>578.3333333333334</ele><time>2026-04-19T07:47:19.999Z</time></trkpt><trkpt lat="45.79819999129618" lon="8.497763729894684"><ele>577.6666666666666</ele><time>2026-04-19T07:47:20.999Z</time></trkpt><trkpt lat="45.79808601047941" lon="8.497700113230268"><ele>577.0</ele><time>2026-04-19T07:47:22.999Z</time></trkpt><trkpt lat="45.79801536063734" lon="8.497665261361815"><ele>576.3333333333333</ele><time>2026-04-19T07:47:23.999Z</time></trkpt><trkpt lat="45.7979535555201" lon="8.497646331246097"><ele>575.6666666666666</ele><time>2026-04-19T07:47:24.999Z</time></trkpt><trkpt lat="45.7978854293388" lon="8.497623448038414"><ele>575.0</ele><time>2026-04-19T07:47:25.999Z</time></trkpt><trkpt lat="45.797766220501074" lon="8.497572188413878"><ele>574.8</ele><time>2026-04-19T07:47:27.999Z</time></trkpt><trkpt lat="45.79764899344069" lon="8.497567399571057"><ele>574.6</ele><time>2026-04-19T07:47:29.999Z</time></trkpt><trkpt lat="45.797562126645424" lon="8.497666320925441"><ele>574.4</ele><time>2026-04-19T07:47:31.999Z</time></trkpt><trkpt lat="45.79745471719019" lon="8.497648301592449"><ele>574.2</ele><time>2026-04-19T07:47:33.999Z</time></trkpt><trkpt lat="45.79740122620348" lon="8.497589540242783"><ele>574.0</ele><time>2026-04-19T07:47:34.999Z</time></trkpt><trkpt lat="45.79729254633955" lon="8.497573542251097"><ele>574.0</ele><time>2026-04-19T07:47:36.999Z</time></trkpt><trkpt lat="45.79723403596313" lon="8.497532915380031"><ele>574.0</ele><time>2026-04-19T07:47:37.999Z</time></trkpt><trkpt lat="45.79718105055272" lon="8.497396043605201"><ele>574.0</ele><time>2026-04-19T07:47:39.999Z</time></trkpt><trkpt lat="45.797153093267724" lon="8.497309930582407"><ele>574.0</ele><time>2026-04-19T07:47:40.999Z</time></trkpt><trkpt lat="45.797108318261266" lon="8.497244786515411"><ele>574.0</ele><time>2026-04-19T07:47:41.999Z</time></trkpt><trkpt lat="45.79707323914317" lon="8.497158955096193"><ele>574.0</ele><time>2026-04-19T07:47:42.999Z</time></trkpt><trkpt lat="45.79698062879006" lon="8.49702589461637"><ele>573.8571428571429</ele><time>2026-04-19T07:47:44.999Z</time></trkpt><trkpt lat="45.796921852497505" lon="8.496976870112489"><ele>573.7142857142858</ele><time>2026-04-19T07:47:45.999Z</time></trkpt><trkpt lat="45.79686005528029" lon="8.496926871291258"><ele>573.5714285714286</ele><time>2026-04-19T07:47:46.999Z</time></trkpt><trkpt lat="45.796803864193016" lon="8.496885179987197"><ele>573.4285714285714</ele><time>2026-04-19T07:47:47.999Z</time></trkpt><trkpt lat="45.796748169841" lon="8.496826973028"><ele>573.2857142857143</ele><time>2026-04-19T07:47:48.999Z</time></trkpt><trkpt lat="45.7966987433056" lon="8.496768071226265"><ele>573.1428571428571</ele><time>2026-04-19T07:47:49.999Z</time></trkpt><trkpt lat="45.7966506611846" lon="8.496701244067777"><ele>573.0</ele><time>2026-04-19T07:47:50.999Z</time></trkpt><trkpt lat="45.79660381562627" lon="8.496638155202982"><ele>572.75</ele><time>2026-04-19T07:47:51.999Z</time></trkpt><trkpt lat="45.796498583497076" lon="8.496523672400219"><ele>572.5</ele><time>2026-04-19T07:47:53.998Z</time></trkpt><trkpt lat="45.796393149444384" lon="8.496407411685176"><ele>572.25</ele><time>2026-04-19T07:47:55.998Z</time></trkpt><trkpt lat="45.796333539982896" lon="8.496366258351872"><ele>572.0</ele><time>2026-04-19T07:47:56.998Z</time></trkpt><trkpt lat="45.79621199394366" lon="8.496303722435234"><ele>572.0</ele><time>2026-04-19T07:47:58.998Z</time></trkpt><trkpt lat="45.79614660330826" lon="8.496261131617091"><ele>572.0</ele><time>2026-04-19T07:47:59.998Z</time></trkpt><trkpt lat="45.796089553380114" lon="8.496196329958028"><ele>572.0</ele><time>2026-04-19T07:48:00.998Z</time></trkpt><trkpt lat="45.79597954892808" lon="8.496042294834272"><ele>572.0</ele><time>2026-04-19T07:48:03.001Z</time></trkpt><trkpt lat="45.79587354029333" lon="8.495956234123632"><ele>572.0</ele><time>2026-04-19T07:48:05.001Z</time></trkpt><trkpt lat="45.79581560319492" lon="8.49591703682439"><ele>571.2</ele><time>2026-04-19T07:48:06.001Z</time></trkpt><trkpt lat="45.7956915397487" lon="8.495906543432689"><ele>570.4000000000001</ele><time>2026-04-19T07:48:08.001Z</time></trkpt><trkpt lat="45.795622328620716" lon="8.495934489689029"><ele>569.5999999999999</ele><time>2026-04-19T07:48:09.001Z</time></trkpt><trkpt lat="45.79555666576143" lon="8.495967186905538"><ele>568.8</ele><time>2026-04-19T07:48:10.001Z</time></trkpt><trkpt lat="45.795440639730856" lon="8.495978907379092"><ele>568.0</ele><time>2026-04-19T07:48:12.001Z</time></trkpt><trkpt lat="45.795339555223045" lon="8.49593295721087"><ele>568.0</ele><time>2026-04-19T07:48:14.001Z</time></trkpt><trkpt lat="45.79527269794233" lon="8.495922258913394"><ele>568.0</ele><time>2026-04-19T07:48:15.001Z</time></trkpt><trkpt lat="45.795182872157824" lon="8.496008875221778"><ele>568.0</ele><time>2026-04-19T07:48:17.001Z</time></trkpt><trkpt lat="45.79509497139771" lon="8.496134434235133"><ele>568.0</ele><time>2026-04-19T07:48:19.001Z</time></trkpt><trkpt lat="45.79504496325328" lon="8.496192776488293"><ele>568.0</ele><time>2026-04-19T07:48:20.001Z</time></trkpt><trkpt lat="45.79498998483447" lon="8.496251055504564"><ele>568.0</ele><time>2026-04-19T07:48:21.001Z</time></trkpt><trkpt lat="45.794896127652095" lon="8.49636263157425"><ele>567.8333333333334</ele><time>2026-04-19T07:48:23.001Z</time></trkpt><trkpt lat="45.794831485326235" lon="8.496401870131988"><ele>567.6666666666667</ele><time>2026-04-19T07:48:24.001Z</time></trkpt><trkpt lat="45.7947823393802" lon="8.49646367239701"><ele>567.5</ele><time>2026-04-19T07:48:25.001Z</time></trkpt><trkpt lat="45.79467882937664" lon="8.496570707889724"><ele>567.3333333333334</ele><time>2026-04-19T07:48:27Z</time></trkpt><trkpt lat="45.79462867647563" lon="8.496634679608771"><ele>567.1666666666666</ele><time>2026-04-19T07:48:28Z</time></trkpt><trkpt lat="45.794521241540814" lon="8.496686355422467"><ele>567.0</ele><time>2026-04-19T07:48:30Z</time></trkpt><trkpt lat="45.79440188226895" lon="8.496717585800933"><ele>564.5</ele><time>2026-04-19T07:48:32Z</time></trkpt><trkpt lat="45.79428577462297" lon="8.496710171920274"><ele>562.0</ele><time>2026-04-19T07:48:34Z</time></trkpt><trkpt lat="45.794158489282445" lon="8.496698794640007"><ele>559.5</ele><time>2026-04-19T07:48:36Z</time></trkpt><trkpt lat="45.79403601819291" lon="8.49678247023411"><ele>557.0</ele><time>2026-04-19T07:48:38Z</time></trkpt><trkpt lat="45.79397814106655" lon="8.496853959359685"><ele>557.0</ele><time>2026-04-19T07:48:39Z</time></trkpt><trkpt lat="45.79392192250412" lon="8.49692348130327"><ele>557.0</ele><time>2026-04-19T07:48:40Z</time></trkpt><trkpt lat="45.79386840152474" lon="8.496992238773654"><ele>557.0</ele><time>2026-04-19T07:48:41Z</time></trkpt><trkpt lat="45.79380555579578" lon="8.49704065674958"><ele>557.0</ele><time>2026-04-19T07:48:42Z</time></trkpt><trkpt lat="45.793739579583665" lon="8.497057192819051"><ele>557.0</ele><time>2026-04-19T07:48:43Z</time></trkpt><trkpt lat="45.793614534127805" lon="8.497063827639634"><ele>557.0</ele><time>2026-04-19T07:48:45Z</time></trkpt><trkpt lat="45.79350120689245" lon="8.496990199264115"><ele>557.3333333333333</ele><time>2026-04-19T07:48:47Z</time></trkpt><trkpt lat="45.79345004148769" lon="8.496925974421988"><ele>557.6666666666666</ele><time>2026-04-19T07:48:48Z</time></trkpt><trkpt lat="45.79340080870007" lon="8.496865838808487"><ele>558.0</ele><time>2026-04-19T07:48:49Z</time></trkpt><trkpt lat="45.793350695065385" lon="8.49681028761807"><ele>558.3333333333334</ele><time>2026-04-19T07:48:50Z</time></trkpt><trkpt lat="45.7932606311812" lon="8.49669455232691"><ele>558.6666666666667</ele><time>2026-04-19T07:48:52Z</time></trkpt><trkpt lat="45.79315339456351" lon="8.496608364902698"><ele>559.0</ele><time>2026-04-19T07:48:54Z</time></trkpt><trkpt lat="45.79309261549635" lon="8.496569566910898"><ele>559.0</ele><time>2026-04-19T07:48:55Z</time></trkpt><trkpt lat="45.792984861683145" lon="8.49651175702623"><ele>559.0</ele><time>2026-04-19T07:48:57Z</time></trkpt><trkpt lat="45.792873466990365" lon="8.496461747552223"><ele>559.0</ele><time>2026-04-19T07:48:59Z</time></trkpt><trkpt lat="45.79278284656192" lon="8.49640884381947"><ele>559.0</ele><time>2026-04-19T07:49:01Z</time></trkpt><trkpt lat="45.79272205412808" lon="8.496208209506893"><ele>559.5</ele><time>2026-04-19T07:49:03Z</time></trkpt><trkpt lat="45.79267456484078" lon="8.496124565942143"><ele>560.0</ele><time>2026-04-19T07:49:04Z</time></trkpt><trkpt lat="45.79261219480253" lon="8.496062559535895"><ele>560.5</ele><time>2026-04-19T07:49:04.999Z</time></trkpt><trkpt lat="45.79251155948626" lon="8.495955542105143"><ele>561.0</ele><time>2026-04-19T07:49:06.999Z</time></trkpt><trkpt lat="45.792455458872276" lon="8.495895308703815"><ele>561.5</ele><time>2026-04-19T07:49:07.999Z</time></trkpt><trkpt lat="45.792389906746756" lon="8.495831838234107"><ele>562.0</ele><time>2026-04-19T07:49:08.999Z</time></trkpt><trkpt lat="45.79232643032822" lon="8.495767712243019"><ele>560.6666666666667</ele><time>2026-04-19T07:49:09.999Z</time></trkpt><trkpt lat="45.792272264430444" lon="8.495691060037805"><ele>559.3333333333334</ele><time>2026-04-19T07:49:10.999Z</time></trkpt><trkpt lat="45.79222998894177" lon="8.495607970362132"><ele>558.0</ele><time>2026-04-19T07:49:11.999Z</time></trkpt><trkpt lat="45.79208522230726" lon="8.495586251120976"><ele>556.6666666666666</ele><time>2026-04-19T07:49:13.999Z</time></trkpt><trkpt lat="45.792005348032475" lon="8.495574340142904"><ele>555.3333333333333</ele><time>2026-04-19T07:49:14.999Z</time></trkpt><trkpt lat="45.791939157349056" lon="8.495541500402586"><ele>554.0</ele><time>2026-04-19T07:49:15.999Z</time></trkpt><trkpt lat="45.791871927131346" lon="8.495498389287881"><ele>553.7142857142857</ele><time>2026-04-19T07:49:16.999Z</time></trkpt><trkpt lat="45.79181002929085" lon="8.495452639199891"><ele>553.4285714285713</ele><time>2026-04-19T07:49:17.999Z</time></trkpt><trkpt lat="45.791755715287344" lon="8.495406607832802"><ele>553.1428571428571</ele><time>2026-04-19T07:49:18.999Z</time></trkpt><trkpt lat="45.79169573367483" lon="8.495350940981963"><ele>552.8571428571429</ele><time>2026-04-19T07:49:19.999Z</time></trkpt><trkpt lat="45.791640977093174" lon="8.495299574141853"><ele>552.5714285714287</ele><time>2026-04-19T07:49:20.999Z</time></trkpt><trkpt lat="45.79158652035019" lon="8.495242713067375"><ele>552.2857142857143</ele><time>2026-04-19T07:49:21.999Z</time></trkpt><trkpt lat="45.79152849153424" lon="8.495183389443877"><ele>552.0</ele><time>2026-04-19T07:49:22.999Z</time></trkpt><trkpt lat="45.79146992370438" lon="8.495121247201833"><ele>552.0</ele><time>2026-04-19T07:49:23.999Z</time></trkpt><trkpt lat="45.79141944099095" lon="8.495066949478941"><ele>552.0</ele><time>2026-04-19T07:49:24.999Z</time></trkpt><trkpt lat="45.79135848862918" lon="8.495002336428717"><ele>552.0</ele><time>2026-04-19T07:49:25.999Z</time></trkpt><trkpt lat="45.79130380181538" lon="8.494945129177436"><ele>552.0</ele><time>2026-04-19T07:49:26.999Z</time></trkpt><trkpt lat="45.791253374524366" lon="8.494885278965258"><ele>552.0</ele><time>2026-04-19T07:49:27.999Z</time></trkpt><trkpt lat="45.79118384650521" lon="8.494739006114962"><ele>552.0</ele><time>2026-04-19T07:49:29.999Z</time></trkpt><trkpt lat="45.79114620252664" lon="8.494658852089458"><ele>552.0</ele><time>2026-04-19T07:49:30.999Z</time></trkpt><trkpt lat="45.79111610436368" lon="8.494576134138226"><ele>552.0</ele><time>2026-04-19T07:49:31.999Z</time></trkpt><trkpt lat="45.79105848069815" lon="8.494434785452547"><ele>552.0</ele><time>2026-04-19T07:49:33.999Z</time></trkpt><trkpt lat="45.79101463956052" lon="8.494267508244572"><ele>552.0</ele><time>2026-04-19T07:49:35.999Z</time></trkpt><trkpt lat="45.79091007385417" lon="8.494144098152706"><ele>552.0</ele><time>2026-04-19T07:49:37.999Z</time></trkpt><trkpt lat="45.7908098625193" lon="8.49407001268421"><ele>551.0</ele><time>2026-04-19T07:49:39.999Z</time></trkpt><trkpt lat="45.79071530020206" lon="8.493994961484564"><ele>550.0</ele><time>2026-04-19T07:49:41.999Z</time></trkpt><trkpt lat="45.79062223761739" lon="8.493931680100133"><ele>549.0</ele><time>2026-04-19T07:49:43.999Z</time></trkpt><trkpt lat="45.7905304799501" lon="8.49387930889283"><ele>548.0</ele><time>2026-04-19T07:49:45.999Z</time></trkpt><trkpt lat="45.79045034543802" lon="8.493813165732474"><ele>547.0</ele><time>2026-04-19T07:49:47.999Z</time></trkpt><trkpt lat="45.79036910238603" lon="8.493769541386435"><ele>547.2</ele><time>2026-04-19T07:49:49.998Z</time></trkpt><trkpt lat="45.79028275004385" lon="8.493745477056969"><ele>547.4000000000001</ele><time>2026-04-19T07:49:51.998Z</time></trkpt><trkpt lat="45.79019774309569" lon="8.493727674165086"><ele>547.5999999999999</ele><time>2026-04-19T07:49:53.998Z</time></trkpt><trkpt lat="45.79011527128134" lon="8.493702350124092"><ele>547.8</ele><time>2026-04-19T07:49:55.998Z</time></trkpt><trkpt lat="45.79002777262599" lon="8.493652624148195"><ele>548.0</ele><time>2026-04-19T07:49:57.998Z</time></trkpt><trkpt lat="45.789923979241344" lon="8.493601877670262"><ele>548.0</ele><time>2026-04-19T07:49:59.998Z</time></trkpt><trkpt lat="45.78983480924372" lon="8.493532342842807"><ele>548.0</ele><time>2026-04-19T07:50:01.998Z</time></trkpt><trkpt lat="45.78973989910023" lon="8.493466784951643"><ele>548.0</ele><time>2026-04-19T07:50:03.998Z</time></trkpt><trkpt lat="45.78963834681858" lon="8.493396555660734"><ele>548.0</ele><time>2026-04-19T07:50:05.998Z</time></trkpt><trkpt lat="45.78956881377511" lon="8.493325888248311"><ele>548.0</ele><time>2026-04-19T07:50:08.001Z</time></trkpt><trkpt lat="45.78950156417966" lon="8.493270844559383"><ele>548.0</ele><time>2026-04-19T07:50:10.001Z</time></trkpt><trkpt lat="45.789447941751746" lon="8.493214822513607"><ele>548.0</ele><time>2026-04-19T07:50:12.001Z</time></trkpt><trkpt lat="45.789469612611306" lon="8.493016625598717"><ele>548.0</ele><time>2026-04-19T07:50:14.001Z</time></trkpt><trkpt lat="45.78947604258915" lon="8.492889499179295"><ele>548.0</ele><time>2026-04-19T07:50:16.001Z</time></trkpt><trkpt lat="45.789486120781746" lon="8.492783909674843"><ele>548.0</ele><time>2026-04-19T07:50:19.001Z</time></trkpt><trkpt lat="45.78947820037094" lon="8.492672708825332"><ele>548.0</ele><time>2026-04-19T07:50:22.001Z</time></trkpt><trkpt lat="45.78938275902338" lon="8.49264649115826"><ele>548.1999999999999</ele><time>2026-04-19T07:50:25.001Z</time></trkpt><trkpt lat="45.78943603529547" lon="8.492435461345172"><ele>548.4</ele><time>2026-04-19T07:50:27Z</time></trkpt><trkpt lat="45.78939611905909" lon="8.492325461287805"><ele>548.5999999999999</ele><time>2026-04-19T07:50:29Z</time></trkpt><trkpt lat="45.7893725120182" lon="8.492228250699952"><ele>548.8</ele><time>2026-04-19T07:50:31Z</time></trkpt><trkpt lat="45.78933901234655" lon="8.492145077840997"><ele>549.0</ele><time>2026-04-19T07:50:33Z</time></trkpt><trkpt lat="45.78931029865706" lon="8.492046583787346"><ele>548.0</ele><time>2026-04-19T07:50:35Z</time></trkpt><trkpt lat="45.789270807535225" lon="8.491949141033182"><ele>547.0</ele><time>2026-04-19T07:50:38Z</time></trkpt><trkpt lat="45.789236570384226" lon="8.4918634637549"><ele>546.0</ele><time>2026-04-19T07:50:40Z</time></trkpt><trkpt lat="45.789186015399125" lon="8.49176135342877"><ele>545.0</ele><time>2026-04-19T07:50:42Z</time></trkpt><trkpt lat="45.789110924568575" lon="8.491663300127687"><ele>544.0</ele><time>2026-04-19T07:50:44Z</time></trkpt><trkpt lat="45.78902628766581" lon="8.491584100841187"><ele>543.0</ele><time>2026-04-19T07:50:46Z</time></trkpt><trkpt lat="45.78894921014056" lon="8.491514000042397"><ele>543.0</ele><time>2026-04-19T07:50:48Z</time></trkpt><trkpt lat="45.788871287279164" lon="8.491437148036676"><ele>543.0</ele><time>2026-04-19T07:50:50Z</time></trkpt><trkpt lat="45.788820007052095" lon="8.491344908986225"><ele>543.0</ele><time>2026-04-19T07:50:53Z</time></trkpt><trkpt lat="45.78878751064607" lon="8.491254626798474"><ele>543.0</ele><time>2026-04-19T07:50:55Z</time></trkpt><trkpt lat="45.788755662516785" lon="8.491169547339075"><ele>543.0</ele><time>2026-04-19T07:51:00Z</time></trkpt><trkpt lat="45.78870665744452" lon="8.491098800325704"><ele>543.0</ele><time>2026-04-19T07:52:12.998Z</time></trkpt><trkpt lat="45.78863663428352" lon="8.491077558382868"><ele>542.7142857142858</ele><time>2026-04-19T07:52:18.001Z</time></trkpt><trkpt lat="45.78857432238515" lon="8.491055970145382"><ele>542.4285714285714</ele><time>2026-04-19T07:52:20.001Z</time></trkpt><trkpt lat="45.788512465108795" lon="8.491018099106167"><ele>542.1428571428571</ele><time>2026-04-19T07:52:22.001Z</time></trkpt><trkpt lat="45.78845532779787" lon="8.491075456020564"><ele>541.8571428571429</ele><time>2026-04-19T07:52:25Z</time></trkpt><trkpt lat="45.788388535430045" lon="8.491081174253171"><ele>541.5714285714286</ele><time>2026-04-19T07:52:29Z</time></trkpt><trkpt lat="45.788325669061884" lon="8.491096547110505"><ele>541.2857142857143</ele><time>2026-04-19T07:52:39Z</time></trkpt><trkpt lat="45.78825674493058" lon="8.49106587807275"><ele>541.0</ele><time>2026-04-19T07:52:51Z</time></trkpt><trkpt lat="45.78821342353558" lon="8.490951577789179"><ele>541.0</ele><time>2026-04-19T07:52:54Z</time></trkpt><trkpt lat="45.788116597721405" lon="8.490927093572404"><ele>541.0</ele><time>2026-04-19T07:52:56Z</time></trkpt><trkpt lat="45.78802516302509" lon="8.490914027152279"><ele>541.0</ele><time>2026-04-19T07:52:58Z</time></trkpt><trkpt lat="45.78792350399968" lon="8.490901024223655"><ele>541.0</ele><time>2026-04-19T07:53:00Z</time></trkpt><trkpt lat="45.7878603818545" lon="8.490897383678572"><ele>541.0</ele><time>2026-04-19T07:53:01Z</time></trkpt><trkpt lat="45.787787699261635" lon="8.490870962808703"><ele>541.0</ele><time>2026-04-19T07:53:02Z</time></trkpt><trkpt lat="45.787669102122216" lon="8.490857475327624"><ele>540.4</ele><time>2026-04-19T07:53:04Z</time></trkpt><trkpt lat="45.78759541592332" lon="8.490840092911661"><ele>539.8</ele><time>2026-04-19T07:53:05Z</time></trkpt><trkpt lat="45.787506992949005" lon="8.49082437417613"><ele>539.1999999999999</ele><time>2026-04-19T07:53:05.999Z</time></trkpt><trkpt lat="45.78741546637016" lon="8.49081500180804"><ele>538.6</ele><time>2026-04-19T07:53:06.999Z</time></trkpt><trkpt lat="45.78730375617081" lon="8.490878755882163"><ele>538.0</ele><time>2026-04-19T07:53:08.999Z</time></trkpt><trkpt lat="45.787179342385905" lon="8.490918149489604"><ele>538.0</ele><time>2026-04-19T07:53:10.999Z</time></trkpt><trkpt lat="45.78710413360836" lon="8.490929747239754"><ele>538.0</ele><time>2026-04-19T07:53:11.999Z</time></trkpt><trkpt lat="45.78703074052822" lon="8.49095093275299"><ele>538.0</ele><time>2026-04-19T07:53:12.999Z</time></trkpt><trkpt lat="45.78696193983135" lon="8.490970395198206"><ele>538.0</ele><time>2026-04-19T07:53:13.999Z</time></trkpt><trkpt lat="45.78686650829245" lon="8.491077487100107"><ele>538.0</ele><time>2026-04-19T07:53:15.999Z</time></trkpt><trkpt lat="45.78687538815251" lon="8.491190524202961"><ele>538.0</ele><time>2026-04-19T07:53:16.999Z</time></trkpt><trkpt lat="45.7868720701638" lon="8.49135146407936"><ele>536.6</ele><time>2026-04-19T07:53:18.999Z</time></trkpt><trkpt lat="45.78682860775708" lon="8.491524232760757"><ele>535.1999999999999</ele><time>2026-04-19T07:53:20.999Z</time></trkpt><trkpt lat="45.78673013179902" lon="8.491641572986012"><ele>533.8</ele><time>2026-04-19T07:53:22.999Z</time></trkpt><trkpt lat="45.78666923958284" lon="8.491685728861064"><ele>532.4</ele><time>2026-04-19T07:53:23.999Z</time></trkpt><trkpt lat="45.786598419216986" lon="8.491707230445149"><ele>531.0</ele><time>2026-04-19T07:53:24.999Z</time></trkpt><trkpt lat="45.78647795231995" lon="8.491786172922154"><ele>531.0</ele><time>2026-04-19T07:53:26.999Z</time></trkpt><trkpt lat="45.78640968218012" lon="8.491814702916022"><ele>531.0</ele><time>2026-04-19T07:53:27.999Z</time></trkpt><trkpt lat="45.78633932856103" lon="8.491815913759588"><ele>531.0</ele><time>2026-04-19T07:53:28.999Z</time></trkpt><trkpt lat="45.78632552693668" lon="8.491707876154235"><ele>531.0</ele><time>2026-04-19T07:53:32.999Z</time></trkpt><trkpt lat="45.78632719923291" lon="8.49154098704569"><ele>531.0</ele><time>2026-04-19T07:53:34.999Z</time></trkpt><trkpt lat="45.7863249386578" lon="8.491385323586147"><ele>531.0</ele><time>2026-04-19T07:53:36.999Z</time></trkpt><trkpt lat="45.78634893949112" lon="8.491293993663216"><ele>531.8571428571429</ele><time>2026-04-19T07:53:37.999Z</time></trkpt><trkpt lat="45.786362433720775" lon="8.491204646130328"><ele>532.7142857142858</ele><time>2026-04-19T07:53:38.999Z</time></trkpt><trkpt lat="45.78638686571817" lon="8.491118273328745"><ele>533.5714285714286</ele><time>2026-04-19T07:53:40.999Z</time></trkpt><trkpt lat="45.78640658619188" lon="8.491026871712535"><ele>534.4285714285714</ele><time>2026-04-19T07:53:42.999Z</time></trkpt><trkpt lat="45.78642360104895" lon="8.490905584273026"><ele>535.2857142857142</ele><time>2026-04-19T07:53:44.999Z</time></trkpt><trkpt lat="45.78642702956324" lon="8.49080079602168"><ele>536.1428571428571</ele><time>2026-04-19T07:53:46.998Z</time></trkpt><trkpt lat="45.78639559385606" lon="8.49070728650344"><ele>537.0</ele><time>2026-04-19T07:53:49.998Z</time></trkpt><trkpt lat="45.786324448052554" lon="8.490695120173307"><ele>536.9999999999999</ele><time>2026-04-19T07:53:52.998Z</time></trkpt><trkpt lat="45.78624587356662" lon="8.490713234919053"><ele>537.0</ele><time>2026-04-19T07:53:56.998Z</time></trkpt><trkpt lat="45.78618049913409" lon="8.490716479252184"><ele>537.0</ele><time>2026-04-19T07:54:17.998Z</time></trkpt><trkpt lat="45.786115388175375" lon="8.490740606993198"><ele>537.0</ele><time>2026-04-19T07:54:32Z</time></trkpt><trkpt lat="45.78605261116648" lon="8.490756042578704"><ele>537.0</ele><time>2026-04-19T07:55:13.999Z</time></trkpt><trkpt lat="45.78598541334461" lon="8.490740286226997"><ele>536.9999999999999</ele><time>2026-04-19T07:55:24.999Z</time></trkpt><trkpt lat="45.78591845274173" lon="8.49072442999853"><ele>537.0</ele><time>2026-04-19T07:55:33.999Z</time></trkpt><trkpt lat="45.78585142207972" lon="8.490719627218393"><ele>537.5714285714286</ele><time>2026-04-19T07:55:47.998Z</time></trkpt><trkpt lat="45.78579042994598" lon="8.490685374210315"><ele>538.1428571428571</ele><time>2026-04-19T07:55:56.998Z</time></trkpt><trkpt lat="45.78572251414073" lon="8.490663671115682"><ele>538.7142857142858</ele><time>2026-04-19T07:56:05.998Z</time></trkpt><trkpt lat="45.785651645169246" lon="8.490648693224236"><ele>539.2857142857142</ele><time>2026-04-19T07:56:13.998Z</time></trkpt><trkpt lat="45.785588626903085" lon="8.490649547209228"><ele>539.8571428571429</ele><time>2026-04-19T07:56:19.998Z</time></trkpt><trkpt lat="45.78553435768275" lon="8.490595861056205"><ele>540.4285714285714</ele><time>2026-04-19T07:56:30Z</time></trkpt><trkpt lat="45.7854934574291" lon="8.4905208023139"><ele>541.0</ele><time>2026-04-19T07:56:39Z</time></trkpt><trkpt lat="45.78542677847745" lon="8.490482603573835"><ele>541.0000000000001</ele><time>2026-04-19T07:56:53Z</time></trkpt><trkpt lat="45.78536293937167" lon="8.49045784815387"><ele>541.0</ele><time>2026-04-19T07:57:01Z</time></trkpt><trkpt lat="45.785314335942566" lon="8.490389537920189"><ele>541.0</ele><time>2026-04-19T07:57:11.999Z</time></trkpt><trkpt lat="45.78529312384301" lon="8.490264671880372"><ele>541.0</ele><time>2026-04-19T07:57:33.999Z</time></trkpt><trkpt lat="45.78524485991764" lon="8.490204272549288"><ele>541.0</ele><time>2026-04-19T07:57:43.999Z</time></trkpt><trkpt lat="45.78521008416823" lon="8.490112322186551"><ele>541.0000000000001</ele><time>2026-04-19T07:58:05.998Z</time></trkpt><trkpt lat="45.78515342615167" lon="8.490061986287591"><ele>541.0</ele><time>2026-04-19T07:58:18.998Z</time></trkpt><trkpt lat="45.78509201744635" lon="8.490022410638526"><ele>544.8571428571429</ele><time>2026-04-19T07:58:28.998Z</time></trkpt><trkpt lat="45.78503825784883" lon="8.489908735886738"><ele>548.7142857142858</ele><time>2026-04-19T07:58:48Z</time></trkpt><trkpt lat="45.784980383957745" lon="8.489871659661642"><ele>552.5714285714286</ele><time>2026-04-19T07:58:59Z</time></trkpt><trkpt lat="45.78495109833113" lon="8.489789274350068"><ele>556.4285714285714</ele><time>2026-04-19T07:59:13.999Z</time></trkpt><trkpt lat="45.784933440086625" lon="8.48968821737911"><ele>560.2857142857142</ele><time>2026-04-19T07:59:26.999Z</time></trkpt><trkpt lat="45.78489884726621" lon="8.489604560889482"><ele>564.1428571428571</ele><time>2026-04-19T07:59:37.999Z</time></trkpt><trkpt lat="45.78485165343972" lon="8.489522886111716"><ele>568.0</ele><time>2026-04-19T08:01:28.999Z</time></trkpt><trkpt lat="45.78478870770313" lon="8.489426760039159"><ele>570.1666666666667</ele><time>2026-04-19T08:01:32.999Z</time></trkpt><trkpt lat="45.7847068526352" lon="8.489384801649804"><ele>572.3333333333334</ele><time>2026-04-19T08:01:36.999Z</time></trkpt><trkpt lat="45.78463978127806" lon="8.489357857475609"><ele>574.5</ele><time>2026-04-19T08:01:38.999Z</time></trkpt><trkpt lat="45.78456705753278" lon="8.489294721545791"><ele>576.6666666666666</ele><time>2026-04-19T08:01:40.999Z</time></trkpt><trkpt lat="45.78448661528684" lon="8.489217359864094"><ele>578.8333333333333</ele><time>2026-04-19T08:01:42.999Z</time></trkpt><trkpt lat="45.784392827690205" lon="8.48919587241089"><ele>581.0</ele><time>2026-04-19T08:01:44.999Z</time></trkpt><trkpt lat="45.784311475237345" lon="8.489178955459948"><ele>581.0</ele><time>2026-04-19T08:01:46.999Z</time></trkpt><trkpt lat="45.78421491331008" lon="8.489140699416659"><ele>581.0</ele><time>2026-04-19T08:01:48.999Z</time></trkpt><trkpt lat="45.784131793908145" lon="8.489106482066648"><ele>581.0</ele><time>2026-04-19T08:01:50.999Z</time></trkpt><trkpt lat="45.784067957315386" lon="8.489095828970994"><ele>581.0</ele><time>2026-04-19T08:01:52.999Z</time></trkpt><trkpt lat="45.78400154940023" lon="8.489086296422832"><ele>581.0</ele><time>2026-04-19T08:01:56.999Z</time></trkpt><trkpt lat="45.783929826093114" lon="8.489112622825642"><ele>581.0</ele><time>2026-04-19T08:02:00.998Z</time></trkpt><trkpt lat="45.78385017897494" lon="8.489134630397848"><ele>581.0</ele><time>2026-04-19T08:02:03.998Z</time></trkpt><trkpt lat="45.783778672669804" lon="8.48914676516535"><ele>581.0</ele><time>2026-04-19T08:02:07.998Z</time></trkpt><trkpt lat="45.78371906316809" lon="8.489209550369287"><ele>581.0</ele><time>2026-04-19T08:03:15Z</time></trkpt><trkpt lat="45.783632356488" lon="8.489235972962135"><ele>581.0</ele><time>2026-04-19T08:03:34.999Z</time></trkpt><trkpt lat="45.7835726882505" lon="8.489291290051519"><ele>581.0</ele><time>2026-04-19T08:03:38.999Z</time></trkpt><trkpt lat="45.78352778447261" lon="8.489383369969142"><ele>581.0</ele><time>2026-04-19T08:03:41.999Z</time></trkpt><trkpt lat="45.78347077387905" lon="8.489428667021468"><ele>581.0</ele><time>2026-04-19T08:03:43.999Z</time></trkpt><trkpt lat="45.78340480476895" lon="8.489463200839051"><ele>580.8333333333333</ele><time>2026-04-19T08:03:45.999Z</time></trkpt><trkpt lat="45.783344229589744" lon="8.489540518921084"><ele>580.6666666666666</ele><time>2026-04-19T08:03:47.999Z</time></trkpt><trkpt lat="45.783264300202255" lon="8.489612723042466"><ele>580.5</ele><time>2026-04-19T08:03:51.999Z</time></trkpt><trkpt lat="45.78319144486152" lon="8.489668296548889"><ele>580.3333333333334</ele><time>2026-04-19T08:03:53.999Z</time></trkpt><trkpt lat="45.783123512371255" lon="8.489692016767288"><ele>580.1666666666667</ele><time>2026-04-19T08:03:56.999Z</time></trkpt><trkpt lat="45.78303413571571" lon="8.489712230070792"><ele>580.0</ele><time>2026-04-19T08:03:59.999Z</time></trkpt><trkpt lat="45.78296938444588" lon="8.48976779529828"><ele>576.0</ele><time>2026-04-19T08:04:02.998Z</time></trkpt><trkpt lat="45.78286125603974" lon="8.489814767043274"><ele>572.0</ele><time>2026-04-19T08:04:05.998Z</time></trkpt><trkpt lat="45.78280663692643" lon="8.489872482134993"><ele>568.0</ele><time>2026-04-19T08:04:07.998Z</time></trkpt><trkpt lat="45.78272903285182" lon="8.489906438184551"><ele>564.0</ele><time>2026-04-19T08:04:11.998Z</time></trkpt><trkpt lat="45.78266590392194" lon="8.489932923953669"><ele>560.0</ele><time>2026-04-19T08:04:14.998Z</time></trkpt><trkpt lat="45.78260461809434" lon="8.489994036123317"><ele>556.0</ele><time>2026-04-19T08:04:20.998Z</time></trkpt><trkpt lat="45.782533273333556" lon="8.490043293640708"><ele>556.0</ele><time>2026-04-19T08:04:24.998Z</time></trkpt><trkpt lat="45.782481680691596" lon="8.490106351445348"><ele>556.0</ele><time>2026-04-19T08:04:28.998Z</time></trkpt><trkpt lat="45.78241024677281" lon="8.490113341804316"><ele>556.0</ele><time>2026-04-19T08:04:31.998Z</time></trkpt><trkpt lat="45.78234033442401" lon="8.49006365508911"><ele>556.0</ele><time>2026-04-19T08:04:37.998Z</time></trkpt><trkpt lat="45.78226465841638" lon="8.490024691349404"><ele>556.0</ele><time>2026-04-19T08:04:42.998Z</time></trkpt><trkpt lat="45.782208793712456" lon="8.490073560594176"><ele>556.0</ele><time>2026-04-19T08:04:47.997Z</time></trkpt><trkpt lat="45.782137180608935" lon="8.49007283619485"><ele>556.0</ele><time>2026-04-19T08:04:51Z</time></trkpt><trkpt lat="45.78206279374538" lon="8.49013665040549"><ele>556.0</ele><time>2026-04-19T08:04:54Z</time></trkpt><trkpt lat="45.78199781776009" lon="8.490188150282268"><ele>556.0</ele><time>2026-04-19T08:04:56Z</time></trkpt><trkpt lat="45.78190384783602" lon="8.490206439840202"><ele>556.0</ele><time>2026-04-19T08:04:58Z</time></trkpt><trkpt lat="45.78183593874041" lon="8.490175776922413"><ele>556.0</ele><time>2026-04-19T08:04:59Z</time></trkpt><trkpt lat="45.78177806827137" lon="8.490104756033103"><ele>556.0</ele><time>2026-04-19T08:05:01Z</time></trkpt><trkpt lat="45.78171081565309" lon="8.490048382779104"><ele>556.0</ele><time>2026-04-19T08:05:03Z</time></trkpt><trkpt lat="45.781635389122826" lon="8.490044421944681"><ele>553.5714285714286</ele><time>2026-04-19T08:05:05Z</time></trkpt><trkpt lat="45.781550257441694" lon="8.489992890200707"><ele>551.1428571428571</ele><time>2026-04-19T08:05:09Z</time></trkpt><trkpt lat="45.78147705926696" lon="8.489963362706815"><ele>548.7142857142858</ele><time>2026-04-19T08:05:11Z</time></trkpt><trkpt lat="45.78140810205251" lon="8.489942928579897"><ele>546.2857142857142</ele><time>2026-04-19T08:05:13Z</time></trkpt><trkpt lat="45.78134612840844" lon="8.489924227130741"><ele>543.8571428571429</ele><time>2026-04-19T08:05:18Z</time></trkpt><trkpt lat="45.781282090539534" lon="8.489865608651188"><ele>541.4285714285714</ele><time>2026-04-19T08:05:33.999Z</time></trkpt><trkpt lat="45.7812185287283" lon="8.489822320461847"><ele>539.0</ele><time>2026-04-19T08:05:42.999Z</time></trkpt><trkpt lat="45.78115090214234" lon="8.489773093305741"><ele>539.0</ele><time>2026-04-19T08:05:45.999Z</time></trkpt><trkpt lat="45.78108181354936" lon="8.48970861007838"><ele>539.0</ele><time>2026-04-19T08:05:47.999Z</time></trkpt><trkpt lat="45.781015585058874" lon="8.489619751906895"><ele>539.0</ele><time>2026-04-19T08:05:49.999Z</time></trkpt><trkpt lat="45.780944481878166" lon="8.48953479735284"><ele>539.0</ele><time>2026-04-19T08:05:51.999Z</time></trkpt><trkpt lat="45.78088561186573" lon="8.489482297439812"><ele>539.0</ele><time>2026-04-19T08:05:55.999Z</time></trkpt><trkpt lat="45.78082229629053" lon="8.489474461392103"><ele>539.0</ele><time>2026-04-19T08:05:58.999Z</time></trkpt><trkpt lat="45.780751622474064" lon="8.489492518813845"><ele>539.7142857142857</ele><time>2026-04-19T08:06:00.999Z</time></trkpt><trkpt lat="45.78068859457315" lon="8.48946543840596"><ele>540.4285714285714</ele><time>2026-04-19T08:06:02.999Z</time></trkpt><trkpt lat="45.78060887853282" lon="8.489416832015594"><ele>541.1428571428571</ele><time>2026-04-19T08:06:05.998Z</time></trkpt><trkpt lat="45.780540688488664" lon="8.489405148053674"><ele>541.8571428571429</ele><time>2026-04-19T08:06:07.998Z</time></trkpt><trkpt lat="45.78045920293432" lon="8.4894086588322"><ele>542.5714285714286</ele><time>2026-04-19T08:06:10.998Z</time></trkpt><trkpt lat="45.78038355426445" lon="8.489393395859253"><ele>543.2857142857142</ele><time>2026-04-19T08:06:13.998Z</time></trkpt><trkpt lat="45.780320090716124" lon="8.489396180750791"><ele>544.0</ele><time>2026-04-19T08:06:16.998Z</time></trkpt><trkpt lat="45.780252820838164" lon="8.48941837083409"><ele>541.3333333333334</ele><time>2026-04-19T08:06:19.998Z</time></trkpt><trkpt lat="45.78017219693266" lon="8.489413991954907"><ele>538.6666666666667</ele><time>2026-04-19T08:06:22.998Z</time></trkpt><trkpt lat="45.78009046270994" lon="8.489420692694297"><ele>536.0</ele><time>2026-04-19T08:06:25.998Z</time></trkpt><trkpt lat="45.77998796358602" lon="8.489418075755706"><ele>533.3333333333334</ele><time>2026-04-19T08:06:27.998Z</time></trkpt><trkpt lat="45.77989572300144" lon="8.489418346716667"><ele>530.6666666666666</ele><time>2026-04-19T08:06:29.998Z</time></trkpt><trkpt lat="45.77982104741264" lon="8.489405869212236"><ele>528.0</ele><time>2026-04-19T08:06:32.998Z</time></trkpt><trkpt lat="45.779746460662395" lon="8.489402867423681"><ele>528.0</ele><time>2026-04-19T08:06:36.998Z</time></trkpt><trkpt lat="45.77968147859668" lon="8.48939047970312"><ele>528.0</ele><time>2026-04-19T08:06:39.998Z</time></trkpt><trkpt lat="45.779604875246775" lon="8.489375950539916"><ele>528.0</ele><time>2026-04-19T08:06:42.998Z</time></trkpt><trkpt lat="45.779529248531084" lon="8.489383004812664"><ele>528.0</ele><time>2026-04-19T08:06:46.997Z</time></trkpt><trkpt lat="45.779444171526244" lon="8.489359026599592"><ele>528.0</ele><time>2026-04-19T08:06:50.997Z</time></trkpt><trkpt lat="45.779363985227256" lon="8.489354103433596"><ele>528.0</ele><time>2026-04-19T08:07:02Z</time></trkpt><trkpt lat="45.77930135858504" lon="8.489342161250416"><ele>528.0</ele><time>2026-04-19T08:07:15Z</time></trkpt><trkpt lat="45.77922512023672" lon="8.48933052635291"><ele>525.3333333333334</ele><time>2026-04-19T08:07:20Z</time></trkpt><trkpt lat="45.77915629492037" lon="8.489328335080106"><ele>522.6666666666666</ele><time>2026-04-19T08:07:23Z</time></trkpt><trkpt lat="45.77907447673641" lon="8.48928269417583"><ele>520.0</ele><time>2026-04-19T08:07:26Z</time></trkpt><trkpt lat="45.77901145585524" lon="8.489278340267564"><ele>517.3333333333333</ele><time>2026-04-19T08:07:28Z</time></trkpt><trkpt lat="45.778946549907026" lon="8.489288499223267"><ele>514.6666666666666</ele><time>2026-04-19T08:07:29.999Z</time></trkpt><trkpt lat="45.77888259175981" lon="8.489358344625407"><ele>512.0</ele><time>2026-04-19T08:07:35.999Z</time></trkpt><trkpt lat="45.778838990538986" lon="8.489476886368555"><ele>512.0</ele><time>2026-04-19T08:07:37.999Z</time></trkpt><trkpt lat="45.778802041232105" lon="8.489571943476246"><ele>511.99999999999994</ele><time>2026-04-19T08:07:39.999Z</time></trkpt><trkpt lat="45.77874012858697" lon="8.489591847613767"><ele>512.0</ele><time>2026-04-19T08:07:42.999Z</time></trkpt><trkpt lat="45.778674895563846" lon="8.489643547324846"><ele>512.0</ele><time>2026-04-19T08:07:46.999Z</time></trkpt><trkpt lat="45.77859683803921" lon="8.489683323813784"><ele>511.99999999999994</ele><time>2026-04-19T08:07:50.999Z</time></trkpt><trkpt lat="45.77853694410191" lon="8.489632439997942"><ele>512.0</ele><time>2026-04-19T08:07:53.999Z</time></trkpt><trkpt lat="45.77846823428535" lon="8.489568913352867"><ele>512.0</ele><time>2026-04-19T08:07:56.999Z</time></trkpt><trkpt lat="45.77840163984494" lon="8.489524562810255"><ele>508.49999999999994</ele><time>2026-04-19T08:07:58.999Z</time></trkpt><trkpt lat="45.778322888402734" lon="8.48944441967281"><ele>505.0</ele><time>2026-04-19T08:08:00.999Z</time></trkpt><trkpt lat="45.77822909476369" lon="8.489419807113595"><ele>501.5</ele><time>2026-04-19T08:08:02.999Z</time></trkpt><trkpt lat="45.77814525038067" lon="8.489329024757636"><ele>498.0</ele><time>2026-04-19T08:08:04.999Z</time></trkpt><trkpt lat="45.778087356385086" lon="8.489278901292714"><ele>494.49999999999994</ele><time>2026-04-19T08:08:05.999Z</time></trkpt><trkpt lat="45.77802544364824" lon="8.489319182465675"><ele>491.0</ele><time>2026-04-19T08:08:09.999Z</time></trkpt><trkpt lat="45.778071379245716" lon="8.489427177201474"><ele>490.99999999999994</ele><time>2026-04-19T08:08:49.998Z</time></trkpt><trkpt lat="45.77812800991401" lon="8.489528782288213"><ele>491.0</ele><time>2026-04-19T08:08:52.998Z</time></trkpt><trkpt lat="45.77817515829176" lon="8.489638560618706"><ele>491.0</ele><time>2026-04-19T08:08:55.997Z</time></trkpt><trkpt lat="45.778212999060734" lon="8.48974725791707"><ele>491.0</ele><time>2026-04-19T08:08:58.997Z</time></trkpt><trkpt lat="45.77825306046997" lon="8.489834871152693"><ele>490.99999999999994</ele><time>2026-04-19T08:09:00.997Z</time></trkpt><trkpt lat="45.77830483476942" lon="8.48994376062667"><ele>491.0</ele><time>2026-04-19T08:09:03Z</time></trkpt><trkpt lat="45.778393031375806" lon="8.49002754676814"><ele>491.8</ele><time>2026-04-19T08:09:05Z</time></trkpt><trkpt lat="45.77849350092161" lon="8.490076564590728"><ele>492.6</ele><time>2026-04-19T08:09:07Z</time></trkpt><trkpt lat="45.77859103951223" lon="8.490128062720471"><ele>493.4</ele><time>2026-04-19T08:09:09Z</time></trkpt><trkpt lat="45.77867000565107" lon="8.490212681061987"><ele>494.2</ele><time>2026-04-19T08:09:11Z</time></trkpt><trkpt lat="45.77875860589169" lon="8.490319016780909"><ele>495.0</ele><time>2026-04-19T08:09:13Z</time></trkpt><trkpt lat="45.77885877148642" lon="8.490381134670178"><ele>495.0</ele><time>2026-04-19T08:09:15Z</time></trkpt><trkpt lat="45.77896058339053" lon="8.490347790022772"><ele>495.0</ele><time>2026-04-19T08:09:17Z</time></trkpt><trkpt lat="45.779052028100836" lon="8.490309257449718"><ele>495.0</ele><time>2026-04-19T08:09:19Z</time></trkpt><trkpt lat="45.77913687416369" lon="8.490272167517071"><ele>495.0</ele><time>2026-04-19T08:09:21Z</time></trkpt><trkpt lat="45.77923934285377" lon="8.490238102571798"><ele>495.0</ele><time>2026-04-19T08:09:23Z</time></trkpt><trkpt lat="45.77933641310456" lon="8.490302701074041"><ele>495.2</ele><time>2026-04-19T08:09:25Z</time></trkpt><trkpt lat="45.77935270465842" lon="8.490455677518774"><ele>495.4</ele><time>2026-04-19T08:09:27Z</time></trkpt><trkpt lat="45.77934075248693" lon="8.490595535704436"><ele>495.6</ele><time>2026-04-19T08:09:29Z</time></trkpt><trkpt lat="45.77928253040452" lon="8.490693495968937"><ele>495.8</ele><time>2026-04-19T08:09:31Z</time></trkpt><trkpt lat="45.7792168464021" lon="8.490770799571438"><ele>496.0</ele><time>2026-04-19T08:09:33Z</time></trkpt><trkpt lat="45.77914324463768" lon="8.490863943261164"><ele>493.4</ele><time>2026-04-19T08:09:34.999Z</time></trkpt><trkpt lat="45.779061720269205" lon="8.490958046812054"><ele>490.8</ele><time>2026-04-19T08:09:36.999Z</time></trkpt><trkpt lat="45.77897335341293" lon="8.491046820418232"><ele>488.19999999999993</ele><time>2026-04-19T08:09:38.999Z</time></trkpt><trkpt lat="45.778889929201696" lon="8.491138339037304"><ele>485.59999999999997</ele><time>2026-04-19T08:09:40.999Z</time></trkpt><trkpt lat="45.778837565263686" lon="8.491245649929635"><ele>483.0</ele><time>2026-04-19T08:09:42.999Z</time></trkpt><trkpt lat="45.778871666773064" lon="8.491378850964267"><ele>482.42857142857144</ele><time>2026-04-19T08:09:44.999Z</time></trkpt><trkpt lat="45.77890772522187" lon="8.491453943008281"><ele>481.8571428571429</ele><time>2026-04-19T08:09:45.999Z</time></trkpt><trkpt lat="45.77893508999757" lon="8.491536366365722"><ele>481.2857142857143</ele><time>2026-04-19T08:09:46.999Z</time></trkpt><trkpt lat="45.7789601353771" lon="8.491621744269052"><ele>480.7142857142857</ele><time>2026-04-19T08:09:47.999Z</time></trkpt><trkpt lat="45.778990850033516" lon="8.491704432378432"><ele>480.14285714285717</ele><time>2026-04-19T08:09:48.999Z</time></trkpt><trkpt lat="45.77902457614879" lon="8.491791613649351"><ele>479.57142857142856</ele><time>2026-04-19T08:09:49.999Z</time></trkpt><trkpt lat="45.77905767932724" lon="8.491881689689421"><ele>479.0</ele><time>2026-04-19T08:09:50.999Z</time></trkpt><trkpt lat="45.77909378852185" lon="8.491968657938164"><ele>478.99999999999994</ele><time>2026-04-19T08:09:51.999Z</time></trkpt><trkpt lat="45.77914196859489" lon="8.492049877677324"><ele>479.0</ele><time>2026-04-19T08:09:52.999Z</time></trkpt><trkpt lat="45.77920530892539" lon="8.492116027290312"><ele>479.0</ele><time>2026-04-19T08:09:53.999Z</time></trkpt><trkpt lat="45.77926841448813" lon="8.492180804249942"><ele>479.0</ele><time>2026-04-19T08:09:54.999Z</time></trkpt><trkpt lat="45.77933658668813" lon="8.492242184020485"><ele>478.99999999999994</ele><time>2026-04-19T08:09:55.999Z</time></trkpt><trkpt lat="45.77941371870602" lon="8.492291599855053"><ele>479.0</ele><time>2026-04-19T08:09:56.999Z</time></trkpt><trkpt lat="45.77949454198217" lon="8.492330300245568"><ele>478.0</ele><time>2026-04-19T08:09:57.999Z</time></trkpt><trkpt lat="45.77957818336892" lon="8.492376115764635"><ele>477.0</ele><time>2026-04-19T08:09:58.999Z</time></trkpt><trkpt lat="45.779656335853346" lon="8.492444220419838"><ele>476.0</ele><time>2026-04-19T08:09:59.999Z</time></trkpt><trkpt lat="45.779746045053095" lon="8.492498446839425"><ele>475.0</ele><time>2026-04-19T08:10:00.999Z</time></trkpt><trkpt lat="45.77984271411334" lon="8.492537147876456"><ele>474.0</ele><time>2026-04-19T08:10:01.999Z</time></trkpt><trkpt lat="45.779934125072586" lon="8.492594463624053"><ele>474.0</ele><time>2026-04-19T08:10:02.999Z</time></trkpt><trkpt lat="45.78002990752024" lon="8.492652829226126"><ele>474.0</ele><time>2026-04-19T08:10:03.999Z</time></trkpt><trkpt lat="45.78012379498864" lon="8.49271168885288"><ele>474.0</ele><time>2026-04-19T08:10:04.999Z</time></trkpt><trkpt lat="45.78022060023668" lon="8.492764839024034"><ele>474.0</ele><time>2026-04-19T08:10:05.999Z</time></trkpt><trkpt lat="45.780316016673694" lon="8.492824015933188"><ele>474.0</ele><time>2026-04-19T08:10:06.999Z</time></trkpt><trkpt lat="45.78040697735711" lon="8.492892479317794"><ele>470.6</ele><time>2026-04-19T08:10:07.999Z</time></trkpt><trkpt lat="45.780503996085535" lon="8.49294719029549"><ele>467.2</ele><time>2026-04-19T08:10:08.999Z</time></trkpt><trkpt lat="45.78059848257799" lon="8.49300392397613"><ele>463.80000000000007</ele><time>2026-04-19T08:10:09.999Z</time></trkpt><trkpt lat="45.78069065671703" lon="8.493057548904456"><ele>460.40000000000003</ele><time>2026-04-19T08:10:10.999Z</time></trkpt><trkpt lat="45.78078421404688" lon="8.493113241158254"><ele>457.0</ele><time>2026-04-19T08:10:11.999Z</time></trkpt><trkpt lat="45.780876337255684" lon="8.493171503254063"><ele>457.0</ele><time>2026-04-19T08:10:12.999Z</time></trkpt><trkpt lat="45.78096758705849" lon="8.493228993756105"><ele>457.00000000000006</ele><time>2026-04-19T08:10:13.999Z</time></trkpt><trkpt lat="45.78105679693037" lon="8.493287748029514"><ele>457.00000000000006</ele><time>2026-04-19T08:10:14.999Z</time></trkpt><trkpt lat="45.781144623915885" lon="8.493347158704513"><ele>457.0</ele><time>2026-04-19T08:10:15.999Z</time></trkpt><trkpt lat="45.78122946843778" lon="8.493408440817273"><ele>457.0</ele><time>2026-04-19T08:10:16.999Z</time></trkpt><trkpt lat="45.781315509030705" lon="8.493455715280463"><ele>457.6666666666667</ele><time>2026-04-19T08:10:17.999Z</time></trkpt><trkpt lat="45.781405239132745" lon="8.493479589356468"><ele>458.33333333333337</ele><time>2026-04-19T08:10:18.998Z</time></trkpt><trkpt lat="45.78148998631822" lon="8.493472326832984"><ele>459.0</ele><time>2026-04-19T08:10:19.998Z</time></trkpt><trkpt lat="45.78157162697649" lon="8.493447715875982"><ele>459.66666666666663</ele><time>2026-04-19T08:10:20.998Z</time></trkpt><trkpt lat="45.78164636715503" lon="8.493433696873772"><ele>460.3333333333333</ele><time>2026-04-19T08:10:21.998Z</time></trkpt><trkpt lat="45.781716155003856" lon="8.493419377219016"><ele>461.0</ele><time>2026-04-19T08:10:22.998Z</time></trkpt><trkpt lat="45.7817804956439" lon="8.493408368475858"><ele>462.4</ele><time>2026-04-19T08:10:23.998Z</time></trkpt><trkpt lat="45.781902396330445" lon="8.493396003402637"><ele>463.8</ele><time>2026-04-19T08:10:25.998Z</time></trkpt><trkpt lat="45.781967353646984" lon="8.493385128868868"><ele>465.19999999999993</ele><time>2026-04-19T08:10:26.998Z</time></trkpt><trkpt lat="45.78209102111018" lon="8.493371049034472"><ele>466.59999999999997</ele><time>2026-04-19T08:10:28.998Z</time></trkpt><trkpt lat="45.78221376485002" lon="8.493367101517691"><ele>468.0</ele><time>2026-04-19T08:10:30.998Z</time></trkpt><trkpt lat="45.78233287619496" lon="8.493405669118014"><ele>468.0</ele><time>2026-04-19T08:10:32.998Z</time></trkpt><trkpt lat="45.78244010346604" lon="8.493460418301275"><ele>468.0</ele><time>2026-04-19T08:10:34.998Z</time></trkpt><trkpt lat="45.7825481915748" lon="8.493532479562749"><ele>468.0</ele><time>2026-04-19T08:10:36.998Z</time></trkpt><trkpt lat="45.7826576353973" lon="8.493579579558418"><ele>468.0</ele><time>2026-04-19T08:10:38.998Z</time></trkpt><trkpt lat="45.782768932842394" lon="8.493631225455221"><ele>469.5</ele><time>2026-04-19T08:10:40.998Z</time></trkpt><trkpt lat="45.78287505032067" lon="8.493683145689007"><ele>471.0</ele><time>2026-04-19T08:10:42.998Z</time></trkpt><trkpt lat="45.78298307822719" lon="8.493730954946349"><ele>472.5</ele><time>2026-04-19T08:10:44.998Z</time></trkpt><trkpt lat="45.78308926226247" lon="8.493787745263614"><ele>474.0</ele><time>2026-04-19T08:10:46.998Z</time></trkpt><trkpt lat="45.783202210451236" lon="8.49382621370689"><ele>474.0</ele><time>2026-04-19T08:10:48.998Z</time></trkpt><trkpt lat="45.78331420268053" lon="8.493836727746288"><ele>474.0</ele><time>2026-04-19T08:10:50.998Z</time></trkpt><trkpt lat="45.78342791947438" lon="8.493839805114673"><ele>474.0</ele><time>2026-04-19T08:10:52.998Z</time></trkpt><trkpt lat="45.783536999680706" lon="8.493842148202457"><ele>474.0</ele><time>2026-04-19T08:10:54.998Z</time></trkpt><trkpt lat="45.78364084978245" lon="8.493846881015783"><ele>474.0</ele><time>2026-04-19T08:10:56.998Z</time></trkpt><trkpt lat="45.78374355902621" lon="8.493844285882101"><ele>475.2</ele><time>2026-04-19T08:10:58.998Z</time></trkpt><trkpt lat="45.78384407899424" lon="8.493843777084306"><ele>476.4</ele><time>2026-04-19T08:11:00.998Z</time></trkpt><trkpt lat="45.783944179281725" lon="8.493845448014602"><ele>477.6</ele><time>2026-04-19T08:11:02.997Z</time></trkpt><trkpt lat="45.784046329973734" lon="8.493850171938925"><ele>478.8</ele><time>2026-04-19T08:11:04.997Z</time></trkpt><trkpt lat="45.784147502573006" lon="8.493849350364233"><ele>480.0</ele><time>2026-04-19T08:11:06.997Z</time></trkpt><trkpt lat="45.784243462863564" lon="8.493837860117738"><ele>481.0</ele><time>2026-04-19T08:11:09Z</time></trkpt><trkpt lat="45.784347123205045" lon="8.493843160532942"><ele>482.0</ele><time>2026-04-19T08:11:11Z</time></trkpt><trkpt lat="45.78445452207861" lon="8.493844877931965"><ele>483.0</ele><time>2026-04-19T08:11:13Z</time></trkpt><trkpt lat="45.78455724830025" lon="8.493846332362615"><ele>484.0</ele><time>2026-04-19T08:11:15Z</time></trkpt><trkpt lat="45.784657705562054" lon="8.49384725606817"><ele>485.0</ele><time>2026-04-19T08:11:17Z</time></trkpt><trkpt lat="45.78475685460664" lon="8.493852328843516"><ele>485.0</ele><time>2026-04-19T08:11:19Z</time></trkpt><trkpt lat="45.784855686438696" lon="8.49384981014565"><ele>485.0</ele><time>2026-04-19T08:11:21Z</time></trkpt><trkpt lat="45.784957270817145" lon="8.49384890184926"><ele>485.0</ele><time>2026-04-19T08:11:23Z</time></trkpt><trkpt lat="45.78505647386641" lon="8.49385860415496"><ele>485.0</ele><time>2026-04-19T08:11:25Z</time></trkpt><trkpt lat="45.785152575373885" lon="8.493871273276891"><ele>485.0</ele><time>2026-04-19T08:11:27Z</time></trkpt><trkpt lat="45.78524479224079" lon="8.493904984391333"><ele>486.4</ele><time>2026-04-19T08:11:29Z</time></trkpt><trkpt lat="45.78533347589124" lon="8.493961452907833"><ele>487.8</ele><time>2026-04-19T08:11:31Z</time></trkpt><trkpt lat="45.785419111843694" lon="8.494020464612658"><ele>489.20000000000005</ele><time>2026-04-19T08:11:33Z</time></trkpt><trkpt lat="45.78551235878395" lon="8.494075246185547"><ele>490.6</ele><time>2026-04-19T08:11:35Z</time></trkpt><trkpt lat="45.78560745129527" lon="8.494118061879778"><ele>492.0</ele><time>2026-04-19T08:11:37Z</time></trkpt><trkpt lat="45.78570230334742" lon="8.49414064527687"><ele>492.0</ele><time>2026-04-19T08:11:39Z</time></trkpt><trkpt lat="45.78580069922946" lon="8.494158193309696"><ele>492.00000000000006</ele><time>2026-04-19T08:11:41Z</time></trkpt><trkpt lat="45.78589643382975" lon="8.494180292536377"><ele>492.00000000000006</ele><time>2026-04-19T08:11:42.999Z</time></trkpt><trkpt lat="45.78598889783401" lon="8.494186910776424"><ele>492.0</ele><time>2026-04-19T08:11:44.999Z</time></trkpt><trkpt lat="45.78608781864333" lon="8.494193935520087"><ele>492.0</ele><time>2026-04-19T08:11:46.999Z</time></trkpt><trkpt lat="45.78618381287321" lon="8.494219794206874"><ele>495.8</ele><time>2026-04-19T08:11:48.999Z</time></trkpt><trkpt lat="45.786277204878175" lon="8.494252769770233"><ele>499.6</ele><time>2026-04-19T08:11:50.999Z</time></trkpt><trkpt lat="45.78635610050274" lon="8.494327778966358"><ele>503.40000000000003</ele><time>2026-04-19T08:11:52.999Z</time></trkpt><trkpt lat="45.78644720699642" lon="8.494376264080072"><ele>507.20000000000005</ele><time>2026-04-19T08:11:54.999Z</time></trkpt><trkpt lat="45.78653897082352" lon="8.49443522047284"><ele>511.0</ele><time>2026-04-19T08:11:56.999Z</time></trkpt><trkpt lat="45.78662871839289" lon="8.494495920569396"><ele>511.0</ele><time>2026-04-19T08:11:58.999Z</time></trkpt><trkpt lat="45.78672065493883" lon="8.494548777449891"><ele>511.0</ele><time>2026-04-19T08:12:00.999Z</time></trkpt><trkpt lat="45.78680357797389" lon="8.494586716447396"><ele>511.0</ele><time>2026-04-19T08:12:02.999Z</time></trkpt><trkpt lat="45.786885184416825" lon="8.494624306659817"><ele>511.0</ele><time>2026-04-19T08:12:04.999Z</time></trkpt><trkpt lat="45.78697351713807" lon="8.494665533040461"><ele>511.0</ele><time>2026-04-19T08:12:06.999Z</time></trkpt><trkpt lat="45.787068832293514" lon="8.494738665729765"><ele>509.0</ele><time>2026-04-19T08:12:08.999Z</time></trkpt><trkpt lat="45.78716361795393" lon="8.494819125889181"><ele>507.0</ele><time>2026-04-19T08:12:10.999Z</time></trkpt><trkpt lat="45.78725020555212" lon="8.494901331869755"><ele>505.0</ele><time>2026-04-19T08:12:12.999Z</time></trkpt><trkpt lat="45.78733584678016" lon="8.494981064374086"><ele>503.0</ele><time>2026-04-19T08:12:14.999Z</time></trkpt><trkpt lat="45.78742320852403" lon="8.49506077434052"><ele>501.0</ele><time>2026-04-19T08:12:16.999Z</time></trkpt><trkpt lat="45.78750536449368" lon="8.495141034063233"><ele>501.0</ele><time>2026-04-19T08:12:18.999Z</time></trkpt><trkpt lat="45.7875760561119" lon="8.495210759073945"><ele>501.0</ele><time>2026-04-19T08:12:20.999Z</time></trkpt><trkpt lat="45.78764572310678" lon="8.495294040198239"><ele>501.0</ele><time>2026-04-19T08:12:22.999Z</time></trkpt><trkpt lat="45.78770661122736" lon="8.495383161125543"><ele>501.0</ele><time>2026-04-19T08:12:24.999Z</time></trkpt><trkpt lat="45.787769438782895" lon="8.4954751937326"><ele>501.0</ele><time>2026-04-19T08:12:26.998Z</time></trkpt><trkpt lat="45.78783257475709" lon="8.495573239718423"><ele>501.0</ele><time>2026-04-19T08:12:28.998Z</time></trkpt><trkpt lat="45.78789897945996" lon="8.495676612091312"><ele>501.8</ele><time>2026-04-19T08:12:30.998Z</time></trkpt><trkpt lat="45.78797112306989" lon="8.495768071930613"><ele>502.6</ele><time>2026-04-19T08:12:32.998Z</time></trkpt><trkpt lat="45.78805865161127" lon="8.495838709596745"><ele>503.4</ele><time>2026-04-19T08:12:34.998Z</time></trkpt><trkpt lat="45.78815024316064" lon="8.49589666636389"><ele>504.2</ele><time>2026-04-19T08:12:36.998Z</time></trkpt><trkpt lat="45.78823583618914" lon="8.495966298141301"><ele>505.0</ele><time>2026-04-19T08:12:38.998Z</time></trkpt><trkpt lat="45.78833855426781" lon="8.495979280054874"><ele>505.0</ele><time>2026-04-19T08:12:40.998Z</time></trkpt><trkpt lat="45.78843934256714" lon="8.49600001789073"><ele>505.0</ele><time>2026-04-19T08:12:42.998Z</time></trkpt><trkpt lat="45.7885393505636" lon="8.496011090716513"><ele>505.0</ele><time>2026-04-19T08:12:44.998Z</time></trkpt><trkpt lat="45.788640698932426" lon="8.496018133784945"><ele>505.0</ele><time>2026-04-19T08:12:46.998Z</time></trkpt><trkpt lat="45.78873566785171" lon="8.496031393018498"><ele>505.0</ele><time>2026-04-19T08:12:48.998Z</time></trkpt><trkpt lat="45.78883243251461" lon="8.496033658204942"><ele>506.6</ele><time>2026-04-19T08:12:50.998Z</time></trkpt><trkpt lat="45.78892964093642" lon="8.496039453017554"><ele>508.2</ele><time>2026-04-19T08:12:52.998Z</time></trkpt><trkpt lat="45.789029620071275" lon="8.496053778146075"><ele>509.79999999999995</ele><time>2026-04-19T08:12:54.998Z</time></trkpt><trkpt lat="45.78912916914159" lon="8.496072439907046"><ele>511.4</ele><time>2026-04-19T08:12:56.998Z</time></trkpt><trkpt lat="45.78923219140027" lon="8.496083751486974"><ele>513.0</ele><time>2026-04-19T08:12:58.998Z</time></trkpt><trkpt lat="45.78932744831091" lon="8.496102399604572"><ele>514.0</ele><time>2026-04-19T08:13:00.998Z</time></trkpt><trkpt lat="45.789420339176765" lon="8.496120731615436"><ele>515.0</ele><time>2026-04-19T08:13:02.998Z</time></trkpt><trkpt lat="45.78951657295664" lon="8.496145886784438"><ele>516.0</ele><time>2026-04-19T08:13:04.998Z</time></trkpt><trkpt lat="45.789615340278836" lon="8.496170040226653"><ele>517.0</ele><time>2026-04-19T08:13:06.998Z</time></trkpt><trkpt lat="45.789711840069565" lon="8.496198579513468"><ele>518.0</ele><time>2026-04-19T08:13:08.997Z</time></trkpt><trkpt lat="45.78981228988687" lon="8.496220750146234"><ele>517.1666666666666</ele><time>2026-04-19T08:13:10.997Z</time></trkpt><trkpt lat="45.78990742783839" lon="8.496253976697872"><ele>516.3333333333333</ele><time>2026-04-19T08:13:12.997Z</time></trkpt><trkpt lat="45.790000016936666" lon="8.496291936918832"><ele>515.5</ele><time>2026-04-19T08:13:15Z</time></trkpt><trkpt lat="45.79008444215384" lon="8.496325867175726"><ele>514.6666666666666</ele><time>2026-04-19T08:13:17Z</time></trkpt><trkpt lat="45.7901722028967" lon="8.496365970606425"><ele>513.8333333333334</ele><time>2026-04-19T08:13:19Z</time></trkpt><trkpt lat="45.79023094852875" lon="8.496405288033044"><ele>513.0</ele><time>2026-04-19T08:13:21Z</time></trkpt><trkpt lat="45.79028498252281" lon="8.496248429936138"><ele>535.0</ele><time>2026-04-19T08:13:26Z</time></trkpt></trkseg></trk></gpx>